[[{"header":{"parameterUnit":"m.s-1","parameterCategory":1,"la1":30.6,"la2":28.766,"lo1":-90.7593,"lo2":-88.6598,"dx":0.0162,"dy":0.0183,"nx":116,"ny":114,"refTime":"2022-12-13T06:00:00:Z","depth":0,"parameterNumber":2,"parameterNumberName":"U-component_of_WINDS"},"data":[0.0,0.0,0.0,0.0,0.0,0.0,0.0,0.0,0.0,0.0,0.0,0.0,0.0,0.0,0.0,0.0,0.0,0.0,0.0,0.0,0.0,0.0,0.0,0.0,0.0,0.0,0.0,0.0,0.0,0.0,0.0,0.0,0.0,0.0,0.0,0.0,0.0,0.0,0.0,0.0,0.0,0.0,0.0,0.0,0.0,0.0,0.0,0.0,0.0,0.0,0.0,0.0,0.0,0.0,0.0,0.0,0.0,0.0,0.0,0.0,0.0,0.0,0.0,0.0,0.0,0.0,0.0,0.0,0.0,0.0,0.0,0.0,0.0,0.0,0.0,0.0,0.0,0.0,0.0,0.0,0.0,0.0,0.0,0.0,0.0,0.0,0.0,0.0,0.0,0.0,0.0,0.0,0.0,0.0,0.0,0.0,0.0,0.0,0.0,0.0,0.0,0.0,0.0,0.0,0.0,0.0,0.0,0.0,0.0,0.0,0.0,0.0,0.0,0.0,0.0,0.0,0.0,0.0,0.0,0.0,0.0,0.0,0.0,0.0,0.0,0.0,0.0,0.0,0.0,0.0,0.0,0.0,0.0,0.0,0.0,0.0,0.0,0.0,0.0,0.0,0.0,0.0,0.0,0.0,0.0,0.0,0.0,0.0,0.0,0.0,0.0,0.0,0.0,0.0,0.0,0.0,0.0,0.0,0.0,0.0,0.0,0.0,0.0,0.0,0.0,0.0,0.0,0.0,0.0,0.0,0.0,0.0,0.0,0.0,0.0,0.0,0.0,0.0,0.0,0.0,0.0,0.0,0.0,0.0,0.0,0.0,0.0,0.0,0.0,0.0,0.0,0.0,0.0,0.0,0.0,0.0,0.0,0.0,0.0,0.0,0.0,0.0,0.0,0.0,0.0,0.0,0.0,0.0,0.0,0.0,0.0,0.0,0.0,0.0,0.0,0.0,0.0,0.0,0.0,0.0,0.0,0.0,0.0,0.0,0.0,0.0,0.0,0.0,0.0,0.0,0.0,0.0,0.0,0.0,0.0,0.0,0.0,0.0,0.0,0.0,0.0,0.0,0.0,0.0,0.0,0.0,0.0,0.0,0.0,0.0,0.0,0.0,0.0,0.0,0.0,0.0,0.0,0.0,0.0,0.0,0.0,0.0,0.0,0.0,0.0,0.0,0.0,0.0,0.0,0.0,0.0,0.0,0.0,0.0,0.0,0.0,0.0,0.0,0.0,0.0,0.0,0.0,0.0,0.0,0.0,0.0,0.0,0.0,0.0,0.0,0.0,0.0,0.0,0.0,0.0,0.0,0.0,0.0,0.0,0.0,0.0,0.0,0.0,0.0,0.0,0.0,0.0,0.0,0.0,0.0,0.0,0.0,0.0,0.0,0.0,0.0,0.0,0.0,0.0,0.0,0.0,0.0,0.0,0.0,0.0,0.0,0.0,0.0,0.0,0.0,0.0,0.0,0.0,0.0,0.0,0.0,0.0,0.0,0.0,0.0,0.0,0.0,0.0,0.0,0.0,0.0,0.0,0.0,0.0,0.0,0.0,0.0,0.0,0.0,0.0,0.0,0.0,0.0,0.0,0.0,0.0,0.0,0.0,0.0,0.0,0.0,0.0,0.0,0.0,0.0,0.0,0.0,0.0,0.0,0.0,0.0,0.0,0.0,0.0,0.0,0.0,0.0,0.0,0.0,0.0,0.0,0.0,0.0,0.0,0.0,0.0,0.0,0.0,0.0,0.0,0.0,0.0,0.0,0.0,0.0,0.0,0.0,0.0,0.0,0.0,0.0,0.0,0.0,0.0,0.0,0.0,0.0,0.0,0.0,0.0,0.0,0.0,0.0,0.0,0.0,0.0,0.0,0.0,0.0,0.0,0.0,0.0,0.0,0.0,0.0,0.0,0.0,0.0,0.0,0.0,0.0,0.0,0.0,0.0,0.0,0.0,0.0,0.0,0.0,0.0,0.0,0.0,0.0,0.0,0.0,0.0,0.0,0.0,0.0,0.0,0.0,0.0,0.0,0.0,0.0,0.0,0.0,0.0,0.0,0.0,0.0,0.0,0.0,0.0,0.0,0.0,0.0,0.0,0.0,0.0,0.0,0.0,0.0,0.0,0.0,0.0,0.0,0.0,0.0,0.0,0.0,0.0,0.0,0.0,0.0,0.0,0.0,0.0,0.0,0.0,0.0,0.0,0.0,0.0,0.0,0.0,0.0,0.0,0.0,0.0,0.0,0.0,0.0,0.0,0.0,0.0,0.0,0.0,0.0,0.0,0.0,0.0,0.0,0.0,0.0,0.0,0.0,0.0,0.0,0.0,0.0,0.0,0.0,0.0,0.0,0.0,0.0,0.0,0.0,0.0,0.0,0.0,0.0,0.0,0.0,0.0,0.0,0.0,0.0,0.0,0.0,0.0,0.0,0.0,0.0,0.0,0.0,0.0,0.0,0.0,0.0,0.0,0.0,0.0,0.0,0.0,0.0,0.0,0.0,0.0,0.0,0.0,0.0,0.0,0.0,0.0,0.0,0.0,0.0,0.0,0.0,0.0,0.0,0.0,0.0,0.0,0.0,0.0,0.0,0.0,0.0,0.0,0.0,0.0,0.0,0.0,0.0,0.0,0.0,0.0,0.0,0.0,0.0,0.0,0.0,0.0,0.0,0.0,0.0,0.0,0.0,0.0,0.0,0.0,0.0,0.0,0.0,0.0,0.0,0.0,0.0,0.0,0.0,0.0,0.0,0.0,0.0,0.0,0.0,0.0,0.0,0.0,0.0,0.0,0.0,0.0,0.0,0.0,0.0,0.0,0.0,0.0,0.0,0.0,0.0,0.0,0.0,0.0,0.0,0.0,0.0,0.0,0.0,0.0,0.0,0.0,0.0,0.0,0.0,0.0,0.0,0.0,0.0,0.0,0.0,0.0,0.0,0.0,0.0,0.0,0.0,0.0,0.0,0.0,0.0,0.0,0.0,0.0,0.0,0.0,0.0,0.0,0.0,0.0,0.0,0.0,0.0,0.0,0.0,0.0,0.0,0.0,0.0,0.0,0.0,0.0,0.0,0.0,0.0,0.0,0.0,0.0,0.0,0.0,0.0,0.0,0.0,0.0,0.0,0.0,0.0,0.0,0.0,0.0,0.0,0.0,0.0,0.0,0.0,0.0,0.0,0.0,0.0,0.0,0.0,0.0,0.0,0.0,0.0,0.0,0.0,0.0,0.0,0.0,0.0,0.0,0.0,0.0,0.0,0.0,0.0,0.0,0.0,0.0,0.0,0.0,0.0,0.0,0.0,0.0,0.0,0.0,0.0,0.0,0.0,0.0,0.0,0.0,0.0,0.0,0.0,0.0,0.0,0.0,0.0,0.0,0.0,0.0,0.0,0.0,0.0,0.0,0.0,0.0,0.0,0.0,0.0,0.0,0.0,0.0,0.0,0.0,0.0,0.0,0.0,0.0,0.0,0.0,0.0,0.0,0.0,0.0,0.0,0.0,0.0,0.0,0.0,0.0,0.0,0.0,0.0,0.0,0.0,0.0,0.0,0.0,0.0,0.0,0.0,0.0,0.0,0.0,0.0,0.0,0.0,0.0,0.0,0.0,0.0,0.0,0.0,0.0,0.0,0.0,0.0,0.0,0.0,0.0,0.0,0.0,0.0,0.0,0.0,0.0,0.0,0.0,0.0,0.0,0.0,0.0,0.0,0.0,0.0,0.0,0.0,0.0,0.0,0.0,0.0,0.0,0.0,0.0,0.0,0.0,0.0,0.0,0.0,0.0,0.0,0.0,0.0,0.0,0.0,0.0,0.0,0.0,0.0,0.0,0.0,0.0,0.0,0.0,0.0,0.0,0.0,0.0,0.0,0.0,0.0,0.0,0.0,0.0,0.0,0.0,0.0,0.0,0.0,0.0,0.0,0.0,0.0,0.0,0.0,0.0,0.0,0.0,0.0,0.0,0.0,0.0,0.0,0.0,0.0,0.0,0.0,0.0,0.0,0.0,0.0,0.0,0.0,0.0,0.0,0.0,0.0,0.0,0.0,0.0,0.0,0.0,0.0,0.0,0.0,0.0,0.0,0.0,0.0,0.0,0.0,0.0,0.0,0.0,0.0,0.0,0.0,0.0,0.0,0.0,0.0,0.0,0.0,0.0,0.0,0.0,0.0,0.0,0.0,0.0,0.0,0.0,0.0,0.0,0.0,0.0,0.0,0.0,0.0,0.0,0.0,0.0,0.0,0.0,0.0,0.0,0.0,0.0,0.0,0.0,0.0,0.0,0.0,0.0,0.0,0.0,0.0,0.0,0.0,0.0,0.0,0.0,0.0,0.0,0.0,0.0,0.0,0.0,0.0,0.0,0.0,0.0,0.0,0.0,0.0,0.0,0.0,0.0,0.0,0.0,0.0,0.0,0.0,0.0,0.0,0.0,0.0,0.0,0.0,0.0,0.0,0.0,0.0,0.0,0.0,0.0,0.0,0.0,0.0,0.0,0.0,0.0,0.0,0.0,0.0,0.0,0.0,0.0,0.0,0.0,0.0,0.0,0.0,0.0,0.0,0.0,0.0,0.0,0.0,0.0,0.0,0.0,0.0,0.0,0.0,0.0,0.0,0.0,0.0,0.0,0.0,0.0,0.0,0.0,0.0,0.0,0.0,0.0,0.0,0.0,0.0,0.0,0.0,0.0,0.0,0.0,0.0,0.0,0.0,0.0,0.0,0.0,0.0,0.0,0.0,0.0,0.0,0.0,0.0,0.0,0.0,0.0,0.0,0.0,0.0,0.0,0.0,0.0,0.0,0.0,0.0,0.0,0.0,0.0,0.0,0.0,0.0,0.0,0.0,0.0,0.0,0.0,0.0,0.0,0.0,0.0,0.0,0.0,0.0,0.0,0.0,0.0,0.0,0.0,0.0,0.0,0.0,0.0,0.0,0.0,0.0,0.0,0.0,0.0,0.0,0.0,0.0,0.0,0.0,0.0,0.0,0.0,0.0,0.0,0.0,0.0,0.0,0.0,0.0,0.0,0.0,0.0,0.0,0.0,0.0,0.0,0.0,0.0,0.0,0.0,0.0,0.0,0.0,0.0,0.0,0.0,0.0,0.0,0.0,0.0,0.0,0.0,0.0,0.0,0.0,0.0,0.0,0.0,0.0,0.0,0.0,0.0,0.0,0.0,0.0,0.0,0.0,0.0,0.0,0.0,0.0,0.0,0.0,0.0,0.0,0.0,0.0,0.0,0.0,0.0,0.0,0.0,0.0,0.0,0.0,0.0,0.0,0.0,0.0,0.0,0.0,0.0,0.0,0.0,0.0,0.0,0.0,0.0,0.0,0.0,0.0,0.0,0.0,0.0,0.0,0.0,0.0,0.0,0.0,0.0,0.0,0.0,0.0,0.0,0.0,0.0,0.0,0.0,0.0,0.0,0.0,0.0,0.0,0.0,0.0,0.0,0.0,0.0,0.0,0.0,0.0,0.0,0.0,0.0,0.0,0.0,0.0,0.0,0.0,0.0,0.0,0.0,0.0,0.0,0.0,0.0,0.0,0.0,0.0,0.0,0.0,0.0,0.0,0.0,0.0,0.0,0.0,0.0,0.0,0.0,0.0,0.0,0.0,0.0,0.0,0.0,0.0,0.0,0.0,0.0,0.0,0.0,0.0,0.0,0.0,0.0,0.0,0.0,0.0,0.0,0.0,0.0,0.0,0.0,0.0,0.0,0.0,0.0,0.0,0.0,0.0,0.0,0.0,0.0,0.0,0.0,0.0,0.0,0.0,0.0,0.0,0.0,0.0,0.0,0.0,0.0,0.0,0.0,0.0,0.0,0.0,0.0,0.0,0.0,0.0,0.0,0.0,0.0,0.0,0.0,0.0,0.0,0.0,0.0,0.0,0.0,0.0,0.0,0.0,0.0,0.0,0.0,0.0,0.0,0.0,0.0,0.0,0.0,0.0,0.0,0.0,0.0,0.0,0.0,0.0,0.0,0.0,0.0,0.0,0.0,0.0,0.0,0.0,0.0,0.0,0.0,0.0,0.0,0.0,0.0,0.0,0.0,0.0,0.0,0.0,0.0,0.0,0.0,0.0,0.0,0.0,0.0,0.0,0.0,0.0,0.0,0.0,2.3027,2.2246,0.0,0.0,0.0,0.0,0.0,0.0,0.0,0.0,0.0,0.0,0.0,0.0,0.0,0.0,0.0,0.0,0.0,0.0,0.0,0.0,0.0,0.0,0.0,2.1066,2.1167,2.1443,2.1719,0.0,0.0,0.0,0.0,0.0,0.0,0.0,0.0,0.0,2.2422,2.2698,2.2975,2.3552,2.4381,2.3502,2.31,2.3125,0.0,0.0,0.0,0.0,0.0,0.0,0.0,0.0,0.0,0.0,0.0,0.0,0.0,0.0,0.0,0.0,0.0,0.0,0.0,0.0,0.0,0.0,0.0,0.0,0.0,0.0,0.0,0.0,0.0,0.0,0.0,0.0,0.0,0.0,0.0,0.0,0.0,0.0,0.0,0.0,0.0,0.0,0.0,0.0,0.0,0.0,0.0,0.0,0.0,0.0,0.0,0.0,0.0,0.0,0.0,0.0,0.0,0.0,0.0,0.0,0.0,0.0,0.0,0.0,0.0,0.0,0.0,0.0,0.0,0.0,2.4102,2.3555,0.0,0.0,0.0,0.0,0.0,0.0,0.0,0.0,0.0,0.0,0.0,0.0,0.0,0.0,0.0,0.0,0.0,0.0,0.0,0.0,0.0,2.097,2.1568,2.1731,2.1989,2.2272,2.2513,2.2564,2.2447,2.2874,0.0,0.0,0.0,0.0,2.3065,2.3065,2.3115,2.3276,2.4054,2.4657,2.5109,2.5209,2.5008,2.4531,2.3778,0.0,0.0,0.0,0.0,0.0,0.0,0.0,0.0,0.0,0.0,0.0,0.0,0.0,0.0,0.0,0.0,0.0,0.0,0.0,0.0,0.0,0.0,0.0,0.0,0.0,0.0,0.0,0.0,0.0,0.0,0.0,0.0,0.0,0.0,0.0,0.0,0.0,0.0,0.0,0.0,0.0,0.0,0.0,0.0,0.0,0.0,0.0,0.0,0.0,0.0,0.0,0.0,0.0,0.0,0.0,0.0,0.0,0.0,0.0,0.0,0.0,0.0,0.0,2.5234,2.541,2.543,2.5801,2.5957,2.5918,2.5117,2.4961,2.5215,2.4141,0.0,0.0,0.0,0.0,0.0,0.0,0.0,0.0,0.0,0.0,0.0,0.0,0.0,0.0,0.0,0.0,0.0,0.0,0.0,2.1066,2.2096,2.2799,2.2937,2.2355,2.3367,2.3709,2.3025,2.304,0.0,0.0,0.0,2.3065,2.3065,2.3065,2.3376,2.3879,2.541,2.6231,2.6332,2.6741,2.6917,2.6791,2.5285,2.433,2.3879,0.0,0.0,0.0,0.0,0.0,0.0,0.0,0.0,0.0,0.0,0.0,0.0,0.0,0.0,0.0,0.0,0.0,0.0,0.0,0.0,0.0,0.0,0.0,0.0,0.0,0.0,0.0,0.0,0.0,0.0,0.0,0.0,0.0,0.0,0.0,0.0,0.0,0.0,0.0,0.0,0.0,2.2936,2.2522,0.0,0.0,0.0,0.0,0.0,0.0,0.0,0.0,0.0,0.0,0.0,0.0,0.0,2.5039,2.5469,2.5918,2.6309,2.668,2.6738,2.6758,2.6758,2.6816,2.6855,2.6816,2.6348,0.0,2.6191,2.6035,0.0,0.0,0.0,0.0,0.0,0.0,0.0,0.0,0.0,0.0,0.0,0.0,0.0,0.0,0.0,0.0,0.0,0.0,0.0,0.0,0.0,2.4363,2.461,2.462,2.5472,2.5486,2.4365,2.4279,0.0,0.0,2.3065,2.3065,2.3065,2.3885,2.5092,2.689,2.7171,2.7452,2.7695,2.7119,2.6816,2.6791,2.6063,2.5611,2.536,2.5034,0.0,0.0,0.0,0.0,0.0,0.0,0.0,0.0,0.0,0.0,0.0,0.0,0.0,0.0,0.0,0.0,0.0,0.0,0.0,0.0,0.0,0.0,0.0,0.0,0.0,0.0,0.0,0.0,0.0,0.0,0.0,0.0,0.0,0.0,0.0,0.0,0.0,0.0,0.0,2.2528,2.32,2.4059,2.3513,2.3184,0.0,0.0,0.0,0.0,0.0,0.0,0.0,0.0,0.0,2.5508,2.5703,2.6016,2.6445,2.6641,2.6836,2.7012,2.7266,2.7383,2.7383,2.7637,2.7734,2.7715,2.7539,2.7461,2.7402,2.668,2.6269,2.6074,0.0,0.0,0.0,0.0,2.4473,2.4355,0.0,0.0,0.0,0.0,0.0,0.0,0.0,0.0,0.0,0.0,0.0,0.0,2.5522,2.6022,2.6358,2.6604,2.7195,2.702,2.5625,2.5512,2.4978,2.3721,2.3695,2.3695,2.3695,2.5024,2.6837,2.9073,2.879,2.8839,2.9201,2.8161,2.7691,2.7691,2.7435,2.7062,2.6508,2.6013,2.5586,2.5184,0.0,0.0,0.0,0.0,0.0,0.0,0.0,0.0,0.0,0.0,0.0,0.0,0.0,0.0,0.0,0.0,0.0,0.0,0.0,0.0,0.0,0.0,0.0,0.0,0.0,0.0,0.0,0.0,0.0,0.0,0.0,0.0,0.0,0.0,0.0,0.0,0.0,2.3432,2.4201,2.5242,2.5153,2.4856,0.0,0.0,0.0,0.0,0.0,0.0,2.541,2.5723,2.6094,2.6543,2.666,2.6875,2.7187,2.7285,2.7344,2.7344,2.7676,2.7832,2.7832,2.8144,2.8301,2.8301,2.8301,2.8301,2.8223,2.7266,2.6816,2.6699,2.6602,2.6289,2.5898,2.5898,2.5898,2.5918,0.0,0.0,0.0,0.0,0.0,0.0,0.0,0.0,0.0,0.0,0.0,2.6299,2.6354,2.7485,2.7969,2.7273,2.7911,2.7797,2.6438,2.6353,2.6019,2.53,2.5273,2.5273,2.5273,2.6486,2.7732,2.9073,3.0135,3.0648,3.0703,3.0842,3.0935,3.0935,3.0037,2.8448,2.6533,2.6508,2.6458,2.6289,2.5209,0.0,0.0,0.0,0.0,0.0,0.0,0.0,0.0,0.0,0.0,0.0,0.0,0.0,0.0,0.0,0.0,0.0,0.0,0.0,0.0,0.0,0.0,0.0,0.0,0.0,0.0,0.0,0.0,0.0,0.0,0.0,0.0,0.0,0.0,0.0,0.0,0.0,0.0,2.5317,2.7934,0.0,0.0,0.0,0.0,2.5761,2.5684,2.5879,2.6309,2.6348,2.6543,2.6973,2.7383,2.7617,2.7637,2.8027,2.8223,2.8223,2.8262,2.8262,2.8262,2.8281,2.8301,2.8301,2.8301,2.8301,2.8281,2.8223,2.7969,2.7559,2.7148,2.6719,2.6348,2.6348,2.6348,2.6406,0.0,0.0,0.0,2.361,2.34,2.343,2.3909,2.4104,2.4557,2.5442,2.6498,2.7307,2.7744,2.8983,2.9658,2.9375,3.0013,2.9812,2.8426,2.794,2.723,2.6048,2.5605,2.6022,2.7314,2.9023,3.0553,3.1915,3.1782,3.1952,3.235,3.1502,3.1088,3.1046,3.0697,2.9963,2.8931,2.7931,2.7519,2.7419,2.6314,2.5661,0.0,0.0,0.0,0.0,0.0,0.0,0.0,0.0,0.0,0.0,0.0,0.0,0.0,0.0,0.0,0.0,0.0,0.0,0.0,0.0,0.0,0.0,0.0,0.0,0.0,0.0,0.0,0.0,0.0,0.0,0.0,0.0,0.0,0.0,0.0,0.0,0.0,2.7963,2.936,0.0,2.7676,2.7994,2.7744,2.6271,2.666,2.7051,2.7207,2.7461,2.7676,2.7832,2.7988,2.8066,2.8066,2.8223,2.8688,2.9618,2.8688,2.9359,3.1398,3.0558,3.0298,3.0586,3.0586,3.0065,2.9121,2.9121,2.8867,2.8457,2.8301,2.832,2.8437,2.8437,2.8437,2.8457,0.0,0.0,0.0,2.361,2.361,2.367,2.3909,2.4537,2.5285,2.6153,2.741,2.8577,2.9505,3.0552,3.127,3.148,3.1928,3.1633,3.0221,2.9695,2.8855,2.7512,2.7256,2.7966,2.9753,3.107,3.2372,3.3484,3.3166,3.3206,3.3644,3.253,3.2016,3.1949,3.1337,3.0956,3.0586,2.9043,2.8499,2.8574,2.7469,2.6666,2.6113,0.0,0.0,0.0,0.0,0.0,0.0,0.0,0.0,0.0,0.0,0.0,0.0,0.0,0.0,0.0,0.0,0.0,0.0,0.0,0.0,0.0,0.0,0.0,0.0,0.0,0.0,0.0,0.0,0.0,0.0,0.0,0.0,0.0,0.0,0.0,2.937,2.9828,3.1159,3.1387,2.9688,3.0035,2.9851,2.8487,2.8942,2.9271,2.9271,2.9454,2.9618,2.9618,2.9197,2.9086,2.9226,2.8711,2.8985,3.0069,2.9144,3.0207,3.2955,3.1998,3.2061,3.2793,3.2944,3.2293,3.1079,3.1478,3.1436,3.1018,3.0207,3.0148,3.0529,3.0529,3.0313,3.0039,0.0,0.0,2.361,2.361,2.361,2.3819,2.4492,2.5196,2.6093,2.741,2.8757,3.0073,3.1332,3.2108,3.2766,3.3425,3.3484,3.2946,3.1659,3.1482,3.0971,2.9654,3.0223,3.118,3.2497,3.2527,3.2856,3.3514,3.4173,3.4472,3.4532,3.4155,3.4041,3.3945,3.2191,3.1315,3.1214,2.9678,2.9353,2.9756,2.8574,2.7821,2.7218,0.0,0.0,0.0,0.0,0.0,0.0,0.0,0.0,0.0,0.0,0.0,0.0,0.0,0.0,0.0,0.0,0.0,0.0,0.0,0.0,0.0,0.0,0.0,0.0,0.0,0.0,0.0,0.0,0.0,0.0,0.0,0.0,0.0,2.8591,3.0191,3.1281,3.0673,3.3542,3.4597,3.2029,3.3371,3.3773,3.2431,3.2331,3.2331,3.2331,3.2353,3.2353,3.2353,3.1051,3.0684,3.1127,2.9796,2.938,2.9793,2.9813,3.0924,3.287,3.2759,3.3617,3.4939,3.5523,3.5075,3.4155,3.5233,3.564,3.5331,3.2878,3.2159,3.2427,3.2448,3.1747,3.0996,2.361,2.361,2.361,2.361,2.361,2.3819,2.4492,2.5196,2.6093,2.741,2.8757,3.0073,3.1332,3.2108,3.2766,3.3425,3.3484,3.3155,3.2287,3.175,3.115,3.0283,3.136,3.2138,3.2497,3.2976,3.3544,3.4203,3.4382,3.4741,3.522,3.5109,3.5067,3.5067,3.4572,3.3905,3.3227,3.2779,3.1884,3.0693,2.9276,2.8599,2.8448,0.0,0.0,0.0,0.0,0.0,0.0,0.0,0.0,0.0,0.0,0.0,0.0,0.0,0.0,0.0,0.0,0.0,0.0,0.0,0.0,0.0,0.0,0.0,0.0,0.0,0.0,0.0,0.0,0.0,0.0,0.0,3.1945,3.2386,3.1276,3.2706,3.3909,3.4035,3.5307,3.554,3.3856,3.4095,3.3773,3.2431,3.2331,3.2331,3.2331,3.2689,3.2993,3.2993,3.2997,3.3033,3.3166,3.32,3.3763,3.4858,3.425,3.5459,3.8286,3.727,3.7263,3.7942,3.8084,3.7414,3.6162,3.6432,3.7107,3.7729,3.4528,3.3591,3.3759,3.265,3.2058,3.1875,2.361,2.361,2.361,2.361,2.3849,2.4268,2.4926,2.5585,2.6602,2.8218,2.9086,3.0193,3.1779,3.2527,3.3185,3.3844,3.3903,3.3634,3.2976,3.2317,3.1898,3.1749,3.2766,3.3215,3.2946,3.3844,3.4382,3.4472,3.4771,3.513,3.5519,3.5519,3.5519,3.5489,3.5067,3.4543,3.3945,3.3602,3.2806,3.1729,3.0824,2.9825,2.8925,2.8925,2.8373,2.767,2.7896,2.777,2.7469,2.7394,0.0,0.0,0.0,0.0,0.0,0.0,0.0,0.0,0.0,0.0,0.0,0.0,0.0,0.0,0.0,0.0,0.0,0.0,0.0,0.0,0.0,0.0,0.0,0.0,3.3671,3.422,3.4004,3.4612,3.5278,3.583,3.6182,3.6073,3.5259,3.5283,3.4872,3.4044,3.4256,3.4351,3.4351,3.4869,3.5254,3.5254,3.5002,3.4947,3.5155,3.5131,3.5603,3.6479,3.6287,3.7589,4.0291,3.9503,3.9537,4.0404,4.0623,4.0009,3.8824,3.9249,3.977,4.011,0.0,0.0,0.0,0.0,3.4689,3.4731,2.361,2.361,2.361,2.361,2.4178,2.4866,2.5525,2.6183,2.732,2.9325,2.9594,3.0342,3.2317,3.3036,3.3694,3.4412,3.4412,3.4113,3.3544,3.2946,3.2916,3.3574,3.4083,3.4173,3.3724,3.4831,3.513,3.4592,3.522,3.5519,3.5519,3.5519,3.5519,3.5424,3.4543,3.4177,3.4109,3.3255,3.2876,3.2735,3.2735,3.1288,2.9151,2.9151,2.8774,2.8373,2.8925,2.9126,2.9202,2.9704,0.0,0.0,0.0,0.0,0.0,0.0,0.0,0.0,0.0,0.0,0.0,0.0,0.0,0.0,0.0,0.0,0.0,0.0,0.0,0.0,0.0,0.0,0.0,0.0,3.45,3.5253,3.6232,3.5956,3.5805,3.6307,3.6358,3.6358,3.6358,3.6408,3.6458,3.6458,3.696,3.7287,3.7287,0.0,0.0,0.0,0.0,3.6621,3.6996,3.6479,3.6333,3.6678,3.7314,3.8524,4.0379,4.0379,4.1076,4.2283,4.276,4.2434,4.1605,4.2585,4.2685,4.2073,4.0072,3.9386,3.9494,3.854,3.8223,3.8223,2.361,2.361,2.361,2.361,2.4178,2.4866,2.5525,2.6183,2.732,2.9325,2.9594,3.0342,3.2317,3.2617,3.3185,3.4382,3.3993,3.3634,3.3514,3.3365,3.3604,3.4262,3.3903,3.4143,3.51,3.4831,3.4891,3.531,3.5429,3.5519,3.5519,3.5519,3.5519,3.5519,3.5294,3.5198,3.5198,3.5001,3.4476,3.3739,3.3739,3.2538,3.0738,3.0738,3.0263,2.9528,3.008,3.0281,3.0306,3.0407,3.0457,3.0357,2.9804,2.9553,0.0,0.0,0.0,0.0,0.0,0.0,0.0,0.0,0.0,0.0,0.0,0.0,0.0,0.0,0.0,0.0,0.0,0.0,0.0,3.4525,3.5403,3.6132,3.6332,3.6282,3.6232,3.6358,3.6358,3.6358,3.6358,3.6759,3.7036,3.7036,3.7538,3.7839,3.7839,3.8391,3.8718,3.8718,3.8916,3.8985,3.9084,3.9841,4.0276,4.0291,0.0,0.0,4.2476,4.2476,4.2588,4.2811,4.2936,4.2861,4.2685,4.2886,4.2911,4.2699,4.0925,3.9523,3.8444,3.8297,3.8223,3.8223,2.4118,2.3849,2.361,2.361,2.4448,2.5226,2.5555,2.6452,2.756,2.8906,2.9086,2.9594,3.0911,3.133,3.1779,3.2437,3.2796,3.3155,3.3484,3.3484,3.3784,3.4442,3.4173,3.4292,3.4981,3.4981,3.516,3.5519,3.5519,3.5519,3.5519,3.5519,3.5519,3.5519,3.5519,3.5519,3.5519,3.5519,3.5198,3.4773,3.4773,3.3905,3.2522,3.1536,3.0801,3.0281,3.0809,3.1185,3.1461,3.1763,3.1838,3.1738,3.1185,3.0809,3.0432,0.0,0.0,0.0,0.0,0.0,0.0,0.0,0.0,0.0,0.0,0.0,0.0,0.0,0.0,3.3495,3.3495,0.0,3.5127,3.5127,3.583,3.6358,3.6358,3.6609,3.6684,3.6383,3.6609,3.6784,3.6784,3.7287,3.7588,3.7588,3.8115,3.8442,3.8442,3.8969,3.927,3.927,3.9823,4.0099,4.0099,4.1204,4.1756,4.1756,4.2585,4.2986,4.2986,4.2986,4.2986,4.2986,4.3263,4.3388,4.3413,4.3689,4.379,4.3676,4.2963,4.1934,4.102,4.1282,4.1377,4.1377,2.4403,2.4088,2.3849,2.3969,2.4896,2.5644,2.5764,2.6811,2.7829,2.8517,2.8607,2.8846,2.9505,3.0013,3.0372,3.0492,3.1869,3.2916,3.3455,3.3484,3.3844,3.4651,3.4412,3.4412,3.4681,3.522,3.5519,3.5519,3.5519,3.5519,3.5519,3.5519,3.5519,3.5519,3.5519,3.5519,3.5519,3.5519,3.5519,3.5519,3.5519,3.4905,3.3837,3.2444,3.1491,3.0976,3.1508,3.1827,3.2164,3.2842,3.2993,3.2842,3.2491,3.1989,3.1361,3.0382,2.9704,0.0,0.0,0.0,0.0,0.0,0.0,0.0,0.0,3.3219,3.3596,3.3696,3.4073,3.4374,3.4374,3.5102,3.5705,3.5705,3.6157,3.6508,3.6508,3.6985,3.7186,3.6734,3.7086,3.7337,3.7337,3.7839,3.8165,3.8165,3.8718,3.9019,3.9019,3.9446,3.9697,3.9697,4.0124,4.04,4.0526,4.1505,4.2057,4.2158,4.2811,4.3137,4.3137,4.3237,4.3288,4.3313,4.3765,4.3966,4.3991,4.4443,4.4618,4.4644,4.4744,4.4518,4.4166,4.4493,4.4618,4.4618,2.3699,2.4148,2.4687,2.5285,2.5525,2.5794,2.6393,2.7111,2.7829,2.8517,2.8607,2.8846,2.9505,2.9654,2.9894,3.0462,3.2258,3.3425,3.3484,3.3484,3.4053,3.534,3.4233,3.4173,3.537,3.5459,3.5519,3.5519,3.5519,3.5519,3.5519,3.5519,3.5519,3.5519,3.5519,3.5519,3.5519,3.5519,3.5519,3.5519,3.5519,3.4905,3.4002,3.4438,3.3449,3.1887,3.2463,3.2195,3.1637,3.2717,3.2742,3.239,3.2842,3.2591,3.1989,3.1386,3.0834,3.0331,2.9829,3.0382,3.1386,3.2516,3.3219,3.3897,0.0,3.5228,3.5403,3.5881,3.6031,3.6081,3.6081,3.6182,3.6282,3.6282,3.6734,3.7086,3.7086,3.7563,3.7889,3.7839,3.7864,3.7914,3.7914,3.8442,3.8768,3.8768,3.9295,3.9597,3.9597,3.9672,3.9697,3.9697,3.9747,4.0023,4.0501,4.1128,4.1681,4.2158,4.3212,4.3714,4.374,4.4217,4.4443,4.4443,4.4493,4.4543,4.4543,4.4593,4.4618,4.4669,4.5196,4.5347,4.5246,4.4794,4.4618,4.4618,2.4687,2.4986,2.5525,2.6572,2.6422,2.6153,2.6033,2.6901,2.773,2.7949,2.8008,2.8098,2.8397,2.8479,2.8667,2.9355,3.121,3.2527,3.2886,3.3275,3.4113,3.5459,3.4233,3.4113,3.5489,3.5519,3.5519,3.5519,3.5519,3.5519,3.5519,3.5519,3.5519,3.5519,3.5519,3.5519,3.5519,3.5519,3.5519,3.5519,3.5519,3.5502,3.5495,3.576,3.5424,3.4602,3.3403,3.2829,0.0,3.2642,3.2416,3.2315,3.2893,3.2692,3.2114,3.1562,3.1009,3.0708,3.1085,3.2014,3.3119,3.4223,3.47,3.5052,3.5855,3.6006,3.6081,3.6307,3.6358,3.6358,3.6358,3.6634,3.6835,3.6835,3.7312,3.7663,3.7663,3.814,3.8517,3.8517,3.8793,3.8868,3.8542,3.9019,3.9346,3.9346,3.9572,3.9697,3.9697,3.9697,3.9848,4.0174,4.0475,4.1078,4.1932,4.2484,4.3037,4.3589,4.4066,4.4292,4.4292,4.4518,4.4794,4.5121,4.5121,4.5296,4.5598,4.5598,4.5598,4.5623,4.5874,4.5974,4.5949,4.5698,4.5598,4.5598,2.4956,2.5345,2.5854,2.6632,2.6811,2.6692,2.6213,2.6961,2.761,2.761,2.761,2.761,2.761,2.761,2.7859,2.8547,3.0073,3.142,3.2437,3.2946,3.3814,3.516,3.4292,3.4233,3.519,3.54,3.5519,3.5519,3.5519,3.5519,3.5519,3.5519,3.5519,3.5519,3.5519,3.5519,3.5519,3.5519,3.5519,3.5519,3.5699,3.6058,3.6537,3.6866,3.702,3.6693,3.4582,3.3877,3.3833,3.3086,3.2658,3.2658,3.3488,3.3085,3.2301,3.1975,3.1251,3.0884,3.2114,3.3169,3.4198,3.5454,3.5881,3.6132,3.6684,3.6709,3.6634,3.6784,3.6684,3.6634,3.6784,3.7136,3.7412,3.7412,3.7889,3.8241,3.8241,3.8743,3.9094,3.9094,3.9446,3.9546,3.9145,3.9471,3.9697,3.9697,3.9697,3.9697,3.9697,3.9848,4.0099,4.0501,4.1204,4.2032,4.2961,4.3514,4.4091,4.4618,4.4794,4.4869,4.4869,4.502,4.5321,4.5723,4.5723,4.5949,4.6301,4.6301,4.6301,4.6301,4.6301,4.6301,4.6301,4.6301,4.6301,4.6301,2.367,2.4717,2.5435,2.4791,2.6273,2.758,2.755,2.758,2.761,2.761,2.761,2.761,2.761,2.761,2.7859,2.8547,2.9235,3.0462,3.2377,3.2527,3.3125,3.4442,3.4472,3.4472,3.4502,3.516,3.5519,3.5519,3.5519,3.5519,3.5519,3.5519,3.5519,3.5519,3.5519,3.5519,3.5519,3.5519,3.5519,3.5579,3.6207,3.6477,3.6626,3.7853,3.7943,3.7198,3.6186,3.5187,3.4369,3.4245,3.3833,3.3532,3.4843,3.4119,3.2778,3.2935,3.1861,3.0959,3.2616,3.347,3.4299,3.5931,3.6734,3.7287,3.7839,3.7538,3.7312,3.7839,3.7538,3.7312,3.7864,3.7965,3.799,3.799,3.8467,3.8843,3.8843,3.932,3.9672,3.9672,3.9697,3.9697,3.9672,3.9697,3.9697,3.9697,3.9697,3.9697,3.9697,4.0199,4.0501,4.0526,4.158,4.2409,4.2961,4.3514,4.4091,4.4644,4.5196,4.5472,4.5472,4.6024,4.6276,4.6276,4.6276,4.6301,4.6301,4.6301,4.6301,4.6301,4.6301,4.6301,4.6301,4.6301,4.6301,4.6301,2.5498,2.5944,2.6333,2.6542,2.7141,2.761,2.761,2.761,2.761,2.761,2.761,0.0,0.0,0.0,0.0,0.0,2.8936,3.0043,3.112,3.2018,3.3095,3.4412,3.4053,3.4233,3.513,3.4951,3.504,3.5519,3.5519,3.5519,3.5519,3.5519,3.5519,3.5519,3.5519,3.5519,3.5519,3.5968,3.6148,3.6207,3.6836,3.7105,3.7135,3.7584,3.7614,3.7276,0.0,3.595,3.5321,3.4094,3.4148,3.4803,3.514,3.4958,3.4407,3.3728,3.3406,3.3545,3.4426,3.5127,3.583,3.7136,3.7588,3.7789,3.7965,3.7864,3.7789,3.7965,3.7864,3.7789,3.7965,3.8316,3.8567,3.8567,3.9044,3.9421,3.9421,4.0337,4.0945,4.0945,4.169,4.2279,4.2279,4.0642,3.9697,3.9697,3.9697,4.0023,4.0752,4.0626,4.1178,4.2635,4.271,4.3313,4.4644,4.4819,4.5196,4.5748,4.5949,4.6024,4.605,4.6225,4.6301,4.6301,4.6301,4.6301,4.6301,4.6301,4.6301,4.6301,4.6301,4.6301,4.6301,4.6301,4.6301,4.6301,2.6062,2.6347,2.6663,2.716,2.761,0.0,0.0,0.0,0.0,0.0,0.0,0.0,0.0,0.0,0.0,0.0,0.0,2.9576,3.0455,3.1576,3.2581,3.3365,3.3668,3.4061,3.4412,3.4233,3.4352,3.4801,3.5011,3.513,3.516,3.5639,3.5848,3.5878,3.6088,3.6178,3.6207,3.6626,3.6806,3.6866,3.7255,3.7404,3.7404,3.7404,3.7285,0.0,3.6626,3.6378,3.5933,3.4638,3.4911,3.5849,3.6276,3.6335,3.6207,3.552,3.5548,3.5755,3.6328,3.6836,3.7552,3.8139,3.8316,3.8366,3.8567,3.8467,3.8366,3.8567,3.8442,3.8366,3.8567,3.9297,3.9803,3.9523,4.0134,4.0671,4.0671,4.1331,4.2027,4.2279,4.3026,4.3504,4.3504,4.227,4.1432,4.1432,4.1432,4.1928,4.3075,4.2291,4.2639,4.4479,4.3979,4.4192,4.5472,4.5673,4.5949,4.6301,4.6301,4.6301,4.6301,4.6874,4.7087,4.7087,4.7626,4.786,4.786,4.786,4.786,4.786,4.786,4.786,4.786,4.786,4.7534,4.6968,2.5539,2.6063,2.6565,0.0,0.0,0.0,0.0,0.0,0.0,0.0,0.0,0.0,0.0,0.0,0.0,0.0,0.0,0.0,3.0351,3.1145,3.1589,3.1567,3.341,3.3867,3.2616,3.3186,3.3516,3.3484,3.4113,3.4412,3.4442,3.5699,3.6297,3.6357,3.6956,3.7225,3.7255,3.7315,3.7375,3.7375,3.7404,3.7375,3.7375,3.7375,3.6985,3.6447,3.6447,3.6447,3.6327,3.5699,3.5968,3.6746,3.8033,3.8296,3.8131,3.8274,3.7949,3.7675,3.8158,3.8701,3.916,3.9117,3.902,3.9044,3.9572,3.927,3.9019,3.9546,3.922,3.8994,3.9546,4.0718,4.1402,4.0714,4.1724,4.2589,4.2462,4.2563,4.2824,4.3491,4.3721,4.3748,4.3748,4.4371,4.476,4.4816,0.0,4.5065,4.6384,4.5142,4.4864,4.6164,4.5346,4.5153,4.5733,4.6263,4.6541,4.6541,4.6541,4.6541,4.6516,4.7977,4.8647,4.8647,5.0045,5.0713,5.0713,5.0713,5.0713,5.0713,5.0713,5.0713,5.0713,5.0713,4.9847,4.8416,0.0,0.0,0.0,0.0,0.0,0.0,0.0,0.0,0.0,0.0,0.0,0.0,0.0,0.0,0.0,0.0,0.0,0.0,2.972,3.0804,3.1746,3.2266,3.3208,3.3826,3.3959,3.3652,3.3482,3.3484,3.3664,3.3754,3.3754,3.3604,3.3784,3.4262,3.4412,3.4771,3.528,3.6297,3.6716,3.6776,3.7225,3.7135,3.6716,3.6716,3.6327,3.5759,3.5759,3.5759,3.5729,3.5579,3.6237,3.7404,3.8751,3.9444,3.9756,3.9326,3.9829,4.0574,4.0763,4.0575,4.0456,4.0827,4.0235,3.9521,3.9672,3.927,3.8919,3.9044,3.8617,3.8391,3.8969,4.0534,4.1776,4.1977,4.3513,4.4519,4.4081,4.4801,4.5242,4.4989,4.6185,4.7078,4.7078,4.7636,4.8429,4.9398,4.6878,4.5702,4.692,4.6696,4.7229,4.8763,4.8626,4.8784,4.9378,4.954,4.9621,4.9621,4.9621,4.9621,4.9594,4.9932,5.0157,5.0157,5.0602,5.0713,5.0713,5.0713,5.0713,5.0713,5.0713,5.0713,5.0713,5.0713,5.0491,5.0045,0.0,0.0,0.0,0.0,0.0,0.0,0.0,0.0,0.0,0.0,0.0,0.0,0.0,0.0,0.0,0.0,0.0,0.0,0.0,3.084,3.1486,3.164,3.2798,3.3553,3.3607,3.3567,3.327,3.2692,3.3211,3.3185,3.2647,3.3155,3.3574,3.3933,3.4233,3.4592,3.4981,3.5729,3.6058,0.0,0.0,3.6088,3.6028,3.5729,3.5549,3.5519,3.5519,3.5519,3.5579,3.6148,3.7195,3.8482,3.9529,4.0487,4.1308,4.1204,4.2005,4.2811,4.2842,4.2814,4.2806,4.2463,4.1518,4.0591,4.0906,3.985,3.8919,3.8881,3.8637,3.8492,3.8818,4.111,4.2995,4.3273,4.5166,4.6474,4.5757,4.6595,4.7015,4.6693,4.7911,4.8716,4.8716,4.9583,5.0301,5.075,4.8792,4.8373,5.0112,4.9177,4.9305,5.1028,5.0373,5.0187,5.0685,5.0713,5.0713,5.0713,5.0713,5.0713,5.0713,5.1372,5.1727,5.1727,5.2373,5.2722,5.2722,5.2722,5.2722,5.2722,5.2722,5.2722,5.2722,5.2722,5.2266,5.1727,0.0,0.0,0.0,0.0,0.0,0.0,0.0,0.0,0.0,2.9502,2.95,2.9848,0.0,0.0,0.0,0.0,0.0,0.0,0.0,0.0,3.1134,3.0555,3.2321,3.3041,3.2463,3.3187,3.2946,3.1737,3.2819,3.2824,3.1685,3.3367,3.4179,3.4299,3.4838,3.5138,3.5228,3.5254,3.522,3.519,3.4592,3.4711,3.519,0.0,3.4831,3.537,3.5459,3.5579,3.5818,3.7015,3.8242,3.9409,4.0157,4.1354,4.2611,4.318,4.3928,4.4578,4.4618,4.5017,4.5115,4.4069,4.2834,4.1923,4.2356,4.0808,3.9082,3.8991,3.8973,3.8965,3.9193,4.2172,4.4581,4.4559,4.6671,4.8085,4.7449,4.7969,4.8471,4.8447,4.9134,4.9613,4.9523,5.0631,5.1139,5.0661,5.0541,5.1498,5.3832,5.1766,5.1425,5.325,5.1513,5.0841,5.1263,5.1263,5.1263,5.1263,5.1263,5.1263,5.1372,5.2722,5.3308,5.3413,5.4641,5.5179,5.5179,5.5179,5.5179,5.5179,5.5179,5.5179,5.5179,5.5179,5.4406,5.3308,0.0,0.0,0.0,0.0,0.0,0.0,0.0,0.0,0.0,0.0,3.0107,3.0918,0.0,0.0,0.0,0.0,0.0,0.0,0.0,0.0,0.0,3.1243,3.2059,3.2493,3.242,3.3154,3.3113,3.2323,3.2623,3.264,3.2382,3.2222,3.2437,3.2906,3.3029,3.3367,3.3863,3.3819,3.3844,3.3844,3.3724,3.3724,3.3873,3.4322,0.0,0.0,3.531,3.5848,3.6417,3.7165,3.7913,3.8781,4.0008,4.1683,4.318,4.3299,4.4586,4.5938,4.5977,4.5669,4.5298,4.5115,4.4069,4.3053,4.2637,4.1452,4.025,3.9721,3.9163,3.9346,4.093,4.3069,4.5087,4.6547,4.8121,4.8893,4.8149,4.91,4.9667,4.9194,5.0631,5.1468,5.093,5.1588,5.2217,5.2636,5.2157,5.2067,5.2516,5.2621,5.3357,5.4815,5.4522,5.4288,5.4406,5.4406,5.4406,5.4406,5.4406,5.4406,5.4406,5.4743,5.4845,5.4845,5.5078,5.5179,5.5179,5.5179,5.5179,5.5179,5.5179,5.5179,5.5179,5.5179,5.5078,5.4845,0.0,0.0,0.0,0.0,0.0,0.0,0.0,3.0108,2.9973,2.96,3.0176,3.0649,3.0649,3.0954,3.119,0.0,0.0,0.0,0.0,0.0,0.0,3.0764,3.1746,3.1948,3.1216,3.3061,3.3359,3.1927,0.0,3.3097,3.2075,3.2106,3.2074,3.2023,3.2023,3.2175,3.2479,3.2435,3.2467,3.2467,3.2467,3.2677,3.3066,3.3724,0.0,0.0,3.54,3.5938,3.6567,3.7195,3.8093,3.908,4.0098,4.1983,4.3778,4.3419,4.4766,4.6322,4.6322,4.634,4.6344,4.6344,4.5389,4.4401,4.4062,4.2298,4.0498,3.9845,3.9257,3.9051,3.9931,4.2556,4.487,4.608,4.8198,4.9434,4.8416,4.9703,5.0511,4.9853,5.1199,5.2217,5.2247,5.2845,5.3234,5.3174,5.3234,5.3384,5.3743,5.4042,5.4521,5.5179,5.5179,5.5179,5.5179,5.5179,5.5179,5.5179,5.5179,5.5179,5.5179,5.5179,5.5179,5.5179,5.5179,5.5179,5.5179,5.5179,5.5179,5.5179,5.5179,5.5179,5.5179,5.5179,5.5179,5.5179,0.0,0.0,0.0,0.0,0.0,0.0,0.0,3.0345,2.9871,2.9871,3.0142,3.0345,3.0345,3.0852,3.119,0.0,0.0,0.0,0.0,0.0,0.0,0.0,0.0,0.0,0.0,0.0,0.0,3.1812,3.3532,0.0,0.0,0.0,0.0,0.0,3.1936,3.191,3.1739,3.1597,3.1482,0.0,0.0,3.1839,0.0,0.0,0.0,0.0,0.0,3.5998,3.6776,3.7255,3.8392,3.9709,4.0247,4.2013,4.3838,4.3599,4.4766,4.6172,4.6471,4.692,4.7309,4.7309,4.655,4.5697,4.5227,4.3137,4.1,4.0155,3.9601,3.9341,3.962,4.2367,4.485,4.5515,4.7908,4.9314,4.8416,4.9853,5.087,5.0481,5.1738,5.2725,5.2935,5.3713,5.3922,5.3234,5.3952,5.4581,5.497,5.5119,5.5179,5.5179,5.5179,5.5179,5.5179,5.5179,5.5179,5.5179,5.5179,5.5179,5.5179,5.5179,5.5179,5.5179,5.5179,5.5179,5.5179,5.5179,5.5179,5.5179,5.5179,5.5179,5.5179,5.5179,5.5179,5.5179,0.0,0.0,0.0,0.0,0.0,0.0,0.0,2.9567,2.9093,2.9093,3.0243,3.1089,3.1089,3.1157,3.119,0.0,0.0,0.0,0.0,0.0,0.0,0.0,0.0,0.0,0.0,0.0,0.0,3.3204,3.3437,0.0,0.0,0.0,0.0,0.0,0.0,3.3077,3.2437,3.1796,0.0,0.0,0.0,0.0,0.0,0.0,0.0,0.0,0.0,3.6297,3.7345,3.7375,3.8691,4.0337,4.0367,4.1384,4.2761,4.3898,4.4766,4.5663,4.689,4.7249,4.7309,4.7309,4.7222,4.6629,4.4855,4.3707,4.2505,4.0726,4.0769,4.1495,4.2684,4.4162,4.5615,4.6897,4.7372,4.7728,4.8207,4.9464,5.0541,5.105,5.2845,5.3563,5.2396,5.3443,5.3922,5.3234,5.4371,5.488,5.4341,5.488,5.5179,5.5179,5.5179,5.5179,5.5179,5.5179,5.5179,5.5179,5.5179,5.5179,5.5179,5.5179,5.5179,5.5179,5.5179,5.5179,5.5179,5.5179,5.5179,5.5179,5.5179,5.5179,5.5179,5.5179,5.5179,5.5179,0.0,0.0,0.0,0.0,0.0,0.0,3.004,2.9837,2.9668,2.9668,3.0548,3.119,3.119,3.2002,3.2341,3.1901,0.0,0.0,0.0,0.0,0.0,0.0,0.0,0.0,0.0,0.0,3.2882,3.2747,3.4074,0.0,0.0,0.0,0.0,0.0,0.0,3.2841,3.2547,3.1796,0.0,0.0,0.0,0.0,0.0,0.0,0.0,0.0,0.0,0.0,3.8003,3.8003,3.8811,3.9798,3.9798,4.0157,4.0846,4.2162,4.3868,4.5334,4.5454,4.6381,4.7309,4.7309,4.7309,4.677,4.4766,4.3808,4.2761,4.0816,4.0606,4.0935,4.1474,4.3299,4.4736,4.4885,4.6591,4.7848,4.7728,4.9494,5.1079,5.1738,5.3234,5.4012,5.3473,5.4251,5.467,5.4401,5.488,5.5089,5.482,5.5029,5.5179,5.5179,5.5179,5.5179,5.5179,5.5179,5.5179,5.5179,5.5179,5.5179,5.5179,5.5179,5.5179,5.5179,5.5179,5.5179,5.5179,5.5179,5.5179,5.5179,5.5179,5.5179,5.5179,5.5179,5.5179,5.5179,0.0,0.0,0.0,0.0,0.0,2.9161,2.9702,2.9973,3.0108,3.0108,3.1123,3.1833,3.1833,3.278,3.3186,3.2645,3.1935,0.0,0.0,0.0,0.0,0.0,0.0,0.0,0.0,0.0,3.3017,3.2916,3.4506,3.5127,0.0,0.0,3.4544,3.3903,0.0,0.0,0.0,0.0,0.0,0.0,0.0,0.0,0.0,0.0,0.0,0.0,0.0,0.0,0.0,0.0,0.0,3.9409,3.9409,3.9409,3.9679,4.0995,4.2671,4.4197,4.4526,4.5633,4.68,4.7219,4.701,4.6232,4.4436,4.3359,4.2252,4.0487,4.0427,4.0696,4.0696,4.2821,4.4436,4.3988,4.6202,4.7967,4.7908,4.9643,5.1169,5.1828,5.3084,5.3832,5.3623,5.4401,5.497,5.5179,5.5179,5.5179,5.5179,5.5179,5.5179,5.5179,5.5179,5.5179,5.5179,5.5179,5.5179,5.5179,5.5179,5.5179,5.5179,5.5179,5.5179,5.5179,5.5179,5.5179,5.5179,5.5179,5.5179,5.5179,5.5179,5.5179,5.5179,5.5179,5.5179,5.5179,0.0,0.0,0.0,0.0,0.0,0.0,2.8991,2.9634,3.0108,3.0108,3.2002,3.3389,3.3389,3.3389,3.3423,3.3389,3.2713,0.0,0.0,0.0,0.0,0.0,0.0,0.0,0.0,0.0,3.3017,3.4472,3.4506,3.4878,3.5577,3.5577,3.5224,3.4592,0.0,0.0,0.0,0.0,0.0,0.0,0.0,0.0,0.0,0.0,0.0,0.0,0.0,0.0,0.0,0.0,0.0,0.0,0.0,3.9409,3.9679,4.0995,4.1414,4.1983,4.4586,4.5304,4.5633,4.698,4.6292,4.4975,4.3658,4.2342,4.1025,3.9709,4.0457,4.1384,4.1384,4.3509,4.5274,4.5274,4.6411,4.7758,4.9075,4.9823,5.0481,5.1139,5.2396,5.2935,5.2276,5.3443,5.4491,5.5149,5.5179,0.0,5.5179,5.5179,5.5179,5.5179,5.5179,5.5179,5.5179,5.5179,5.5179,5.5179,5.5179,5.5179,5.5179,5.5179,5.5179,5.5179,5.5179,5.5179,5.5179,5.5179,5.5179,5.5179,5.5179,5.5179,5.5179,5.5179,5.5179,5.5179,0.0,0.0,0.0,0.0,0.0,0.0,0.0,2.8856,2.9533,3.004,3.1157,3.207,3.2577,3.3525,3.3728,3.2713,3.1968,0.0,0.0,0.0,0.0,0.0,0.0,0.0,0.0,3.278,3.3525,3.4506,3.5013,3.5385,3.5622,3.5622,3.5487,3.527,3.4783,3.4496,0.0,0.0,0.0,0.0,0.0,0.0,0.0,0.0,0.0,0.0,0.0,0.0,0.0,0.0,0.0,0.0,0.0,0.0,0.0,4.0106,4.0666,4.1564,4.2402,4.3269,4.4047,4.4496,4.4257,4.3599,4.2312,4.1683,4.1145,4.0277,4.0427,4.0995,4.1893,4.3449,4.4616,4.4616,4.6142,4.7608,4.8476,4.9942,5.1319,5.2426,5.3354,5.3982,5.4221,5.4221,5.4491,5.5149,5.5179,5.5179,5.5179,5.5179,5.5179,5.5179,5.5179,5.5179,5.5179,5.5179,5.5179,5.5179,5.5179,5.5179,5.5179,5.5179,5.5179,5.5179,5.5179,5.5179,5.5179,5.5179,5.5179,5.5179,5.5179,5.5179,5.5179,5.5179,5.5179,5.5179,0.0,0.0,0.0,0.0,0.0,0.0,0.0,2.8924,2.9567,3.004,3.0514,3.1157,3.2171,3.2848,3.2983,3.2381,3.163,0.0,0.0,0.0,0.0,0.0,0.0,0.0,3.2679,3.3152,3.3897,3.4912,3.5385,3.5622,3.5622,3.5622,3.5622,3.5577,3.5144,3.5005,0.0,0.0,0.0,0.0,0.0,0.0,3.5707,0.0,0.0,0.0,0.0,0.0,0.0,0.0,0.0,0.0,0.0,0.0,0.0,0.0,4.0455,4.114,4.1385,4.1983,4.2701,4.321,4.297,4.2372,4.1564,4.0995,4.0516,4.0127,4.0427,4.1025,4.1833,4.3479,4.4766,4.5035,4.6322,4.7698,4.8865,5.0062,5.1596,5.3607,5.4067,5.454,5.5395,5.4939,5.476,5.5149,5.5179,5.5179,5.5179,5.5179,5.5179,5.5179,5.5179,5.5179,5.5179,5.5179,5.5179,5.5179,5.5179,5.5179,5.5179,5.5179,5.5179,5.5179,5.5179,5.5179,0.0,5.5179,5.5179,5.5179,5.5179,5.5179,5.5179,5.5179,5.5179,5.5179,0.0,0.0,0.0,0.0,0.0,0.0,0.0,2.9567,3.004,3.0108,3.0108,3.0649,3.2036,3.1664,3.1529,3.2138,0.0,0.0,0.0,0.0,0.0,0.0,0.0,0.0,3.3389,3.3423,3.4134,3.5622,3.5622,3.5622,3.5622,3.5622,3.5622,3.5622,3.5622,3.5656,0.0,0.0,0.0,0.0,3.5648,3.6685,0.0,0.0,0.0,0.0,0.0,0.0,0.0,0.0,0.0,0.0,0.0,0.0,0.0,0.0,0.0,0.0,0.0,4.1385,4.161,4.2809,4.2209,4.1235,4.1235,4.0307,0.0,3.9529,4.0487,4.1354,4.1504,4.3599,4.5514,4.6142,4.689,4.8027,4.9912,5.0423,5.1666,5.4699,5.4744,5.491,5.5873,5.5652,5.5481,5.5381,5.5381,5.5481,5.5381,5.528,5.528,5.5179,5.5179,5.5179,5.5179,5.5179,5.5179,5.5179,5.5179,5.5179,5.5179,5.5179,5.5179,0.0,5.5179,5.5179,5.5179,5.5179,5.5179,5.5179,5.5179,5.5179,5.5179,5.5179,5.5179,5.5179,0.0,0.0,0.0,0.0,0.0,0.0,0.0,0.0,0.0,0.0,3.0108,3.0446,3.136,3.1799,3.1867,0.0,0.0,0.0,0.0,0.0,0.0,0.0,0.0,0.0,3.3389,3.3423,3.4134,3.5622,3.5622,3.5622,3.5622,3.5622,3.5622,3.5622,3.5622,3.596,0.0,0.0,0.0,0.0,3.7261,3.7524,0.0,0.0,0.0,0.0,3.8557,3.8402,0.0,0.0,0.0,0.0,0.0,0.0,0.0,0.0,4.0832,4.1022,4.168,0.0,4.0931,4.1238,4.0546,3.9888,0.0,3.9649,3.9709,4.0696,4.0756,4.1085,4.2581,4.4197,4.5334,4.5514,4.695,4.8386,4.9374,5.2002,5.436,5.5534,5.6901,5.7121,5.5508,5.6898,5.7527,5.6638,5.7434,5.7527,5.6638,5.6541,5.6183,5.5179,5.5179,5.5179,5.5179,5.5179,5.5179,5.5179,5.5179,5.5179,5.5179,5.5179,5.5179,5.5179,5.5179,5.5179,5.5179,5.5179,5.5179,5.5179,5.5179,5.5179,5.5179,5.5179,5.5179,5.5179,0.0,0.0,0.0,0.0,0.0,0.0,0.0,0.0,0.0,0.0,0.0,3.0006,3.1089,3.1258,0.0,0.0,0.0,0.0,0.0,0.0,0.0,0.0,0.0,3.1901,3.3389,3.3423,3.4134,3.5622,3.5622,3.5622,3.5622,3.5622,3.5622,3.5656,3.5994,3.6569,0.0,0.0,0.0,3.8387,3.872,0.0,0.0,0.0,0.0,0.0,3.8424,3.8264,0.0,3.8762,3.9146,3.9502,0.0,0.0,0.0,0.0,4.1193,4.161,4.1999,4.1694,4.1264,4.1264,4.0961,4.0516,4.013,4.0233,4.0546,4.086,4.1354,4.2073,4.315,4.5022,4.6486,4.6646,4.8706,5.0537,5.133,5.4259,5.6419,5.6707,5.7915,5.8542,5.7714,5.836,5.8542,5.79,5.8451,5.8542,5.79,5.7807,5.7559,5.6927,5.6831,5.628,5.5179,5.5179,5.5179,5.5179,5.5179,5.5179,5.5179,5.5179,5.5179,5.5179,5.5179,5.5179,5.5179,5.5179,5.5179,5.5179,5.5179,5.5179,5.5179,5.5179,5.5179,5.5239,0.0,0.0,0.0,0.0,0.0,0.0,0.0,0.0,0.0,0.0,0.0,0.0,0.0,0.0,0.0,0.0,0.0,0.0,0.0,0.0,0.0,0.0,3.119,3.1901,3.3389,3.3423,3.4134,3.5622,3.5622,3.5622,3.5622,3.5622,3.569,3.5825,3.6738,3.7483,3.8125,0.0,3.9174,3.9208,3.9817,0.0,0.0,0.0,0.0,0.0,0.0,0.0,0.0,3.7994,3.8358,3.9007,3.9721,0.0,0.0,0.0,0.0,0.0,4.2311,4.2397,4.2395,4.2397,4.2206,4.1852,4.1346,4.1579,4.1767,4.12,4.2606,4.3983,4.4037,4.6524,4.8624,4.8754,5.108,5.3305,5.4411,5.6567,5.8075,5.8075,5.8807,5.961,6.0247,5.9697,5.9258,5.9081,5.9258,5.9258,5.9081,5.9081,5.8992,5.8812,5.8812,5.7807,5.572,5.5551,5.5451,5.5451,5.528,5.528,5.5451,5.528,5.5179,5.5179,5.5381,5.5451,5.5451,5.5651,5.575,5.575,5.575,5.5651,5.5481,5.5571,5.5601,5.5822,0.0,0.0,0.0,0.0,0.0,0.0,0.0,0.0,0.0,0.0,0.0,0.0,0.0,0.0,0.0,0.0,0.0,0.0,0.0,0.0,0.0,3.119,3.119,3.1901,3.3389,3.3423,3.4134,3.5622,3.5622,3.5622,3.5622,3.5622,3.596,3.6671,3.8024,3.8734,3.887,3.9614,3.9918,3.9918,4.002,0.0,0.0,0.0,0.0,0.0,0.0,0.0,0.0,3.8745,3.8799,3.8941,3.904,0.0,0.0,0.0,0.0,0.0,4.2901,4.3665,4.414,4.4047,4.3037,4.2301,4.3419,4.3256,4.3146,4.3975,4.552,4.6834,4.7246,4.9804,5.171,5.1168,5.2908,5.497,5.6678,5.8331,5.9333,5.9249,6.0769,6.1119,5.9258,6.0787,6.1399,6.0417,6.1317,6.1399,6.0417,6.0332,5.9903,5.8812,5.8812,5.8632,5.8268,5.7276,5.6704,5.6704,5.572,5.572,5.6704,5.5651,5.5179,5.528,5.628,5.6704,5.68,5.7807,5.8268,5.8268,5.8268,5.7621,5.6796,5.7382,5.7598,5.7855,0.0,0.0,0.0,0.0,0.0,0.0,0.0,0.0,0.0,0.0,0.0,0.0,0.0,0.0,0.0,0.0,0.0,0.0,0.0,0.0,3.119,3.119,3.119,3.1901,3.3389,3.3423,3.4134,3.5622,3.6062,3.6231,3.6265,3.6671,3.7246,3.799,3.87,3.9208,3.9614,3.9952,4.0087,4.0087,0.0,0.0,0.0,0.0,0.0,0.0,0.0,0.0,0.0,0.0,3.9558,3.9558,3.9558,0.0,0.0,0.0,0.0,0.0,4.2523,4.3369,4.4305,4.5932,4.5768,4.52,4.544,4.5798,4.6018,4.5651,4.7139,4.8669,4.9265,5.1238,5.3411,5.527,5.6231,5.7299,5.8938,6.0303,6.0898,6.0175,6.1475,6.1951,6.087,6.1756,6.2189,6.1561,6.211,6.211,6.1595,6.1595,6.1317,6.0787,6.0787,6.0417,5.9784,5.9258,5.86,5.7993,5.7465,5.7465,5.7993,5.7371,5.7181,5.7181,5.7714,5.7993,5.7993,5.8542,5.8812,5.8844,5.9228,5.9083,5.8624,5.9318,5.9918,6.0392,0.0,0.0,0.0,0.0,0.0,0.0,0.0,0.0,0.0,0.0,0.0,0.0,0.0,0.0,0.0,0.0,0.0,0.0,0.0,3.119,3.119,3.119,3.119,3.1799,3.3119,3.3322,3.4134,3.5622,3.64,3.6874,3.7043,3.7821,3.8464,3.9005,3.9174,3.9546,4.0087,4.0087,4.0087,4.0087,0.0,0.0,0.0,0.0,0.0,0.0,0.0,0.0,0.0,0.0,0.0,0.0,0.0,0.0,0.0,4.0087,4.0595,4.1373,4.2083,4.3098,4.4587,4.7259,4.78,4.7619,4.7661,4.8497,4.8958,4.7869,4.9394,5.1057,5.1544,5.3016,5.5229,5.8444,5.8964,5.9344,6.0837,6.1837,6.203,6.1119,6.1837,6.2381,6.2381,6.2381,6.2381,6.2381,6.2381,6.2381,6.2381,6.2381,6.2381,6.2381,6.2381,6.1951,6.1036,6.1036,6.0417,5.9258,5.8902,5.8992,5.917,5.8902,5.8812,5.8812,5.9081,5.9258,5.929,5.9716,5.9869,5.9934,6.0736,6.0915,6.0838,6.1477,6.2123,6.2737,0.0,0.0,0.0,0.0,0.0,0.0,0.0,0.0,0.0,0.0,0.0,0.0,0.0,0.0,0.0,0.0,0.0,0.0,0.0,3.119,3.119,3.119,3.119,3.1562,3.2341,3.3051,3.4134,3.5622,3.64,3.7144,3.7855,3.8565,3.8937,3.9039,3.9715,4.002,4.0087,4.0087,4.0087,4.0087,4.0087,0.0,0.0,0.0,0.0,0.0,0.0,0.0,0.0,0.0,0.0,0.0,0.0,0.0,4.0087,4.0087,4.0595,4.1373,4.2083,4.3876,4.594,4.753,4.7394,4.7597,5.0274,5.0919,5.1094,5.1399,5.3528,5.5223,5.4972,5.6337,5.7876,5.8863,5.9532,6.0545,6.2066,6.2381,6.2381,6.2302,6.2381,6.2381,6.2381,6.2381,6.2381,6.2381,6.2381,6.2381,6.2381,6.2381,6.2381,6.2381,6.2381,6.2381,6.2302,6.2302,6.1676,6.0417,5.9346,5.9346,6.0417,5.9346,5.8812,5.8902,5.9957,6.0501,6.0652,6.2412,6.3155,6.3222,6.3964,6.3933,6.3472,6.3627,6.4087,6.4893,0.0,0.0,0.0,0.0,0.0,0.0,0.0,0.0,0.0,0.0,0.0,0.0,0.0,0.0,0.0,0.0,0.0,0.0,0.0,3.1351,3.119,3.119,3.119,3.1529,3.2273,3.3457,3.481,3.6332,3.755,3.8531,3.9276,3.9546,3.9648,3.9681,3.9952,4.0087,4.0087,4.0087,4.0087,4.0087,4.0087,4.0087,0.0,0.0,0.0,0.0,0.0,0.0,0.0,0.0,3.8633,3.9039,3.9309,3.9715,4.0087,4.0087,4.029,4.0865,4.2523,4.3978,4.5805,4.9154,4.9763,4.9965,5.1522,5.2638,5.3382,5.3578,5.4693,5.5913,5.6768,5.7459,5.8457,6.0148,6.025,6.0622,6.2178,6.2381,6.2381,6.2381,6.2381,6.2381,6.2381,6.2381,6.2381,6.2381,6.2381,6.2381,6.2381,6.2381,6.2381,6.2381,6.2381,6.2381,6.2381,6.2381,6.2189,6.1676,6.1235,6.1317,6.1676,6.1235,6.1036,6.1036,6.148,6.1944,6.246,6.3235,6.3768,6.4275,6.4986,6.5446,6.5627,6.5713,6.588,6.6148,0.0,0.0,0.0,0.0,0.0,0.0,0.0,0.0,0.0,0.0,0.0,0.0,0.0,0.0,0.0,0.0,0.0,0.0,3.2022,3.162,3.1568,3.1963,3.1725,3.2049,3.3202,3.4287,3.5487,3.6772,3.8497,3.958,4.0054,3.9851,3.9749,3.9715,3.9512,3.9512,3.9749,3.9749,3.9749,3.9749,3.9749,3.958,0.0,0.0,0.0,0.0,0.0,0.0,0.0,0.0,3.7889,3.8396,3.8836,3.9343,3.9783,4.002,4.0561,4.1474,4.2997,4.4688,4.6752,5.0033,5.1386,5.2198,5.3145,5.4025,5.4668,5.4905,5.5919,5.707,5.8051,5.8423,5.9099,6.0655,6.0655,6.0926,6.2212,6.2381,6.2381,6.2381,6.2381,6.2381,6.2381,6.2381,6.2381,6.2381,6.2381,6.2381,6.2381,6.2381,6.2381,6.2381,6.2381,6.2381,6.2381,6.2381,6.2381,6.2381,6.2381,6.2381,6.2381,6.2381,6.2381,6.2415,6.2651,6.3024,6.3565,6.4005,6.4647,6.5358,6.5831,6.6373,6.6812,6.6812,6.6812,6.6812,0.0,0.0,0.0,0.0,0.0,0.0,0.0,0.0,0.0,0.0,0.0,0.0,0.0,0.0,0.0,0.0,0.0,0.0,3.2535,3.2057,3.237,3.3667,3.2796,3.3236,3.5278,3.5522,3.5994,3.6806,3.8971,4.0054,4.0054,3.9309,3.8971,3.8937,3.8227,3.8294,3.8971,3.8971,3.8971,3.8971,3.8971,3.8565,3.7922,0.0,0.0,0.0,0.0,0.0,0.0,0.0,3.6772,3.7043,3.8531,3.8971,3.914,3.9884,4.1677,4.3403,4.3436,4.6177,4.9187,4.9932,5.1826,5.389,5.5378,5.5141,5.4803,5.5581,5.7476,5.9032,5.9032,5.9607,6.0114,6.0114,6.0791,6.1569,6.2279,6.2381,6.2381,6.2381,6.2381,6.2381,6.2381,6.2381,6.2381,6.2381,6.2381,6.2381,6.2381,6.2381,6.2381,6.2381,6.2381,6.2381,6.2381,6.2381,6.2381,6.2381,6.2381,6.2381,6.2381,6.2381,6.2381,6.2448,6.3193,6.3531,6.3632,6.5121,6.6136,6.6812,6.6812,6.6812,6.6812,6.6812,6.6812,6.6812,0.0,0.0,0.0,0.0,0.0,0.0,0.0,0.0,0.0,0.0,0.0,0.0,0.0,0.0,0.0,0.0,0.0,0.0,3.2983,3.2533,3.2719,3.3667,3.3424,3.4055,3.5749,3.6926,3.7508,3.7584,3.8227,3.8565,3.8531,3.8328,3.8227,3.8227,3.799,3.8024,3.8227,3.8227,3.8227,3.8227,3.8227,3.8091,3.7922,0.0,0.0,0.0,0.0,0.0,0.0,0.0,0.0,0.0,3.7922,3.8565,3.9242,4.0493,4.2083,4.3775,4.5365,4.7733,5.0338,5.2672,5.3754,5.4668,5.6156,5.5919,5.5581,5.6325,5.7848,5.9167,5.9674,5.9945,6.0452,6.1535,6.1467,6.1569,6.2279,6.2381,6.2381,6.2381,6.2381,6.2381,6.2381,6.2381,6.2381,6.2381,6.2381,6.2381,6.2381,6.2381,6.2381,6.2381,6.2381,6.2381,6.2381,6.2381,6.2381,6.2381,6.2381,6.2381,6.2381,6.2381,6.2685,6.3193,6.3429,6.4106,6.5121,6.6068,6.6609,6.6812,6.6812,6.6812,6.6812,6.6812,6.6812,6.6812,0.0,0.0,0.0,0.0,0.0,0.0,0.0,0.0,3.3437,3.3437,3.3196,3.3045,0.0,0.0,0.0,3.3437,3.3437,0.0,3.3873,3.3512,3.3856,3.5127,3.4831,3.519,3.6466,3.7385,3.7772,3.7619,3.8014,3.815,3.815,3.7678,3.7449,3.7449,3.7144,3.7178,3.7449,3.7449,3.7449,3.7449,3.7449,3.728,3.7009,0.0,0.0,0.0,0.0,0.0,0.0,0.0,0.0,0.0,3.7584,3.8396,3.9276,4.0764,4.2895,4.506,4.6413,4.9086,5.1961,5.4059,5.504,5.5784,5.6968,5.6664,5.6427,5.7476,5.8626,5.9776,6.0825,6.0994,6.1298,6.2245,6.2009,6.1873,6.2347,6.2381,6.2381,6.2381,6.2381,6.2381,6.2381,6.2381,6.2381,6.2381,6.2381,6.2381,6.2381,6.2381,6.2381,6.2381,6.2381,6.2381,6.2381,6.2381,6.2381,6.2381,6.2381,6.2381,6.2415,6.2685,6.3091,6.3531,6.414,6.5053,6.617,6.6643,6.6812,6.6812,6.6812,6.6812,6.6812,6.6812,6.6812,6.6812,0.0,0.0,0.0,0.0,0.0,0.0,0.0,3.3807,3.3807,3.3807,3.3807,3.3807,0.0,0.0,0.0,3.3807,3.3807,3.4137,3.4954,3.4666,3.5363,3.7404,3.6674,3.6576,3.7323,3.7323,3.7323,3.7323,3.8105,3.8425,3.8382,3.7308,3.6763,3.6637,3.5926,3.6028,3.6671,3.6671,3.6671,3.6671,3.6671,3.6265,3.5622,3.5622,0.0,0.0,0.0,0.0,0.0,0.0,0.0,0.0,3.7347,3.8294,3.9174,4.0663,4.3741,4.6718,4.6853,5.0135,5.3687,5.4499,5.5852,5.7171,5.7848,5.7543,5.7476,5.8761,5.9641,6.0655,6.2042,6.2347,6.2381,6.2381,6.2381,6.2381,6.2381,6.2381,6.2381,6.2381,6.2381,6.2381,6.2381,6.2381,6.2381,6.2381,6.2381,6.2381,6.2381,6.2381,6.2381,6.2381,6.2381,6.2381,6.2381,6.2381,6.2381,6.2381,6.2381,6.2415,6.2516,6.3193,6.3599,6.3802,6.5189,6.617,6.6812,6.6812,6.6812,6.6812,6.6812,6.6812,6.6812,6.6812,6.6812,6.6812,0.0,0.0,0.0,0.0,0.0,0.0,3.3807,3.3807,3.3807,3.3807,3.3807,3.3807,3.3807,3.3807,0.0,3.3807,3.3807,3.4137,3.4954,3.4934,3.5666,3.7404,3.7911,3.8218,3.8368,3.8368,3.8368,3.8368,3.779,3.7276,3.6859,3.6636,3.6268,3.5859,3.569,3.5723,3.5859,3.5859,3.5859,3.5859,3.5859,3.5757,3.5622,3.5622,3.5622,0.0,0.0,0.0,0.0,0.0,0.0,0.0,3.6738,3.755,3.843,3.9884,4.2997,4.621,4.7361,5.0541,5.3822,5.5141,5.7036,5.8592,5.8727,5.9099,5.9336,5.9066,6.008,6.1129,6.1467,6.2009,6.2381,6.2381,6.2381,6.2381,6.2381,6.2381,6.2381,6.2381,6.2381,6.2381,6.2381,6.2381,6.2381,6.2381,6.2381,6.2381,6.2381,6.2381,6.2381,6.2381,6.2381,6.2381,6.2381,6.2381,6.2381,6.2381,6.2381,6.2685,6.3294,6.3429,6.414,6.5256,6.617,6.6677,6.6812,6.6812,6.6812,6.6812,6.6812,6.6812,6.6812,6.6812,6.6812,6.6812,0.0,0.0,0.0,0.0,0.0,0.0,0.0,0.0,3.4724,3.3917,3.3807,3.3807,3.3807,3.3807,0.0,0.0,3.4394,3.4908,3.6119,3.6193,3.6743,3.8028,3.8469,3.8689,3.8689,3.8689,3.8689,3.8689,3.8168,3.7614,3.7135,3.6865,3.6498,3.5985,3.5985,3.5854,3.5622,3.5622,3.5622,3.5622,3.5622,3.5622,3.5622,3.5622,3.5622,3.5622,3.5622,0.0,0.0,0.0,0.0,0.0,0.0,0.0,3.8633,3.9783,4.2489,4.5568,4.7428,5.0101,5.301,5.5615,5.7645,5.9099,5.9471,6.0114,6.0655,6.0622,6.0994,6.14,6.1772,6.2144,6.2381,6.2381,6.2381,6.2381,6.2381,6.2381,6.2381,6.2381,6.2381,6.2381,6.2381,6.2381,6.2381,6.2381,6.2381,6.2381,6.2381,6.2381,6.2381,6.2381,6.2381,6.2381,6.2381,6.2381,6.2381,6.2381,6.2753,6.3497,6.4546,6.4546,6.5155,6.6237,6.6643,6.6812,6.6812,6.6812,6.6812,6.6812,6.6812,6.6812,6.6812,6.6812,6.6812,6.6812,0.0,0.0,0.0,0.0,0.0,0.0,0.0,0.0,0.0,3.399,3.3807,3.3844,3.399,3.4027,3.4357,0.0,0.0,0.0,3.7404,3.7624,3.7991,3.8689,3.8689,3.8689,3.8689,3.8689,3.8689,3.8689,3.8689,3.8465,3.8032,3.7542,3.702,3.6539,3.6457,3.6122,3.5756,3.5667,3.5667,3.5722,3.5722,3.5722,3.5722,3.5722,3.5711,3.5622,3.5622,3.5622,3.5622,3.5622,0.0,0.0,0.0,0.0,3.8768,3.9512,4.1798,4.4652,4.7029,4.978,5.2702,5.5953,5.7915,5.9201,5.9945,6.0723,6.1501,6.2245,6.1907,6.167,6.2279,6.2381,6.2381,6.2381,6.2381,6.2381,6.2381,6.2381,6.2381,6.2381,6.2381,6.2381,6.2381,6.2381,6.2381,6.2381,6.2381,6.2381,6.2381,6.2381,6.2381,6.2381,6.2381,6.2381,6.2381,6.2381,6.2381,6.2415,6.3294,6.441,6.5696,6.5831,6.6203,6.6812,6.6812,6.6812,6.6812,6.6812,6.6812,6.6812,6.6812,6.6812,6.6812,6.6812,6.6812,6.6812,0.0,0.0,0.0,0.0,0.0,0.0,0.0,0.0,0.0,0.0,3.3807,3.4064,3.4734,3.4844,3.5202,3.6046,3.6119,3.6523,3.747,0.0,0.0,3.8689,3.8689,3.8689,3.8689,3.8689,3.8689,3.8689,3.8689,3.8658,3.8596,3.8065,3.7542,3.7058,3.662,3.6333,3.6249,3.5766,3.5854,3.6291,3.6291,3.6291,3.6291,3.6291,3.6028,3.5622,3.5622,3.5622,3.5622,3.5622,3.5622,0.0,0.0,0.0,3.7212,3.799,4.0212,4.3093,4.6047,5.0863,5.53,5.6467,5.7915,5.9201,5.9945,6.0723,6.1501,6.2245,6.2313,6.2279,6.2381,6.2381,6.2381,6.2381,6.2381,6.2381,6.2381,6.2381,6.2381,6.2381,6.2381,6.2381,6.2381,6.2381,6.2381,6.2381,6.2381,6.2381,6.2381,6.2381,6.2381,6.2381,6.2381,6.2381,6.2381,6.2381,6.2381,6.2415,6.3802,6.4884,6.5696,6.6373,6.6711,6.6812,6.6812,6.6812,6.6812,6.6812,6.6812,6.6812,6.6812,6.6812,6.6812,6.6812,6.6812,6.6812,0.0,0.0,0.0,0.0,0.0,0.0,0.0,0.0,0.0,0.0,0.0,3.4587,3.4954,3.5459,3.5899,3.6266,3.6707,3.7294,3.8102,3.8505,3.8689,3.8689,3.8689,3.8689,3.8689,3.8689,3.8689,3.8689,3.8689,3.8689,3.8689,3.8465,3.8065,3.7578,3.736,3.7097,3.6825,3.6586,3.6626,3.6825,3.6825,3.7106,3.7496,3.7001,3.7061,3.7315,3.7305,3.6842,3.6332,3.6772,3.6332,3.5622,3.5622,0.0,0.0,0.0,3.917,4.1777,4.607,5.0676,5.4598,5.5821,5.7289,5.8592,5.9336,6.0419,6.14,6.1704,6.2506,6.2973,6.2459,6.2381,6.2381,6.2381,6.2381,6.2381,6.2381,6.2381,6.2381,6.2381,6.2381,6.2381,6.2381,6.2381,6.2381,6.2381,6.2381,6.2381,6.2381,6.2381,6.2381,6.2381,6.2381,6.2381,6.2381,6.2381,6.2821,6.3632,6.4715,6.5595,6.6339,6.6677,6.6812,6.6812,6.6812,6.6812,6.6812,6.6812,6.6812,6.6812,6.6812,6.6812,6.6812,6.6812,6.6812,6.6812,0.0,0.0,0.0,0.0,0.0,0.0,0.0,0.0,0.0,0.0,0.0,3.5064,3.5312,0.0,0.0,0.0,3.7257,3.7734,3.8358,3.8579,3.8689,3.8689,3.8689,3.8689,3.8689,3.8689,3.8689,3.8689,3.8689,3.8689,3.8689,3.8689,3.8496,3.8099,3.7928,3.772,3.736,3.7248,3.7248,3.7395,3.761,3.818,3.8821,3.8429,3.8793,3.953,3.9486,3.8876,3.8174,3.8321,3.7524,3.6365,3.6151,3.6491,0.0,0.0,0.0,4.207,4.6318,5.033,5.3579,5.4965,5.6633,5.8186,5.9074,6.0412,6.1473,6.185,6.2917,6.362,6.3131,6.3049,6.2973,6.2779,6.2736,6.2659,6.2459,6.2381,6.2459,6.2736,6.2503,6.2459,6.2736,6.2537,6.2381,6.2381,6.2381,6.2381,6.2381,6.2381,6.2381,6.2381,6.2381,6.2381,6.2381,6.2584,6.3429,6.4884,6.5425,6.6234,6.7161,6.6862,6.6946,6.7161,6.6862,6.6812,6.6812,6.6812,6.6812,6.6812,6.6812,6.6812,6.6812,6.6812,6.6812,6.6812,0.0,0.0,0.0,0.0,0.0,0.0,0.0,0.0,0.0,0.0,0.0,3.5284,3.6156,3.6927,3.7734,3.8505,3.7918,3.7514,3.7581,3.8285,3.8689,3.8689,3.8689,0.0,3.8689,3.8689,3.8689,3.8689,3.8689,3.8689,3.8689,3.8689,3.8658,3.8627,3.8132,3.7893,3.7825,3.7396,3.747,3.7931,3.8687,3.9481,4.0275,4.1034,4.1486,4.1831,4.1795,4.1795,4.1527,4.0219,3.9276,3.8478,3.7655,3.7447,3.7652,0.0,0.0,0.0,4.678,5.015,5.3411,5.4252,5.6235,5.8386,5.9867,6.0917,6.1905,6.3352,6.3771,6.4018,6.4725,6.4866,6.4597,6.3791,6.3647,6.3314,6.2537,6.2381,6.2736,6.3501,6.2931,6.2702,6.3574,6.2855,6.2381,6.2381,6.2381,6.2381,6.2381,6.2381,6.2381,6.2381,6.2381,6.2381,6.2381,6.3091,6.4174,6.5628,6.5662,6.6575,6.8146,6.7243,6.7291,6.8068,6.7161,6.6812,6.6812,6.6812,6.6812,6.6812,6.6812,6.6812,6.6812,6.6812,6.6812,6.6812,0.0,0.0,0.0,0.0,0.0,0.0,0.0,0.0,0.0,0.0,0.0,0.0,0.0,3.7771,3.8175,3.7955,3.7661,3.7698,3.8248,3.8542,3.8689,3.8689,3.8689,3.8689,3.8689,3.8689,3.8689,3.8689,3.8689,3.8689,3.8689,3.8689,3.8689,3.8689,3.8496,3.8433,3.8401,3.8234,3.8267,3.8579,4.0404,4.1608,4.2446,4.325,4.4082,4.4767,4.4725,0.0,4.3535,4.4021,4.2705,4.08,4.0475,3.97,3.9075,4.0045,4.2121,4.4528,4.6567,4.8605,5.07,5.3039,5.4259,5.5446,5.7588,5.9037,6.0441,6.1997,6.3538,6.4936,6.5761,6.5426,6.4866,6.4632,6.4042,6.3574,6.324,6.324,6.3388,6.3647,6.39,6.3971,6.3719,6.3388,6.2973,6.2459,6.2381,6.2659,6.3165,6.2736,6.2659,6.3199,6.2736,6.2618,6.3125,6.3835,6.4971,6.6608,6.7089,6.7946,6.9168,6.8833,6.8833,6.9168,6.8833,6.798,6.6812,6.6812,6.6812,6.6812,6.6812,6.6812,6.6812,6.6812,6.6812,6.6812,0.0,0.0,0.0,0.0,0.0,0.0,0.0,0.0,3.5459,3.5459,0.0,0.0,0.0,0.0,3.8395,3.7551,3.7734,3.8028,3.8285,3.8542,3.8689,3.8689,3.8689,3.8689,3.8689,3.8689,3.8689,3.8689,3.8689,3.8689,3.8689,3.8689,3.8689,3.8689,3.8689,3.8689,3.8689,3.8689,3.8872,3.9276,4.1442,4.2947,4.4085,4.57,4.6941,4.7866,0.0,0.0,0.0,4.7608,4.6024,4.3734,4.2869,4.1447,4.0381,4.176,4.2812,4.3975,4.6104,4.7518,4.9003,5.1729,5.3026,5.4076,5.5937,5.8033,5.9931,6.1279,6.3444,6.5472,6.6308,6.6127,6.5806,6.5554,6.4968,6.453,6.4183,6.4183,6.4218,6.4599,6.4835,6.4866,6.4632,6.4323,6.3757,6.2931,6.3124,0.0,6.3719,6.3427,6.3501,6.4113,6.3816,6.4071,6.4752,6.5585,6.6616,6.799,6.8478,6.9241,7.0196,6.9849,6.9849,7.0196,6.9849,6.8982,6.7742,6.7742,6.7742,6.7742,6.7373,6.7291,6.7243,6.7217,6.7184,6.7218,0.0,0.0,0.0,0.0,0.0,0.0,0.0,0.0,3.634,3.634,0.0,0.0,0.0,0.0,0.0,3.7588,3.8248,3.8358,3.7588,3.8285,3.8689,3.8689,3.8689,3.8689,3.8689,3.8689,3.8689,3.8689,3.8689,3.8689,3.8689,3.8689,3.8689,3.8689,3.8689,3.8689,3.8689,3.8689,3.9166,4.0047,4.1735,4.3387,4.5149,4.8379,5.0141,0.0,5.2674,5.3261,0.0,5.0766,4.9003,4.7228,4.4722,4.2668,4.1515,4.3057,4.3497,4.3828,0.0,0.0,0.0,5.0325,5.2527,5.4473,5.5354,5.796,6.0493,6.141,6.3503,6.5448,6.6329,6.71,6.7396,6.6546,6.6368,6.6064,6.5131,6.5065,6.5361,6.6247,6.5617,6.5426,6.6307,6.5554,6.4665,6.3757,6.4564,6.4597,6.3829,6.4564,6.4999,6.4999,6.5778,6.6521,6.73,6.8184,6.8999,6.9778,6.9778,7.0264,7.1095,7.0196,7.0264,7.1095,7.0196,6.9778,6.9778,6.9708,6.9708,6.9637,6.8648,6.8266,6.8215,6.8061,6.798,6.8082,0.0,0.0,0.0,0.0,0.0,3.521,3.5862,3.6633,3.7147,0.0,0.0,0.0,3.8358,3.8579,3.8615,3.8395,3.8579,3.8615,3.8395,3.8579,3.8689,3.8689,3.8689,3.8689,3.8689,3.8689,3.8689,3.8689,3.8689,3.8689,3.8689,3.8689,3.8689,3.8689,3.8689,3.8689,3.8689,3.8689,0.0,4.0194,4.3534,4.5883,0.0,0.0,0.0,0.0,0.0,5.4436,5.484,0.0,5.2212,4.9285,4.5625,4.4125,4.3681,4.3534,4.3497,4.3718,4.4745,0.0,0.0,0.0,0.0,0.0,5.4142,5.5427,5.7116,6.0823,6.2144,6.3246,6.5264,6.6292,6.6753,6.65,6.6431,6.6307,6.6064,6.6028,6.6125,6.6404,6.67,6.6816,6.6464,6.6186,6.5617,0.0,6.4866,6.5196,6.5653,6.5842,6.5681,6.4999,6.5778,6.6521,6.73,6.8184,6.9344,7.0734,7.0734,7.1223,7.2071,7.1854,7.1854,7.2071,7.1854,7.1732,7.1609,7.0264,6.9708,6.9708,6.9386,6.9241,6.9347,6.9898,7.0103,7.0208,0.0,0.0,3.4578,3.5422,3.5826,3.6229,3.6707,3.7477,3.7991,0.0,0.0,0.0,3.8689,3.8689,3.8689,3.8689,3.8689,3.8689,3.8689,3.8689,3.8689,3.8689,3.8689,3.8689,3.8689,3.8689,3.8689,3.8689,3.8689,3.8689,3.8689,3.8689,3.8689,3.8689,3.8689,3.8689,3.8726,3.9056,0.0,0.0,4.3828,0.0,0.0,5.1977,5.4216,0.0,0.0,0.0,5.7042,5.6712,5.4252,0.0,0.0,4.5736,4.5039,4.4232,4.3754,4.3681,4.4488,4.5039,4.581,4.7425,0.0,0.0,5.2307,5.3922,5.5794,0.0,6.0676,6.2034,6.3503,6.442,6.5081,6.5448,6.5734,6.6183,6.6837,6.691,6.691,6.691,6.7378,6.7488,6.6967,6.691,6.6582,6.5617,6.593,6.6368,6.691,6.691,6.67,6.615,6.723,6.8022,6.849,6.9641,7.0726,7.1635,7.1635,7.2011,7.2496,7.2496,7.2496,7.2496,7.2496,7.2496,7.2438,7.1323,7.0901,7.0836,7.0468,7.0511,7.08,7.0807,7.1302,7.194,0.0,0.0,3.5478,3.6323,3.703,3.7544,3.7624,3.8248,3.8689,0.0,3.8689,3.8689,3.8689,3.8689,3.8689,3.8689,3.8689,3.8689,3.8689,3.8689,3.8689,3.8689,3.8689,3.8689,3.8689,3.8689,3.8689,3.8689,3.8689,3.8689,3.8689,3.8689,3.8689,3.8689,3.8689,3.8762,3.8909,3.968,4.1001,4.2653,4.3534,4.5883,0.0,0.0,5.4656,5.6418,5.8584,5.9391,5.9318,5.8143,5.5354,0.0,0.0,0.0,0.0,4.5112,4.4268,4.3754,4.4415,4.4635,4.5039,4.6507,4.7535,0.0,5.0288,5.2858,5.5244,0.0,5.8877,6.086,6.1153,6.1924,6.2805,6.3539,6.453,6.5705,6.721,6.7504,6.7577,6.7577,6.7577,6.7577,6.7687,6.7687,6.7378,6.6582,6.723,6.7687,6.7687,6.7687,6.7724,6.7834,6.9302,7.0146,7.022,7.1725,7.2496,7.2496,7.2496,7.2496,7.2496,7.2496,7.2496,7.2496,7.2496,7.2496,7.2496,7.2496,7.2496,7.2438,7.1573,7.1657,7.2243,7.1547,7.2121,7.3403,3.5694,3.6048,3.6619,3.7474,3.7562,3.7698,3.8358,3.8615,3.8689,3.8689,3.8689,3.8689,3.8689,3.8689,3.8689,3.8689,3.8689,3.8689,3.8689,3.8689,3.8689,3.8689,3.8689,3.8689,3.8689,3.8689,3.8689,3.8689,3.8689,3.8689,3.8689,3.8689,3.8689,3.8689,3.8689,3.9056,3.9717,4.0524,4.2176,4.4378,4.581,0.0,5.2527,5.5133,5.7519,5.9538,6.0015,6.0566,6.0603,5.7189,5.5537,5.4216,0.0,0.0,0.0,4.6287,0.0,4.4378,4.3864,4.4195,4.4782,4.5112,0.0,0.0,4.9444,5.0288,5.172,0.0,5.5831,5.6381,5.8327,5.9905,6.0933,6.108,6.2915,6.4677,6.5632,6.6329,6.6733,6.6733,6.6733,6.699,6.7614,6.7687,6.7633,6.7433,6.7596,6.7687,6.7687,6.7687,6.7981,6.8641,6.9596,7.0403,7.1064,7.2018,7.2496,7.2496,7.2496,7.2496,7.2496,7.2496,7.2496,7.2496,7.2496,7.2496,7.2496,7.2496,7.2496,7.2496,7.2285,7.2299,7.2592,7.369,7.4285,7.4759,3.7074,3.7239,3.7541,3.8335,3.8293,3.8212,3.8652,3.8689,3.8689,3.8689,3.8689,3.8689,3.8689,3.8689,3.8689,3.8689,3.8689,3.8689,3.8689,3.8689,3.8689,3.8689,3.8689,3.8689,3.8689,3.8689,3.8689,3.8689,3.8689,3.8689,3.8689,3.8689,3.9129,3.9863,3.9056,3.9606,4.1148,4.1956,4.3938,4.6581,4.7388,0.0,5.2894,5.5721,5.807,5.9905,6.0713,6.1263,6.1117,5.7886,5.6528,0.0,0.0,5.1132,4.9884,0.0,4.6874,4.5626,0.0,0.0,0.0,4.4709,0.0,0.0,0.0,4.9591,5.0875,5.3298,5.4106,5.4766,5.5978,5.7189,5.8143,5.8547,6.0676,6.2254,6.2254,6.4714,6.6512,6.6512,6.6843,6.7247,6.765,6.7687,6.7687,6.7687,6.7687,6.7687,6.7687,6.8091,6.8678,6.9486,7.066,7.1505,7.1908,7.2716,7.2899,7.2496,7.2496,7.2496,7.2496,7.2496,7.2496,7.2496,7.2496,7.2716,7.3083,7.2679,7.2973,7.367,7.3266,7.334,7.3817,7.4625,7.5432,7.6166,3.8491,3.8441,3.854,3.9177,3.9073,3.8892,3.8892,3.8803,3.8773,3.8773,3.9068,3.9386,3.9586,3.9734,3.9919,4.0096,3.9919,3.9704,3.9319,3.9282,3.9148,3.8946,3.8799,3.8762,3.8946,3.8799,3.8689,3.8689,3.8689,3.8689,3.8689,3.8689,3.9496,4.0818,3.9737,4.0583,4.2837,4.3858,0.0,4.882,0.0,5.0949,5.3445,5.6235,5.8253,5.9869,6.13,6.1814,6.152,5.9391,5.807,5.7005,5.539,5.3298,0.0,0.0,0.0,0.0,0.0,0.0,0.0,0.0,0.0,4.6471,0.0,0.0,0.0,0.0,0.0,0.0,0.0,0.0,0.0,0.0,0.0,0.0,0.0,6.2438,0.0,6.5521,0.0,0.0,6.721,6.765,6.7871,6.7687,6.7834,6.7907,6.7907,6.8568,6.9412,7.0513,7.1835,7.2642,7.2973,7.3597,7.3523,7.2716,7.2716,7.2642,7.2496,7.2496,7.2569,7.2716,7.2569,7.3046,7.3854,7.3046,7.3597,7.4845,7.4001,7.4184,7.4918,7.5065,7.5983,7.7011,3.933,3.9564,3.9888,3.9944,3.9709,3.9524,3.9524,3.9249,3.9063,3.9063,4.0421,4.1744,4.2749,4.358,4.4297,4.5002,4.441,4.3262,4.1484,4.1381,4.0874,3.9822,3.9093,3.9019,3.9753,3.9056,3.8689,3.8689,3.8689,3.8689,3.8689,3.8689,3.9166,4.0079,4.0985,4.252,4.456,0.0,4.8492,0.0,5.2858,5.517,0.0,5.8547,5.9942,6.1447,6.2365,6.2658,6.2511,0.0,6.0199,5.8657,0.0,5.5354,5.3408,5.0435,0.0,0.0,0.0,0.0,0.0,0.0,4.6361,0.0,0.0,0.0,4.882,4.9664,0.0,0.0,0.0,0.0,0.0,0.0,0.0,0.0,5.6124,5.8951,6.1374,0.0,0.0,0.0,0.0,6.7504,6.8458,6.7724,6.8348,6.8752,6.8752,6.8862,6.9926,7.2165,7.2386,7.3193,7.4625,7.4735,7.4368,7.356,7.356,7.3193,7.2496,7.2496,7.2899,7.3523,7.2826,7.3377,7.4698,7.3891,7.4074,7.4845,7.4001,7.4184,7.4992,7.5689,7.6093,7.635,4.0046,4.0057,4.012,4.012,3.9819,3.958,3.958,3.99,4.0128,4.0128,4.1205,4.2335,4.3315,4.3277,0.0,0.0,0.0,4.4726,0.0,0.0,4.2872,4.2359,4.0425,3.9533,3.99,3.9129,3.8689,3.8689,3.8689,3.8689,3.8689,3.8689,3.9386,4.0666,4.1861,4.3923,4.6665,0.0,5.1598,0.0,0.0,0.0,0.0,5.9384,6.0493,6.2475,6.3796,6.3943,6.3429,0.0,6.1557,0.0,0.0,0.0,0.0,5.3592,0.0,0.0,0.0,0.0,0.0,0.0,0.0,0.0,4.7315,0.0,4.8416,0.0,0.0,0.0,0.0,0.0,0.0,0.0,5.3628,0.0,0.0,0.0,5.9465,0.0,0.0,0.0,0.0,0.0,0.0,0.0,6.8715,6.8898,6.8898,6.9816,7.1174,7.312,7.367,7.4441,7.5579,7.5616,7.4955,7.3707,7.3707,7.3266,7.2496,7.2496,7.2936,7.367,7.2863,7.367,7.5506,7.4221,7.4735,7.624,7.5395,7.5285,7.5689,7.6497,7.6827,7.6864,4.0508,4.0339,4.0233,4.0233,4.0004,3.9916,4.0019,4.0586,4.1101,4.1329,4.2488,4.3748,4.4943,4.4905,0.0,0.0,4.7843,4.7756,0.0,0.0,4.5717,4.5669,4.25,4.0818,4.104,3.9926,3.9166,3.8689,3.8909,3.8909,3.8689,3.8946,3.979,4.1148,4.2828,4.5275,4.8301,0.0,5.383,5.6215,5.7528,5.9281,6.1087,6.0692,6.163,6.3356,6.4787,6.4934,6.4383,6.3943,6.2989,0.0,6.1263,0.0,5.7262,0.0,0.0,0.0,5.2087,0.0,0.0,0.0,0.0,0.0,0.0,0.0,0.0,0.0,0.0,0.0,0.0,0.0,0.0,0.0,0.0,5.3115,0.0,0.0,0.0,0.0,0.0,0.0,0.0,0.0,0.0,0.0,0.0,6.8898,6.8898,7.022,7.1798,7.3634,7.4478,7.5395,7.6423,7.6203,7.5395,7.4037,7.3817,7.3266,7.2496,7.2716,7.3266,7.3964,7.3193,7.4184,7.6313,7.4698,7.5322,7.7268,7.668,7.6423,7.6497,7.7084,7.7304,7.7304,4.0508,4.0469,4.0508,4.0508,4.0454,4.0658,4.1189,4.1264,4.1569,0.0,0.0,0.0,0.0,0.0,0.0,0.0,0.0,5.3711,5.26,0.0,4.9847,4.9522,4.5181,4.3191,0.0,4.2031,4.0267,3.8689,3.946,3.946,3.8726,3.9496,4.0304,4.1222,4.3986,4.6632,4.9164,5.1983,5.4597,5.7012,5.8744,6.0154,6.139,0.0,6.398,6.4163,6.5007,0.0,0.0,6.6145,6.4787,0.0,0.0,0.0,0.0,0.0,0.0,0.0,0.0,0.0,0.0,5.3078,0.0,0.0,0.0,0.0,4.9297,0.0,0.0,0.0,0.0,0.0,0.0,0.0,0.0,0.0,0.0,0.0,0.0,0.0,0.0,0.0,0.0,0.0,0.0,0.0,0.0,0.0,6.8898,6.9706,7.1211,7.3597,7.4478,7.5689,7.7268,7.6497,7.5689,7.4845,7.4074,7.3266,7.2532,7.3303,7.4111,7.4845,7.4001,7.5028,7.7157,7.5542,7.5836,7.7304,7.7304,7.7268,7.7268,7.7304,7.7304,7.7304,4.0508,4.0508,4.0508,4.0508,4.0508,4.0761,4.1524,4.256,0.0,0.0,0.0,0.0,0.0,5.2433,5.378,0.0,0.0,5.622,5.6399,5.5121,0.0,0.0,0.0,4.6544,0.0,4.3781,4.1765,4.063,4.0333,4.0179,4.0188,4.0151,4.063,4.1579,4.4965,4.7871,0.0,0.0,0.0,0.0,0.0,6.3227,6.3421,0.0,6.4567,6.4347,6.6219,6.6549,0.0,6.6402,6.5925,6.5081,6.4016,6.2695,6.13,5.9648,5.8437,5.7703,0.0,0.0,5.7042,5.6528,0.0,0.0,0.0,0.0,0.0,0.0,0.0,0.0,0.0,0.0,0.0,0.0,0.0,0.0,0.0,0.0,0.0,0.0,0.0,0.0,0.0,0.0,0.0,0.0,0.0,0.0,0.0,7.0477,7.2018,7.4441,7.4771,7.5689,7.7304,7.6497,7.5689,7.4918,7.4074,7.3266,7.2532,7.334,7.3854,7.4074,7.3817,7.4771,7.6387,7.4771,7.5395,7.7268,7.6717,7.6827,7.7304,7.7304,7.7304,7.7304,4.0508,4.0508,4.0508,4.0508,4.0739,4.1354,4.2508,0.0,0.0,0.0,5.001,0.0,5.3895,0.0,5.6049,0.0,5.8819,5.9165,6.0012,5.8793,0.0,5.7238,5.3098,0.0,0.0,4.6619,4.429,4.3137,4.1948,4.1342,4.1302,4.1342,4.1686,4.235,4.5628,4.8537,5.133,5.4814,5.8189,0.0,0.0,6.4557,0.0,0.0,6.5408,6.5115,0.0,6.7347,6.6549,6.6843,6.6733,6.6329,6.5264,6.4383,6.3503,6.2438,6.1227,6.043,6.1661,6.12,0.0,6.0327,5.9111,0.0,5.5299,0.0,5.3817,0.0,0.0,0.0,0.0,0.0,0.0,0.0,0.0,0.0,0.0,5.0912,0.0,0.0,0.0,0.0,0.0,0.0,0.0,0.0,0.0,0.0,0.0,0.0,7.1872,7.4001,7.4625,7.5542,7.6864,7.635,7.5689,7.4918,7.4074,7.3266,7.2532,7.334,7.3707,7.3707,7.3707,7.4588,7.5983,7.4661,7.5212,7.6864,7.6644,7.668,7.6937,7.7194,7.7304,7.7304,4.0508,4.0508,4.0546,4.0546,4.1316,4.247,0.0,0.0,4.7663,0.0,5.1818,5.4087,5.5703,5.7473,5.9511,6.1935,6.2204,6.2512,6.3243,6.1858,0.0,0.0,5.7353,5.5046,5.4243,0.0,0.0,4.6038,4.426,4.2975,4.2243,4.295,4.3366,4.3517,4.5946,4.8655,5.1634,5.4117,5.6931,5.995,6.2041,6.4367,6.6624,6.6899,6.6695,6.6486,6.7999,6.7679,6.6712,6.7484,6.7226,6.6549,6.6565,6.6014,6.5375,6.5353,6.4802,6.4328,6.4836,6.3867,6.299,6.4294,6.3421,0.0,0.0,0.0,5.9433,0.0,0.0,0.0,0.0,0.0,0.0,0.0,0.0,0.0,0.0,0.0,0.0,0.0,0.0,0.0,0.0,0.0,0.0,0.0,0.0,0.0,0.0,0.0,7.0844,7.2459,7.4037,7.5249,7.6019,7.5983,7.5616,7.4845,7.4037,7.323,7.2532,7.334,7.367,7.3634,7.367,7.4551,7.5909,7.5139,7.5322,7.6166,7.6864,7.6717,7.6203,7.7011,7.7304,7.7304,4.0508,4.1008,4.147,4.147,4.2662,4.4008,0.0,0.0,0.0,0.0,5.4587,5.7396,5.8396,6.0627,6.2281,6.2935,6.3589,0.0,0.0,0.0,0.0,6.2704,5.9903,5.8169,5.7734,5.3048,0.0,4.8071,4.5765,4.4315,4.3714,4.3683,4.4015,4.4699,4.6625,4.9286,5.2537,5.4641,5.8519,6.3512,6.5909,6.7686,6.8953,0.0,6.9551,6.9095,6.908,6.8601,6.8011,6.8234,6.7885,6.7353,6.716,6.6666,6.614,6.5938,6.5756,6.5719,6.6499,6.6711,6.663,6.637,6.5502,6.4368,0.0,0.0,0.0,0.0,0.0,0.0,0.0,0.0,0.0,0.0,0.0,0.0,0.0,0.0,0.0,0.0,0.0,0.0,0.0,0.0,0.0,0.0,0.0,0.0,0.0,0.0,0.0,7.2459,7.3487,7.4404,7.5212,7.4625,7.4221,7.4001,7.3193,7.2716,7.2532,7.334,7.3377,7.2826,7.345,7.3927,7.4258,7.345,7.4294,7.5983,7.4992,7.5212,7.6203,7.7011,7.7304,7.7304,4.1623,4.2047,4.2585,4.3316,4.5163,0.0,4.7201,5.0471,0.0,5.4549,5.7434,0.0,6.105,6.3128,6.4589,6.4936,6.5743,0.0,6.5551,0.0,0.0,6.4474,6.2704,6.1286,6.0367,5.6803,0.0,5.1277,0.0,4.6839,4.5432,4.4863,4.5073,4.5954,4.7218,4.9729,5.3123,5.6505,6.0512,6.4743,6.659,6.8282,0.0,7.0206,7.0412,7.0394,7.0095,6.9511,6.8884,6.8884,6.866,6.8389,6.8189,6.7987,6.7682,6.7523,6.7278,6.7208,6.8207,6.8527,6.8635,6.9112,6.8874,6.8231,6.711,6.6736,6.6356,0.0,6.4761,6.4419,0.0,0.0,0.0,0.0,0.0,0.0,0.0,0.0,0.0,0.0,0.0,0.0,0.0,0.0,0.0,0.0,0.0,0.0,0.0,0.0,0.0,7.1908,7.2753,7.3377,7.3854,7.4441,7.4404,7.3707,7.3597,7.3193,7.2532,7.2973,7.2936,7.2532,7.2973,7.3377,7.367,7.3193,7.3817,7.4955,7.4037,7.4661,7.613,7.624,7.6497,7.679,4.3278,4.3431,4.4085,4.5663,4.8317,0.0,0.0,5.3626,0.0,5.8088,0.0,6.1743,6.332,6.5013,6.6359,6.7205,0.0,6.8398,6.8398,6.7705,6.6974,6.6244,6.5282,6.4089,6.2627,6.055,5.7973,0.0,0.0,4.9625,4.7201,4.6355,4.6317,4.7086,4.8048,5.0471,5.4203,5.9165,6.2704,6.5013,6.6013,6.7782,6.986,6.986,7.0283,7.0898,7.0898,7.0266,6.9433,6.9433,6.9353,6.9313,6.9393,6.9353,6.9313,6.9393,6.8903,6.8603,6.9763,6.9704,6.9795,7.1699,7.2283,7.2237,7.1778,7.2215,7.2105,6.996,6.8897,6.8171,0.0,0.0,0.0,0.0,0.0,0.0,0.0,0.0,0.0,0.0,0.0,0.0,0.0,0.0,0.0,0.0,0.0,0.0,0.0,0.0,0.0,7.0917,7.1982,7.2516,7.2483,7.4794,7.5161,7.3697,7.4427,7.3964,7.2496,7.2496,7.2496,7.2496,7.2496,7.2899,7.3523,7.3523,7.3523,7.356,7.378,7.4698,7.5873,7.5175,7.5359,7.5946,4.4085,4.524,4.6547,4.7509,5.151,5.4818,5.5549,5.6896,5.7934,5.828,6.0973,6.3243,6.4282,6.5859,6.7244,6.809,6.8321,0.0,0.0,0.0,0.0,6.7975,6.6474,6.5513,6.5243,6.1473,5.855,0.0,0.0,5.0741,4.8933,4.8086,4.774,4.7971,4.9548,5.2895,5.7703,6.2089,0.0,6.6782,6.8398,6.9706,7.0706,7.0706,7.0783,7.0898,7.0898,7.0494,6.9954,6.9954,6.9664,6.9393,6.9811,6.9664,6.9393,6.9811,6.9877,6.9801,7.0057,7.0815,7.1699,7.2091,7.2745,7.3255,7.3159,7.3236,7.3206,7.2775,7.2553,7.2429,7.2275,0.0,0.0,0.0,0.0,0.0,0.0,0.0,0.0,0.0,0.0,0.0,0.0,0.0,0.0,0.0,0.0,0.0,0.0,0.0,0.0,0.0,7.1394,0.0,0.0,0.0,7.4511,7.3499,7.3737,7.3413,7.2496,7.2496,7.2496,7.2496,7.2496,7.2569,7.2716,7.2716,7.2716,7.2826,7.4184,7.4882,7.5102,7.4955,7.4992,7.5139,0.0,0.0,0.0,0.0,0.0,0.0,0.0,6.0165,6.1743,6.2166,6.3666,6.5128,6.6436,6.7705,6.8629,6.9052,6.9475,6.9706,6.9706,6.9321,6.909,6.909,6.7859,6.6782,6.5897,6.4282,6.155,5.7665,0.0,5.3433,5.0048,4.9163,4.9009,4.9586,5.3087,5.6242,5.9204,0.0,0.0,6.7244,6.9013,7.0167,7.0898,7.0898,7.0898,7.0898,7.0898,7.0748,7.0524,7.0524,7.033,7.0162,7.0432,7.033,7.0162,7.0463,7.0869,7.1099,7.0639,7.1679,7.286,7.286,7.3514,7.4245,7.4707,7.4822,7.4668,7.4207,7.413,7.3764,7.2625,7.0247,0.0,0.0,0.0,0.0,0.0,0.0,0.0,0.0,0.0,0.0,0.0,0.0,0.0,0.0,0.0,0.0,0.0,0.0,0.0,0.0,0.0,0.0,0.0,0.0,7.5382,7.4025,7.4199,7.3891,7.312,7.2679,7.2496,7.2496,7.2496,7.2496,7.2496,7.2496,7.2496,7.2569,7.334,7.3927,7.4294,7.4294,7.4551,7.4918,0.0,5.1433,0.0,0.0,5.6203,5.8858,6.0358,6.3166,6.532,6.582,6.6205,6.7013,6.8513,6.9283,6.9783,6.9937,7.0514,7.0898,7.0898,7.0321,6.9975,6.9975,6.9129,6.8052,6.6744,6.6782,6.4474,0.0,0.0,0.0,5.1471,5.0818,5.1241,5.2741,5.6973,5.9473,0.0,0.0,6.6782,6.7513,6.9244,7.0321,7.0898,7.0898,7.0898,7.0898,7.0898,7.0898,7.0898,7.0898,7.0898,7.0898,7.0898,7.0898,7.0937,7.1129,7.1668,7.2091,7.1591,7.2437,7.3553,7.3707,7.4245,7.4938,7.5784,7.6015,7.5822,7.513,7.4976,7.4388,7.2461,7.144,0.0,0.0,0.0,0.0,0.0,0.0,0.0,0.0,0.0,0.0,0.0,0.0,0.0,0.0,0.0,0.0,0.0,0.0,0.0,0.0,0.0,7.2182,7.2406,0.0,7.6531,7.4983,7.5088,7.4564,7.3607,7.2847,7.2496,7.2496,7.2496,7.2496,7.2496,7.2496,7.2496,7.2532,7.2679,7.3266,7.3964,7.3964,7.4478,7.5175,0.0,0.0,0.0,0.0,0.0,6.3051,6.3974,6.5667,6.6628,6.5974,6.7205,6.8552,6.9475,6.9667,6.9975,7.0706,7.086,7.0898,7.0898,7.0821,7.0783,7.0783,7.0014,6.9513,6.936,6.7167,6.5359,0.0,0.0,5.6857,5.4126,5.4049,5.5703,5.8742,0.0,0.0,0.0,6.7013,6.8205,6.8436,7.0129,7.0821,7.0898,7.0898,7.0898,7.0898,7.0898,7.0898,7.0898,7.0898,7.0898,7.0898,7.0898,7.0898,7.1052,7.186,7.2129,7.236,7.3053,7.3399,7.3668,7.4399,7.463,7.4938,7.5784,7.6015,7.5976,7.5899,7.5861,7.5592,7.4572,7.3726,7.2611,0.0,0.0,0.0,0.0,0.0,0.0,0.0,0.0,0.0,0.0,0.0,0.0,0.0,0.0,0.0,0.0,0.0,0.0,6.8972,0.0,7.2133,7.301,7.6203,7.73,7.6237,7.5952,7.4979,7.3401,7.2798,7.2496,7.2496,7.2496,7.2496,7.2496,7.2496,7.2496,7.2569,7.3303,7.4074,7.4808,7.4808,7.5322,7.5983,0.0,0.0,0.0,0.0,0.0,0.0,0.0,6.7885,6.8847,6.8501,6.8898,6.9513,7.0321,7.0437,7.0552,7.086,7.0898,7.0898,7.0898,7.0898,7.0898,7.0898,7.0591,7.0206,6.9706,6.8205,6.6474,0.0,0.0,0.0,5.7511,5.7511,5.905,6.1858,0.0,6.5128,6.6282,6.8821,6.9629,6.9283,7.0437,7.0898,7.0898,7.0898,7.0898,7.0898,7.0898,7.1245,7.1668,7.1668,7.1321,7.0975,7.1514,7.1668,7.186,7.2706,7.3322,7.3668,7.3553,7.4245,7.4938,7.4745,7.5091,7.5553,7.5938,7.6015,7.6015,7.6015,7.6015,7.5899,7.5553,7.5207,7.4591,7.3399,0.0,0.0,0.0,0.0,0.0,0.0,0.0,0.0,0.0,0.0,0.0,0.0,0.0,0.0,0.0,0.0,0.0,7.0602,0.0,7.422,7.5056,7.7334,7.8022,7.7112,7.6639,7.5582,7.4099,7.3342,7.2871,7.2496,7.2496,7.2496,7.2532,7.301,7.323,7.3303,7.4111,7.4625,7.4955,7.5432,7.5836,7.6166,6.1486,0.0,6.3439,0.0,6.6147,6.7712,6.8348,6.964,7.0567,7.0567,7.039,7.0435,7.0925,7.0937,7.0898,7.0898,7.0898,7.0898,7.0898,7.0898,7.0898,7.0898,7.0898,0.0,7.0052,6.9206,6.7898,6.609,6.3897,0.0,6.0627,6.0396,6.2012,0.0,6.7051,6.8013,6.8359,7.0398,7.0667,6.9783,7.0591,7.0898,7.0937,7.1168,7.1129,7.0975,7.1475,7.1898,7.2245,7.2514,7.2168,7.1783,7.2399,7.2591,7.2745,7.3591,7.4284,7.463,7.4322,7.5091,7.5861,7.5245,7.5553,7.6015,7.6015,7.6015,7.6015,7.6015,7.6015,7.6015,7.6015,7.6015,7.5707,7.4861,0.0,0.0,0.0,0.0,0.0,0.0,7.1321,7.1668,7.1668,0.0,0.0,0.0,0.0,0.0,0.0,0.0,0.0,0.0,0.0,0.0,7.6043,7.787,7.8476,7.7829,7.7258,7.6135,7.4462,7.3587,7.2889,7.2496,7.2496,7.2642,7.2899,7.345,7.3817,7.4147,7.4955,7.5249,7.5359,7.6166,7.646,7.6533,6.5839,6.7008,6.7903,6.8657,6.9552,7.0149,7.0188,7.0901,7.1471,7.1471,7.1471,7.1392,7.121,7.1014,7.0898,7.0898,7.0898,7.0898,7.0898,7.0898,7.0898,0.0,0.0,7.0898,7.0898,7.009,6.9667,6.9629,0.0,0.0,6.3243,6.2435,6.4782,6.9629,6.9667,7.0129,7.0898,7.1822,7.1206,6.9783,7.0591,7.0898,7.0975,7.186,7.1629,7.1129,7.286,7.2937,7.2322,7.3206,7.3476,7.3476,7.3476,7.3476,7.363,7.4437,7.4707,7.4899,7.5745,7.5976,7.6015,7.5976,7.5976,7.6015,7.6015,7.6015,7.6015,7.6015,7.6015,7.6015,7.6015,7.6015,7.5707,7.4861,0.0,0.0,0.0,0.0,0.0,0.0,7.3476,7.3476,7.3476,0.0,0.0,0.0,0.0,0.0,0.0,0.0,0.0,7.0441,7.1631,0.0,7.5201,7.7406,7.8515,7.8477,7.7938,7.65,7.4249,7.305,7.2496,7.2496,7.2496,7.2936,7.367,7.3707,7.4184,7.4992,7.5763,7.6093,7.6166,7.7011,7.7304,7.7304,6.8183,6.8691,6.9117,6.9976,7.0366,7.0757,7.1343,7.1663,7.1835,7.1835,7.1718,7.1603,7.1544,7.1426,7.1283,0.0,7.1283,7.1245,0.0,7.1091,7.1052,7.0898,7.0898,7.0898,7.0898,7.0129,6.9706,6.9706,0.0,0.0,0.0,6.7128,6.8744,7.136,7.0783,7.0975,7.1783,7.2091,7.1552,7.0629,7.2091,7.2322,7.186,7.2745,7.2899,7.2745,7.3322,7.3668,7.3937,7.4207,7.4707,7.5207,7.5207,7.4822,7.4476,7.5361,7.5592,7.5668,7.5938,7.6015,7.6015,7.6015,7.6015,7.6015,7.6015,7.6015,7.6015,7.6015,7.6015,7.6015,7.6015,7.6015,7.5707,7.4861,7.5207,0.0,7.3322,0.0,7.4399,7.3591,7.3514,7.3745,0.0,7.3398,0.0,0.0,0.0,0.0,0.0,0.0,0.0,0.0,7.4896,0.0,7.7406,7.8723,7.9092,7.8477,7.8315,7.6842,7.4249,7.305,7.2496,7.2532,7.3083,7.345,7.378,7.4882,7.5506,7.5799,7.6607,7.6937,7.6974,7.7231,7.7304,7.7304,6.9805,7.0156,7.0547,7.1094,7.1172,7.1367,7.1914,7.1997,7.2002,7.2002,7.1885,7.1827,7.1792,7.1745,0.0,7.1501,7.1501,7.1463,7.1308,7.1326,7.1245,7.1129,7.1052,7.1014,7.1014,7.0437,0.0,7.0167,6.9052,6.8667,6.8898,7.009,7.1206,7.2206,7.2283,7.2476,7.2706,7.3014,7.2668,7.1975,7.3053,7.3168,7.2783,7.363,7.3783,7.3591,7.4207,7.4553,7.4745,7.5091,7.5553,7.6015,7.6015,7.563,7.5284,7.5822,7.6015,7.6015,7.6015,7.6015,7.6015,7.6015,7.6015,7.6015,7.6015,7.6015,7.6015,7.6015,7.6015,7.6015,7.6015,7.6015,7.5822,7.5284,7.563,7.5515,7.413,0.0,7.4899,0.0,0.0,0.0,0.0,7.4437,7.3782,0.0,0.0,0.0,0.0,0.0,0.0,7.4639,7.6053,7.7361,7.8477,7.9361,7.9515,7.8977,7.8129,7.65,7.4249,7.3238,7.289,7.2973,7.3487,7.4037,7.4661,7.5689,7.6276,7.6607,7.7121,7.7304,7.7304,7.7304,7.7304,7.7304,7.0781,7.1445,7.1992,7.1992,7.1992,7.1992,7.1992,7.1992,7.1992,7.1992,7.1992,7.1992,7.1992,7.1987,7.1874,7.1563,0.0,0.0,7.1524,7.1531,7.1493,7.1479,7.1325,7.1222,7.1206,7.1052,7.0937,7.0937,7.0937,7.0514,6.9821,7.1437,7.2245,7.236,7.3937,7.4245,7.3668,7.4437,7.4284,7.3553,7.3668,7.3668,7.3707,7.4514,7.4361,7.3899,7.5438,7.5476,7.4899,7.5745,7.6015,7.6015,7.6015,7.6015,7.6015,7.6015,7.6015,7.6015,7.6015,7.6015,7.6015,7.6015,7.6015,7.6015,7.6015,7.6015,7.6015,7.6015,7.6015,7.6015,7.6015,7.6015,7.6015,7.6015,7.6015,7.5707,7.4822,7.5399,7.563,0.0,0.0,0.0,0.0,7.5284,7.4784,0.0,0.0,0.0,0.0,0.0,7.3609,7.4861,7.5784,7.7015,7.8592,7.9438,7.9823,7.9669,7.7402,7.5588,7.4293,7.3774,7.3602,7.3707,7.3876,7.4757,7.6093,7.6166,7.6644,7.7304,7.7304,7.7304,7.7304,7.7304,7.7304,7.7304,0.0,0.0,7.1992,7.1992,7.1992,7.1992,7.1992,7.1992,7.1992,7.1992,7.1992,7.1992,7.1992,7.1986,7.1978,7.1897,7.1897,7.1819,7.1662,7.1641,7.1624,7.1503,7.1448,7.1435,7.1426,7.1387,7.1283,7.1129,7.1129,7.0937,7.0629,7.1706,7.2629,7.3427,7.385,7.4322,7.487,7.5082,7.4658,7.3976,7.5322,7.5361,7.4745,7.5592,7.5707,7.5476,7.5861,7.5861,7.5707,7.5938,7.6015,7.6015,7.6015,7.6015,7.6015,7.6015,7.6015,7.6015,7.6015,7.6015,7.6015,7.6015,7.6015,7.6015,7.6015,7.6015,7.6015,7.6015,7.6015,7.6015,7.6015,7.6015,7.6015,7.6015,7.6015,7.5707,7.4822,7.4899,7.4938,0.0,7.4707,7.5053,7.5938,7.5822,7.5438,0.0,0.0,0.0,0.0,7.6233,7.6963,7.6707,7.813,7.9092,7.9477,8.0362,8.0131,7.8784,7.6522,7.5018,7.4331,7.4764,7.4549,7.3802,7.5514,7.6235,7.6166,7.679,7.7157,7.7304,7.7304,7.7304,7.7304,7.7304,7.7304,7.7304,7.1992,7.1992,7.1992,7.1992,7.1992,7.1992,7.1992,7.1992,7.1992,7.1992,7.1992,7.1992,7.1992,7.1992,7.1992,7.1992,7.1992,7.1953,7.1836,7.1836,7.1788,7.1721,7.1636,7.1599,7.1588,7.1528,7.1451,7.1334,7.1326,7.1503,7.1772,7.2619,7.3311,7.3927,7.4726,7.515,7.5343,7.573,7.5614,7.5266,7.6234,7.6273,7.5763,7.6272,7.6284,7.613,7.613,7.6092,7.6015,7.6015,7.6015,7.6015,7.6015,7.6015,7.6015,7.6015,7.6015,7.6015,7.6015,7.6015,7.6015,7.6015,7.6015,7.6015,7.6015,7.6015,7.6015,7.6015,7.6015,7.6015,7.6015,7.6015,7.6015,7.6015,7.5668,7.5245,7.4784,7.5053,7.5284,7.5284,7.5976,7.663,7.7092,7.713,7.6938,7.6476,7.6976,0.0,7.6476,7.7746,7.8284,7.7861,7.9131,7.9977,8.04,8.0477,7.9823,7.8477,7.6875,7.5583,7.467,7.5544,7.56,7.5113,7.6521,7.7087,7.7139,7.7242,7.7304,7.7304,7.7304,7.7304,7.7304,7.7304,7.7304,7.7304,7.1992,7.1992,7.1992,7.1992,7.1992,7.1992,7.1992,7.1992,7.1992,7.1992,7.1992,7.1992,7.1992,7.1992,7.1992,7.1992,7.1992,7.1992,7.1992,7.1992,7.1992,7.1992,7.1836,7.1737,7.1755,7.1638,7.1638,7.1716,7.1727,7.2143,7.2996,7.3832,7.4217,7.4302,7.5914,7.6256,7.5635,7.6403,7.6702,7.6702,7.6702,7.6663,7.6638,7.6665,7.6521,7.6338,7.6303,7.6169,7.6053,7.6015,7.6015,7.6015,7.6015,7.6015,7.6015,7.6015,7.6015,7.6015,7.6015,7.6015,7.6015,7.6015,7.6015,7.6015,7.6015,7.6015,7.6015,7.6015,7.6015,7.6015,7.6015,7.6015,7.5976,7.5822,7.5284,7.4861,7.4707,7.5553,7.6207,7.6207,7.7553,7.8477,7.8477,7.8477,7.8477,7.8477,7.7977,7.79,7.8477,7.8746,7.8823,7.8707,7.9554,8.0362,8.1093,8.0131,7.9246,7.8477,7.7553,7.6453,7.532,7.627,7.6807,7.6927,7.7267,7.7744,7.8255,7.757,7.7304,7.7304,7.7304,7.7304,7.7304,7.7304,7.7304,7.7304,7.1992,7.1992,7.1992,7.1992,7.1992,7.1992,7.1992,7.1992,7.1992,7.1992,7.1992,7.1992,7.1992,7.1992,7.1992,7.1992,7.1992,7.1992,7.1992,7.1992,7.1992,7.1992,7.1953,7.1952,7.1947,7.1947,7.2181,7.2767,7.2756,7.3142,7.3822,7.4693,7.5177,7.5397,7.6415,7.6881,7.6907,7.7064,7.7103,7.7103,7.7103,7.7024,7.6866,7.6853,7.6751,7.6514,7.6353,7.6284,7.6207,7.6053,7.6015,7.6015,7.6015,7.6015,7.6015,7.6015,7.6015,7.6015,7.6015,7.6015,7.6015,7.6015,7.6015,7.6015,7.6015,7.6015,7.6015,7.6015,7.6015,7.6015,7.6015,7.6015,7.5745,7.5014,7.5399,7.5553,7.4822,7.6092,7.7092,7.7092,7.7938,7.8477,7.8477,7.8477,7.8477,7.8477,7.9054,7.9169,7.8515,7.99,8.0362,7.9631,8.0439,8.0977,8.1093,7.9515,7.8631,7.8477,7.6938,7.6185,7.6271,7.7571,7.8061,7.784,7.854,7.8691,7.8255,7.757,7.7304,7.7304,7.7304,7.7304,7.7304,7.7304,7.7304,7.7304,7.1992,7.1992,7.1992,7.1992,7.1992,7.1992,7.1992,7.1992,7.1992,7.1992,7.1992,7.1992,7.1992,7.1992,7.1992,7.1992,7.1992,7.1992,7.1992,7.1992,7.1992,7.1992,7.1992,7.1992,7.1992,7.2461,7.2851,7.3164,7.3633,7.4251,7.502,7.541,7.5911,7.6456,7.6871,7.7129,7.7187,7.7187,7.7187,7.7187,7.7187,7.7148,7.707,7.707,7.6941,7.6763,7.6649,7.6477,7.6284,7.6169,7.6092,7.6015,7.6015,7.6015,7.6015,7.6015,7.6015,7.6015,7.6015,7.6015,7.6015,7.6015,7.6015,7.6015,7.6015,7.6015,7.613,7.6592,7.6322,7.6284,7.7169,7.6976,7.6553,7.6169,7.6438,7.6399,7.5515,7.6861,7.7938,7.7938,7.9092,7.99,7.99,7.99,7.99,7.99,8.0285,8.0323,7.99,8.0669,8.0939,8.0516,8.09,8.0862,8.04,7.9131,7.8284,7.7823,7.7053,7.6771,7.6925,7.85,7.91,7.898,7.9128,7.9058,7.8704,7.771,7.7304,7.7304,7.7304,7.7304,7.7304,7.7304,7.7304,7.7304,7.1992,7.1992,7.1992,7.1992,7.1992,7.1992,7.1992,7.1992,7.1992,7.1992,7.1992,7.1992,7.1992,7.1992,7.1992,7.1992,7.1992,7.1992,7.1992,7.1992,7.1992,7.1992,7.1992,7.2109,7.2305,7.2969,7.3515,7.3906,7.457,7.5351,7.6211,7.6211,7.6562,7.7187,7.7187,7.7187,7.7187,7.7187,7.7187,7.7187,7.7187,7.7187,7.7187,7.7187,7.7109,7.6953,7.6914,7.6712,7.6421,7.636,7.6399,7.6438,7.6438,7.6515,7.663,7.663,7.663,7.6515,7.6092,7.6015,7.6015,7.6015,7.613,7.6284,7.6284,7.6438,7.6784,7.7438,7.7053,7.6976,7.8246,7.7977,7.7515,7.7323,7.7438,7.7361,7.6669,7.7861,7.8861,7.9092,8.0285,8.1093,8.1093,8.1093,8.1093,8.1093,8.1093,8.1093,8.1093,8.1093,8.1093,8.1093,8.1093,8.0785,8.0131,7.9054,7.8169,7.7592,7.74,7.74,7.763,7.9131,7.99,8.0068,7.9461,7.9198,7.9105,7.7846,7.7304,7.7304,7.7304,7.7304,7.7304,7.7304,7.7304,7.7304,7.1992,7.1992,7.1992,7.1992,7.1992,7.1992,7.1992,7.1992,7.1992,7.1992,7.1992,7.1992,7.1992,7.1992,7.1992,7.1992,7.1992,7.1992,7.1992,7.1992,7.1992,7.1992,7.1992,7.2383,7.3203,7.3281,7.4101,7.5703,7.5781,7.625,7.7109,7.7109,7.7148,7.7187,7.7187,7.7187,7.7187,7.7187,7.7187,7.7187,7.7187,7.7187,7.7187,7.7187,7.7187,7.7148,7.6953,7.6873,7.6844,7.6653,7.7083,7.7766,7.7766,7.8122,7.8584,7.8584,7.8468,7.7977,7.6438,7.6015,7.6015,7.6015,7.6592,7.7207,7.7207,7.7784,7.8323,7.84,7.8361,7.8361,7.8477,7.8438,7.8169,7.74,7.7938,7.84,7.8323,7.9131,8.0015,8.0823,8.1016,8.1093,8.1093,8.1093,8.1093,8.1093,8.1093,8.1093,8.1093,8.1093,8.1093,8.1093,8.1093,8.1054,8.1016,7.9323,7.8477,7.84,7.7669,7.7669,7.8438,7.9361,8.0246,8.0946,7.9727,7.9198,7.9105,7.7846,7.7304,7.7304,7.7304,7.7304,7.7304,7.7304,7.7304,7.7304,7.1992,7.1992,7.1992,7.1992,7.1992,7.1992,7.1992,7.1992,7.1992,7.1992,7.1992,7.1992,7.1992,7.1992,7.1992,7.1992,7.1992,7.1992,7.1992,7.1992,7.1992,7.1992,7.1992,7.2422,7.3281,7.3828,7.4687,7.5898,7.6445,7.6875,7.7187,7.7187,7.7187,7.7187,7.7187,7.7187,7.7187,7.7187,7.7187,7.7187,7.7187,7.7187,7.7187,7.7187,7.7539,7.8008,7.793,7.8125,7.8431,7.8342,7.8476,7.8708,7.8708,7.874,7.8771,7.8672,7.8554,7.8361,7.7707,7.7553,7.7553,7.7553,7.7784,7.8015,7.8015,7.8284,7.8631,7.9208,7.8861,7.8823,7.99,7.9669,7.9208,7.89,7.9554,7.99,7.9361,8.0054,8.0746,8.1054,8.1093,8.1093,8.1093,8.1093,8.1093,8.1093,8.1093,8.1093,8.1093,8.1093,8.1093,8.1093,8.1093,8.0823,8.0285,7.9092,7.8477,7.8477,7.8169,7.8477,7.9323,8.0208,8.0785,8.1061,7.9765,7.9198,7.9105,7.7846,7.7304,7.7304,7.7304,7.7304,7.7304,7.7304,7.7304,7.7304,7.1992,7.1992,7.1992,7.1992,7.1992,7.1992,7.1992,7.1992,7.1992,7.1992,7.1992,7.1992,7.1992,7.1992,7.1992,7.1992,7.1992,7.1992,7.1992,7.1992,7.1992,7.1992,7.1992,7.2539,7.3672,7.4297,7.5156,7.6328,7.6914,7.7187,7.7187,7.7187,7.7187,7.7187,7.7187,7.7187,7.7187,7.7187,7.7187,7.7226,7.75,7.7617,7.7656,7.789,7.8359,7.8867,7.8867,7.914,7.949,7.9494,7.9598,7.9773,7.9792,7.9718,7.9647,7.9404,7.9323,7.9323,7.9323,7.9323,7.9169,7.8631,7.8707,7.89,7.89,7.9131,7.9477,8.0092,7.9746,7.9669,8.0862,8.0592,8.0208,8.0208,8.0708,8.09,8.0285,8.0708,8.1093,8.1093,8.1093,8.1093,8.1093,8.1093,8.1093,8.1093,8.1093,8.1093,8.1093,8.1093,8.1093,8.1093,8.1093,8.0823,8.0208,7.9323,7.8746,7.8477,7.8784,7.9208,7.9823,8.0708,8.1093,8.1061,7.9765,7.9198,7.9105,7.7846,7.7304,7.7304,7.7304,7.7304,7.7304,7.7304,7.7304,7.7304,7.1992,7.1992,7.1992,7.1992,7.1992,7.1992,7.1992,7.1992,7.1992,7.2031,7.2031,7.2031,7.2031,7.2031,7.2031,7.2031,7.2031,7.2031,7.2031,7.2031,7.2031,7.2031,7.1992,7.2812,7.457,7.4609,7.5469,7.7187,7.7187,7.7187,7.7187,7.7187,7.7187,7.7187,7.7187,7.7187,7.7226,7.7226,7.7226,7.7305,7.8164,7.8515,7.8594,7.9414,7.9687,7.9726,7.9726,7.9726,7.9726,7.9726,8.0312,8.1011,8.1025,8.1336,8.1624,8.1208,8.1093,8.1093,8.1093,8.1093,8.0669,7.8938,7.9169,7.9823,7.9823,8.0477,8.1093,8.1093,8.1093,8.1093,8.1093,8.1093,8.1093,8.1093,8.1093,8.1093,8.1093,8.1093,8.1093,8.1093,8.1093,8.1093,8.1093,8.1093,8.1093,8.1093,8.1093,8.1093,8.1093,8.1093,8.1093,8.1093,8.1093,8.1093,8.1093,8.0246,7.9361,7.8515,7.94,7.9823,7.9862,8.0708,8.1093,8.1061,7.9765,7.9198,7.9105,7.7846,7.7304,7.7304,7.7304,7.7304,7.7304,7.7304,7.7304,7.7304,7.1992,7.1992,7.1992,7.1992,7.1992,7.2226,7.2812,7.289,7.3125,7.375,7.3828,7.3828,7.3828,7.3828,7.3828,7.3828,7.3828,7.3828,7.3828,7.3828,7.3828,7.3828,7.2656,7.2812,7.457,7.4609,7.5469,7.7187,7.7187,7.7187,7.7187,7.7187,7.7187,7.7187,7.7187,7.7539,7.8125,7.8125,7.8437,7.8984,7.9258,7.9336,7.9375,7.9609,8.0078,8.0625,8.0625,8.1015,8.1523,8.1523,8.1719,8.1875,8.1742,8.1787,8.1855,8.1439,8.1285,8.1285,8.1131,8.1093,8.0977,8.0439,8.0516,8.0708,8.0708,8.09,8.1093,8.1093,8.1093,8.1093,8.1093,8.1093,8.1093,8.1093,8.1093,8.1093,8.1093,8.1093,8.1093,8.1093,8.1093,8.1093,8.1093,8.1093,8.1093,8.1093,8.1093,8.1093,8.1093,8.1093,8.1093,8.1093,8.1631,8.1362,8.0208,7.9939,7.9977,8.0323,7.9977,8.0131,8.0708,8.0977,8.1093,8.1061,8.0201,7.96,7.9152,7.8325,7.771,7.7304,7.7304,7.7304,7.7304,7.7304,7.7304,7.7304,7.1992,7.2265,7.25,7.25,7.2812,7.3203,7.3711,7.3828,7.3984,7.4531,7.4609,7.4609,7.4609,7.4609,7.4609,7.4609,7.4609,7.4609,7.4609,7.4609,7.4609,7.4609,7.3594,7.3828,7.5586,7.5625,7.6328,7.7695,7.7383,7.7187,7.7226,7.7539,7.7695,7.7734,7.8047,7.8476,7.8984,7.8984,7.9258,7.9726,8.0078,8.0195,8.0234,8.0586,8.1054,8.1523,8.1523,8.1836,8.2304,8.2304,8.2304,8.2265,8.207,8.2015,8.1912,8.1517,8.1388,8.1362,8.1131,8.1093,8.1093,8.1093,8.1093,8.1093,8.1093,8.1093,8.1093,8.1093,8.1093,8.1093,8.1093,8.1093,8.1093,8.1093,8.1093,8.1093,8.1093,8.1093,8.1093,8.1093,8.1093,8.1093,8.1093,8.1093,8.1093,8.1093,8.1093,8.1093,8.1093,8.1093,8.1246,8.1554,8.1747,8.1477,8.0785,8.0477,8.04,8.0592,8.04,8.0592,8.1093,8.1093,8.1093,8.1061,8.0389,7.9888,7.9513,7.8865,7.8272,7.771,7.771,7.751,7.7304,7.7304,7.7304,7.7304,7.2226,7.2851,7.3437,7.3437,7.4062,7.4648,7.4687,7.4726,7.4726,7.4805,7.4844,7.4844,7.4844,7.4844,7.4844,7.4844,7.4844,7.4844,7.4844,7.4844,7.4844,7.4844,7.4961,7.5781,7.7383,7.7265,7.7656,7.8594,7.7812,7.7422,7.7422,7.8242,7.8594,7.8633,7.9375,7.9726,7.9805,7.9805,7.9844,8.0,8.0781,8.1133,8.1211,8.1992,8.2304,8.2304,8.2304,8.2304,8.2304,8.2304,8.2304,8.2265,8.207,8.2031,8.1946,8.1579,8.1451,8.1362,8.117,8.1093,8.1093,8.1093,8.1093,8.1093,8.1093,8.1093,8.1093,8.1093,8.1093,8.1093,8.1093,8.1093,8.1093,8.1093,8.1093,8.1093,8.1093,8.1093,8.1093,8.1093,8.1093,8.1093,8.1093,8.1093,8.1093,8.1093,8.1093,8.1131,8.1208,8.1208,8.1593,8.2401,8.1708,8.1631,8.2285,8.1554,8.0785,7.9939,8.0708,8.1093,8.1093,8.1093,8.1093,8.1061,8.0463,8.0163,8.0048,7.9513,7.8914,7.8416,7.8309,7.7903,7.7365,7.7304,7.7304,7.7304,7.4023,7.418,7.4336,7.4336,7.4453,7.4844,7.5508,7.5625,7.5859,7.6562,7.664,7.664,7.664,7.664,7.664,7.664,7.664,7.664,7.664,7.664,7.664,7.664,7.789,7.8789,7.914,7.7851,7.793,7.9453,7.9258,7.914,7.914,7.9336,7.9453,7.9453,7.9609,8.0078,8.0703,8.0703,8.1094,8.1758,8.1953,8.2031,8.2031,8.2226,8.2304,8.2304,8.2304,8.2304,8.2304,8.2304,8.2304,8.2304,8.2265,8.2226,8.2187,8.1937,8.177,8.1593,8.1362,8.1208,8.1093,8.1093,8.1093,8.1093,8.1093,8.1093,8.1093,8.1093,8.1093,8.1093,8.1093,8.1093,8.1093,8.1093,8.1093,8.1093,8.1093,8.1093,8.1093,8.1093,8.1093,8.1093,8.1093,8.1093,8.1093,8.1093,8.1093,8.1362,8.2016,8.2054,8.2439,8.3285,8.3131,8.2824,8.2285,8.2131,8.1631,8.0823,8.1016,8.1093,8.1093,8.1093,8.1093,8.1093,8.0959,8.0608,8.0125,7.9969,7.9556,7.8962,7.8484,7.82,7.8016,7.751,7.7304,7.7304,7.4609,7.4922,7.5234,7.5234,7.5547,7.5976,7.6445,7.6523,7.668,7.7148,7.7187,7.7187,7.7187,7.7187,7.7187,7.7187,7.7187,7.7187,7.7187,7.7187,7.7187,7.7187,7.8437,7.9297,7.9687,7.9258,7.9453,8.0312,7.9883,7.9687,7.9726,8.0117,8.0312,8.0351,8.0742,8.1172,8.1601,8.1601,8.1875,8.2304,8.2304,8.2304,8.2304,8.2304,8.2304,8.2304,8.2304,8.2304,8.2304,8.2304,8.2304,8.2304,8.2304,8.2304,8.2265,8.207,8.1914,8.1794,8.1494,8.1323,8.1208,8.1131,8.1093,8.1093,8.1093,8.1093,8.1093,8.1093,8.1093,8.1093,8.1093,8.1093,8.1093,8.1093,8.1093,8.1093,8.1093,8.1093,8.1093,8.1093,8.1093,8.1093,8.1093,8.1093,8.1093,8.1093,8.1477,8.1862,8.2285,8.2285,8.2708,8.3555,8.2824,8.2362,8.2285,8.19,8.1516,8.1093,8.1093,8.1093,8.1093,8.1093,8.1093,8.1093,8.1093,8.0888,8.0573,8.0573,8.0201,7.96,7.929,7.8804,7.8255,7.7903,7.757,7.7365,7.5,7.5586,7.6094,7.6133,7.6719,7.7187,7.7187,7.7187,7.7187,7.7187,7.7187,7.7187,7.7187,7.7187,7.7187,7.7187,7.7187,7.7187,7.7187,7.7187,7.7265,7.7422,7.8242,7.9101,7.9883,8.0781,8.1211,8.1211,8.0508,8.0156,8.0156,8.0898,8.1211,8.125,8.1992,8.2304,8.2304,8.2304,8.2304,8.2304,8.2304,8.2304,8.2304,8.2304,8.2304,8.2304,8.2304,8.2304,8.2304,8.2304,8.2304,8.2304,8.2304,8.2304,8.2265,8.2109,8.2031,8.1929,8.1562,8.1445,8.1323,8.1131,8.1093,8.1093,8.1093,8.1093,8.1093,8.1093,8.1093,8.1093,8.1093,8.1093,8.1093,8.1093,8.1093,8.1093,8.1093,8.1093,8.1093,8.1093,8.1093,8.1131,8.1285,8.1323,8.1362,8.1516,8.2131,8.2516,8.2516,8.2516,8.2862,8.3555,8.2093,8.1631,8.2285,8.1516,8.1093,8.1093,8.1093,8.1093,8.1093,8.1093,8.1093,8.1093,8.1093,8.1093,8.1093,8.1093,8.075,8.0277,8.0163,7.9425,7.8432,7.8363,7.809,7.7894,7.6558,7.668,7.6836,7.6992,7.7109,7.7187,7.7187,7.7187,7.7187,7.7187,7.7187,7.7187,7.7187,7.7187,7.7187,7.7187,7.7187,7.7187,7.7187,7.7187,7.7539,7.8281,7.9101,7.9922,8.082,8.1679,8.2109,8.2109,8.1992,8.1953,8.1953,8.207,8.2109,8.2148,8.2265,8.2304,8.2304,8.2304,8.2304,8.2304,8.2304,8.2304,8.2304,8.2304,8.2304,8.2304,8.2304,8.2304,8.2304,8.2304,8.2304,8.2304,8.2304,8.2304,8.2304,8.2265,8.2148,8.1943,8.1725,8.1514,8.1323,8.1131,8.1093,8.1093,8.1093,8.1093,8.1093,8.1093,8.1093,8.1093,8.1093,8.1093,8.1093,8.1093,8.1093,8.1093,8.1093,8.1093,8.1093,8.1093,8.1093,8.1362,8.2054,8.2131,8.2439,8.3208,8.3362,8.3401,8.3401,8.3401,8.3478,8.3593,8.2631,8.217,8.2285,8.1516,8.1093,8.1093,8.1093,8.1093,8.1093,8.1093,8.1093,8.1093,8.1093,8.1093,8.1093,8.1093,8.1061,8.0888,8.0315,7.9685,7.901,7.8484,7.9089,8.0102,7.6704,7.6715,7.6816,7.699,7.7031,7.707,7.7187,7.7187,7.7187,7.7187,7.7187,7.7187,7.7187,7.7187,7.7187,7.7187,7.7187,7.7187,7.7187,7.7187,7.7578,7.8476,7.9258,8.0117,8.0976,8.1836,8.2304,8.2304,8.2304,8.2304,8.2304,8.2304,8.2304,8.2304,8.2304,8.2304,8.2304,8.2304,8.2304,8.2304,8.2304,8.2304,8.2304,8.2304,8.2304,8.2304,8.2304,8.2304,8.2304,8.2304,8.2304,8.2304,8.2304,8.2304,8.2304,8.2304,8.2226,8.2107,8.1915,8.1737,8.1516,8.1323,8.117,8.1093,8.1093,8.1093,8.1093,8.1093,8.1093,8.1093,8.1093,8.1093,8.1093,8.1093,8.1093,8.1093,8.1093,8.1093,8.1285,8.1708,8.1785,8.2093,8.2939,8.3016,8.317,8.3555,8.3593,8.3593,8.3593,8.3131,8.2862,8.2862,8.2054,8.1631,8.1631,8.1285,8.1093,8.1093,8.1093,8.1093,8.1093,8.1093,8.1093,8.1093,8.1093,8.1093,8.1093,8.1093,8.1093,8.1061,8.075,8.0545,8.0406,8.0144,8.0499,8.1217]},{"header":{"parameterUnit":"m.s-1","parameterCategory":1,"la1":30.6,"la2":28.766,"lo1":-90.7593,"lo2":-88.6598,"dx":0.0162,"dy":0.0183,"nx":116,"ny":114,"refTime":"2022-12-13T06:00:00:Z","depth":0,"parameterNumber":3,"parameterNumberName":"V-component_of_WINDS"},"data":[0.0,0.0,0.0,0.0,0.0,0.0,0.0,0.0,0.0,0.0,0.0,0.0,0.0,0.0,0.0,0.0,0.0,0.0,0.0,0.0,0.0,0.0,0.0,0.0,0.0,0.0,0.0,0.0,0.0,0.0,0.0,0.0,0.0,0.0,0.0,0.0,0.0,0.0,0.0,0.0,0.0,0.0,0.0,0.0,0.0,0.0,0.0,0.0,0.0,0.0,0.0,0.0,0.0,0.0,0.0,0.0,0.0,0.0,0.0,0.0,0.0,0.0,0.0,0.0,0.0,0.0,0.0,0.0,0.0,0.0,0.0,0.0,0.0,0.0,0.0,0.0,0.0,0.0,0.0,0.0,0.0,0.0,0.0,0.0,0.0,0.0,0.0,0.0,0.0,0.0,0.0,0.0,0.0,0.0,0.0,0.0,0.0,0.0,0.0,0.0,0.0,0.0,0.0,0.0,0.0,0.0,0.0,0.0,0.0,0.0,0.0,0.0,0.0,0.0,0.0,0.0,0.0,0.0,0.0,0.0,0.0,0.0,0.0,0.0,0.0,0.0,0.0,0.0,0.0,0.0,0.0,0.0,0.0,0.0,0.0,0.0,0.0,0.0,0.0,0.0,0.0,0.0,0.0,0.0,0.0,0.0,0.0,0.0,0.0,0.0,0.0,0.0,0.0,0.0,0.0,0.0,0.0,0.0,0.0,0.0,0.0,0.0,0.0,0.0,0.0,0.0,0.0,0.0,0.0,0.0,0.0,0.0,0.0,0.0,0.0,0.0,0.0,0.0,0.0,0.0,0.0,0.0,0.0,0.0,0.0,0.0,0.0,0.0,0.0,0.0,0.0,0.0,0.0,0.0,0.0,0.0,0.0,0.0,0.0,0.0,0.0,0.0,0.0,0.0,0.0,0.0,0.0,0.0,0.0,0.0,0.0,0.0,0.0,0.0,0.0,0.0,0.0,0.0,0.0,0.0,0.0,0.0,0.0,0.0,0.0,0.0,0.0,0.0,0.0,0.0,0.0,0.0,0.0,0.0,0.0,0.0,0.0,0.0,0.0,0.0,0.0,0.0,0.0,0.0,0.0,0.0,0.0,0.0,0.0,0.0,0.0,0.0,0.0,0.0,0.0,0.0,0.0,0.0,0.0,0.0,0.0,0.0,0.0,0.0,0.0,0.0,0.0,0.0,0.0,0.0,0.0,0.0,0.0,0.0,0.0,0.0,0.0,0.0,0.0,0.0,0.0,0.0,0.0,0.0,0.0,0.0,0.0,0.0,0.0,0.0,0.0,0.0,0.0,0.0,0.0,0.0,0.0,0.0,0.0,0.0,0.0,0.0,0.0,0.0,0.0,0.0,0.0,0.0,0.0,0.0,0.0,0.0,0.0,0.0,0.0,0.0,0.0,0.0,0.0,0.0,0.0,0.0,0.0,0.0,0.0,0.0,0.0,0.0,0.0,0.0,0.0,0.0,0.0,0.0,0.0,0.0,0.0,0.0,0.0,0.0,0.0,0.0,0.0,0.0,0.0,0.0,0.0,0.0,0.0,0.0,0.0,0.0,0.0,0.0,0.0,0.0,0.0,0.0,0.0,0.0,0.0,0.0,0.0,0.0,0.0,0.0,0.0,0.0,0.0,0.0,0.0,0.0,0.0,0.0,0.0,0.0,0.0,0.0,0.0,0.0,0.0,0.0,0.0,0.0,0.0,0.0,0.0,0.0,0.0,0.0,0.0,0.0,0.0,0.0,0.0,0.0,0.0,0.0,0.0,0.0,0.0,0.0,0.0,0.0,0.0,0.0,0.0,0.0,0.0,0.0,0.0,0.0,0.0,0.0,0.0,0.0,0.0,0.0,0.0,0.0,0.0,0.0,0.0,0.0,0.0,0.0,0.0,0.0,0.0,0.0,0.0,0.0,0.0,0.0,0.0,0.0,0.0,0.0,0.0,0.0,0.0,0.0,0.0,0.0,0.0,0.0,0.0,0.0,0.0,0.0,0.0,0.0,0.0,0.0,0.0,0.0,0.0,0.0,0.0,0.0,0.0,0.0,0.0,0.0,0.0,0.0,0.0,0.0,0.0,0.0,0.0,0.0,0.0,0.0,0.0,0.0,0.0,0.0,0.0,0.0,0.0,0.0,0.0,0.0,0.0,0.0,0.0,0.0,0.0,0.0,0.0,0.0,0.0,0.0,0.0,0.0,0.0,0.0,0.0,0.0,0.0,0.0,0.0,0.0,0.0,0.0,0.0,0.0,0.0,0.0,0.0,0.0,0.0,0.0,0.0,0.0,0.0,0.0,0.0,0.0,0.0,0.0,0.0,0.0,0.0,0.0,0.0,0.0,0.0,0.0,0.0,0.0,0.0,0.0,0.0,0.0,0.0,0.0,0.0,0.0,0.0,0.0,0.0,0.0,0.0,0.0,0.0,0.0,0.0,0.0,0.0,0.0,0.0,0.0,0.0,0.0,0.0,0.0,0.0,0.0,0.0,0.0,0.0,0.0,0.0,0.0,0.0,0.0,0.0,0.0,0.0,0.0,0.0,0.0,0.0,0.0,0.0,0.0,0.0,0.0,0.0,0.0,0.0,0.0,0.0,0.0,0.0,0.0,0.0,0.0,0.0,0.0,0.0,0.0,0.0,0.0,0.0,0.0,0.0,0.0,0.0,0.0,0.0,0.0,0.0,0.0,0.0,0.0,0.0,0.0,0.0,0.0,0.0,0.0,0.0,0.0,0.0,0.0,0.0,0.0,0.0,0.0,0.0,0.0,0.0,0.0,0.0,0.0,0.0,0.0,0.0,0.0,0.0,0.0,0.0,0.0,0.0,0.0,0.0,0.0,0.0,0.0,0.0,0.0,0.0,0.0,0.0,0.0,0.0,0.0,0.0,0.0,0.0,0.0,0.0,0.0,0.0,0.0,0.0,0.0,0.0,0.0,0.0,0.0,0.0,0.0,0.0,0.0,0.0,0.0,0.0,0.0,0.0,0.0,0.0,0.0,0.0,0.0,0.0,0.0,0.0,0.0,0.0,0.0,0.0,0.0,0.0,0.0,0.0,0.0,0.0,0.0,0.0,0.0,0.0,0.0,0.0,0.0,0.0,0.0,0.0,0.0,0.0,0.0,0.0,0.0,0.0,0.0,0.0,0.0,0.0,0.0,0.0,0.0,0.0,0.0,0.0,0.0,0.0,0.0,0.0,0.0,0.0,0.0,0.0,0.0,0.0,0.0,0.0,0.0,0.0,0.0,0.0,0.0,0.0,0.0,0.0,0.0,0.0,0.0,0.0,0.0,0.0,0.0,0.0,0.0,0.0,0.0,0.0,0.0,0.0,0.0,0.0,0.0,0.0,0.0,0.0,0.0,0.0,0.0,0.0,0.0,0.0,0.0,0.0,0.0,0.0,0.0,0.0,0.0,0.0,0.0,0.0,0.0,0.0,0.0,0.0,0.0,0.0,0.0,0.0,0.0,0.0,0.0,0.0,0.0,0.0,0.0,0.0,0.0,0.0,0.0,0.0,0.0,0.0,0.0,0.0,0.0,0.0,0.0,0.0,0.0,0.0,0.0,0.0,0.0,0.0,0.0,0.0,0.0,0.0,0.0,0.0,0.0,0.0,0.0,0.0,0.0,0.0,0.0,0.0,0.0,0.0,0.0,0.0,0.0,0.0,0.0,0.0,0.0,0.0,0.0,0.0,0.0,0.0,0.0,0.0,0.0,0.0,0.0,0.0,0.0,0.0,0.0,0.0,0.0,0.0,0.0,0.0,0.0,0.0,0.0,0.0,0.0,0.0,0.0,0.0,0.0,0.0,0.0,0.0,0.0,0.0,0.0,0.0,0.0,0.0,0.0,0.0,0.0,0.0,0.0,0.0,0.0,0.0,0.0,0.0,0.0,0.0,0.0,0.0,0.0,0.0,0.0,0.0,0.0,0.0,0.0,0.0,0.0,0.0,0.0,0.0,0.0,0.0,0.0,0.0,0.0,0.0,0.0,0.0,0.0,0.0,0.0,0.0,0.0,0.0,0.0,0.0,0.0,0.0,0.0,0.0,0.0,0.0,0.0,0.0,0.0,0.0,0.0,0.0,0.0,0.0,0.0,0.0,0.0,0.0,0.0,0.0,0.0,0.0,0.0,0.0,0.0,0.0,0.0,0.0,0.0,0.0,0.0,0.0,0.0,0.0,0.0,0.0,0.0,0.0,0.0,0.0,0.0,0.0,0.0,0.0,0.0,0.0,0.0,0.0,0.0,0.0,0.0,0.0,0.0,0.0,0.0,0.0,0.0,0.0,0.0,0.0,0.0,0.0,0.0,0.0,0.0,0.0,0.0,0.0,0.0,0.0,0.0,0.0,0.0,0.0,0.0,0.0,0.0,0.0,0.0,0.0,0.0,0.0,0.0,0.0,0.0,0.0,0.0,0.0,0.0,0.0,0.0,0.0,0.0,0.0,0.0,0.0,0.0,0.0,0.0,0.0,0.0,0.0,0.0,0.0,0.0,0.0,0.0,0.0,0.0,0.0,0.0,0.0,0.0,0.0,0.0,0.0,0.0,0.0,0.0,0.0,0.0,0.0,0.0,0.0,0.0,0.0,0.0,0.0,0.0,0.0,0.0,0.0,0.0,0.0,0.0,0.0,0.0,0.0,0.0,0.0,0.0,0.0,0.0,0.0,0.0,0.0,0.0,0.0,0.0,0.0,0.0,0.0,0.0,0.0,0.0,0.0,0.0,0.0,0.0,0.0,0.0,0.0,0.0,0.0,0.0,0.0,0.0,0.0,0.0,0.0,0.0,0.0,0.0,0.0,0.0,0.0,0.0,0.0,0.0,0.0,0.0,0.0,0.0,0.0,0.0,0.0,0.0,0.0,0.0,0.0,0.0,0.0,0.0,0.0,0.0,0.0,0.0,0.0,0.0,0.0,0.0,0.0,0.0,0.0,0.0,0.0,0.0,0.0,0.0,0.0,0.0,0.0,0.0,0.0,0.0,0.0,0.0,0.0,0.0,0.0,0.0,0.0,0.0,0.0,0.0,0.0,0.0,0.0,0.0,0.0,0.0,0.0,0.0,0.0,0.0,0.0,0.0,0.0,0.0,0.0,0.0,0.0,0.0,0.0,0.0,0.0,0.0,0.0,0.0,0.0,0.0,0.0,0.0,0.0,0.0,0.0,0.0,0.0,0.0,0.0,0.0,0.0,0.0,0.0,0.0,0.0,0.0,0.0,0.0,0.0,0.0,0.0,0.0,0.0,0.0,0.0,0.0,0.0,0.0,0.0,0.0,0.0,0.0,0.0,0.0,0.0,0.0,0.0,0.0,0.0,0.0,0.0,0.0,0.0,0.0,0.0,0.0,0.0,0.0,0.0,0.0,0.0,0.0,0.0,0.0,0.0,0.0,0.0,0.0,0.0,0.0,0.0,0.0,0.0,0.0,0.0,0.0,0.0,0.0,0.0,0.0,0.0,0.0,0.0,0.0,0.0,0.0,0.0,0.0,0.0,0.0,0.0,0.0,0.0,0.0,0.0,0.0,0.0,0.0,0.0,0.0,0.0,0.0,0.0,0.0,0.0,0.0,0.0,0.0,0.0,0.0,0.0,0.0,0.0,0.0,0.0,0.0,0.0,0.0,0.0,0.0,0.0,0.0,0.0,0.0,0.0,0.0,0.0,0.0,0.0,0.0,0.0,0.0,0.0,0.0,0.0,0.0,0.0,0.0,0.0,0.0,0.0,0.0,0.0,0.0,0.0,0.0,0.0,0.0,0.0,0.0,0.0,0.0,0.0,0.0,0.0,0.0,0.0,0.0,0.0,0.0,0.0,0.0,0.0,0.0,0.0,0.0,0.0,0.0,0.0,0.0,0.0,0.0,0.0,0.0,0.0,0.0,0.0,0.0,0.0,0.0,0.0,0.0,0.0,0.0,0.0,0.0,0.0,0.0,0.0,0.0,0.0,0.0,0.0,0.0,0.0,0.0,0.0,0.0,0.0,0.0,0.0,0.0,0.0,0.0,0.0,0.0,0.0,0.0,0.0,0.0,0.0,0.0,0.0,0.0,0.0,0.0,0.0,0.0,0.0,0.0,0.0,0.0,0.0,0.0,0.0,0.0,0.0,0.0,0.0,0.0,-3.9884,-3.8531,0.0,0.0,0.0,0.0,0.0,0.0,0.0,0.0,0.0,0.0,0.0,0.0,0.0,0.0,0.0,0.0,0.0,0.0,0.0,0.0,0.0,0.0,0.0,-2.5106,-2.5226,-2.5555,-2.5884,0.0,0.0,0.0,0.0,0.0,0.0,0.0,0.0,0.0,-2.6722,-2.7051,-2.738,-2.8068,-2.9056,-2.8008,-2.753,-2.756,0.0,0.0,0.0,0.0,0.0,0.0,0.0,0.0,0.0,0.0,0.0,0.0,0.0,0.0,0.0,0.0,0.0,0.0,0.0,0.0,0.0,0.0,0.0,0.0,0.0,0.0,0.0,0.0,0.0,0.0,0.0,0.0,0.0,0.0,0.0,0.0,0.0,0.0,0.0,0.0,0.0,0.0,0.0,0.0,0.0,0.0,0.0,0.0,0.0,0.0,0.0,0.0,0.0,0.0,0.0,0.0,0.0,0.0,0.0,0.0,0.0,0.0,0.0,0.0,0.0,0.0,0.0,0.0,0.0,0.0,-4.1745,-4.0798,0.0,0.0,0.0,0.0,0.0,0.0,0.0,0.0,0.0,0.0,0.0,0.0,0.0,0.0,0.0,0.0,0.0,0.0,0.0,0.0,0.0,-2.4881,-2.5704,-2.567,-2.586,-2.6542,-2.6594,-2.6653,-2.6752,-2.726,0.0,0.0,0.0,0.0,-2.761,-2.761,-2.767,-2.7739,-2.8667,-2.9385,-2.9924,-3.0043,-2.9804,-2.9235,-2.8338,0.0,0.0,0.0,0.0,0.0,0.0,0.0,0.0,0.0,0.0,0.0,0.0,0.0,0.0,0.0,0.0,0.0,0.0,0.0,0.0,0.0,0.0,0.0,0.0,0.0,0.0,0.0,0.0,0.0,0.0,0.0,0.0,0.0,0.0,0.0,0.0,0.0,0.0,0.0,0.0,0.0,0.0,0.0,0.0,0.0,0.0,0.0,0.0,0.0,0.0,0.0,0.0,0.0,0.0,0.0,0.0,0.0,0.0,0.0,0.0,0.0,0.0,0.0,-4.3707,-4.4012,-4.4045,-4.4688,-4.4959,-4.4891,-4.3504,-4.3234,-4.3673,-4.1813,0.0,0.0,0.0,0.0,0.0,0.0,0.0,0.0,0.0,0.0,0.0,0.0,0.0,0.0,0.0,0.0,0.0,0.0,0.0,-2.5106,-2.6333,-2.5883,-2.5812,-2.6523,-2.6528,-2.6799,-2.744,-2.758,0.0,0.0,0.0,-2.761,-2.761,-2.761,-2.7859,-2.8457,-3.0283,-3.1123,-3.1243,-3.1869,-3.2078,-3.1928,-3.0133,-2.8996,-2.8457,0.0,0.0,0.0,0.0,0.0,0.0,0.0,0.0,0.0,0.0,0.0,0.0,0.0,0.0,0.0,0.0,0.0,0.0,0.0,0.0,0.0,0.0,0.0,0.0,0.0,0.0,0.0,0.0,0.0,0.0,0.0,0.0,0.0,0.0,0.0,0.0,0.0,0.0,0.0,0.0,0.0,-3.6704,-3.8235,0.0,0.0,0.0,0.0,0.0,0.0,0.0,0.0,0.0,0.0,0.0,0.0,0.0,-4.3369,-4.4113,-4.4891,-4.5568,-4.621,-4.6312,-4.6346,-4.6346,-4.6447,-4.6515,-4.6447,-4.5635,0.0,-4.5365,-4.5094,0.0,0.0,0.0,0.0,0.0,0.0,0.0,0.0,0.0,0.0,0.0,0.0,0.0,0.0,0.0,0.0,0.0,0.0,0.0,0.0,0.0,-2.5562,-2.5596,-2.6286,-2.6609,-2.6974,-2.7418,-2.7442,0.0,0.0,-2.761,-2.761,-2.761,-2.7476,-2.7868,-2.871,-3.0044,-3.0893,-3.1304,-3.1753,-3.1958,-3.1928,-3.1061,-3.0522,-3.0223,-2.9834,0.0,0.0,0.0,0.0,0.0,0.0,0.0,0.0,0.0,0.0,0.0,0.0,0.0,0.0,0.0,0.0,0.0,0.0,0.0,0.0,0.0,0.0,0.0,0.0,0.0,0.0,0.0,0.0,0.0,0.0,0.0,0.0,0.0,0.0,0.0,0.0,0.0,0.0,0.0,-3.6406,-3.8421,-3.9454,-3.9918,-4.0155,0.0,0.0,0.0,0.0,0.0,0.0,0.0,0.0,0.0,-4.4181,-4.4519,-4.506,-4.5805,-4.6143,-4.6481,-4.6786,-4.7225,-4.7428,-4.7428,-4.7868,-4.8037,-4.8003,-4.7699,-4.7564,-4.7462,-4.621,-4.55,-4.5162,0.0,0.0,0.0,0.0,-4.2388,-4.2185,0.0,0.0,0.0,0.0,0.0,0.0,0.0,0.0,0.0,0.0,0.0,0.0,-2.5522,-2.5461,-2.5676,-2.6373,-2.6608,-2.6785,-2.7003,-2.7002,-2.7021,-2.7049,-2.7019,-2.7019,-2.7019,-2.719,-2.779,-2.8821,-2.9813,-3.0523,-3.1041,-3.1831,-3.2137,-3.2137,-3.2407,-3.2109,-3.1452,-3.1001,-3.0492,-3.0013,0.0,0.0,0.0,0.0,0.0,0.0,0.0,0.0,0.0,0.0,0.0,0.0,0.0,0.0,0.0,0.0,0.0,0.0,0.0,0.0,0.0,0.0,0.0,0.0,0.0,0.0,0.0,0.0,0.0,0.0,0.0,0.0,0.0,0.0,0.0,0.0,0.0,-3.8051,-3.9687,-4.079,-4.0845,-4.1163,0.0,0.0,0.0,0.0,0.0,0.0,-4.4012,-4.4553,-4.5196,-4.5974,-4.6177,-4.6549,-4.709,-4.7259,-4.7361,-4.7361,-4.7936,-4.8206,-4.8206,-4.8748,-4.9018,-4.9018,-4.9018,-4.9018,-4.8883,-4.7225,-4.6447,-4.6244,-4.6075,-4.5534,-4.4857,-4.4857,-4.4857,-4.4891,0.0,0.0,0.0,0.0,0.0,0.0,0.0,0.0,0.0,0.0,0.0,-2.607,-2.6125,-2.5968,-2.6195,-2.6919,-2.6371,-2.6035,-2.6208,-2.6238,-2.6019,-2.5522,-2.5494,-2.5494,-2.5494,-2.6602,-2.7732,-2.8821,-3.0135,-3.0782,-3.0837,-3.2929,-3.3907,-3.3907,-3.486,-3.3903,-3.1482,-3.1452,-3.1392,-3.133,-3.0043,0.0,0.0,0.0,0.0,0.0,0.0,0.0,0.0,0.0,0.0,0.0,0.0,0.0,0.0,0.0,0.0,0.0,0.0,0.0,0.0,0.0,0.0,0.0,0.0,0.0,0.0,0.0,0.0,0.0,0.0,0.0,0.0,0.0,0.0,0.0,0.0,0.0,0.0,-4.298,-4.3015,0.0,0.0,0.0,0.0,-4.4395,-4.4485,-4.4823,-4.5568,-4.5635,-4.5974,-4.6718,-4.7428,-4.7834,-4.7868,-4.8545,-4.8883,-4.8883,-4.8951,-4.8951,-4.8951,-4.8984,-4.9018,-4.9018,-4.9018,-4.9018,-4.8984,-4.8883,-4.8443,-4.7733,-4.7022,-4.6278,-4.5635,-4.5635,-4.5635,-4.5737,0.0,0.0,0.0,-1.9811,-1.9635,-1.966,-2.0062,-2.0678,-2.1347,-2.2116,-2.3341,-2.4372,-2.4762,-2.5306,-2.5781,-2.6103,-2.6205,-2.6375,-2.6507,-2.6169,-2.5953,-2.5935,-2.5605,-2.5461,-2.5694,-2.7183,-2.8119,-2.836,-2.9379,-3.0057,-3.0432,-3.1364,-3.1774,-3.187,-3.2207,-3.2413,-3.2557,-3.2703,-3.2796,-3.2677,-3.136,-3.0582,0.0,0.0,0.0,0.0,0.0,0.0,0.0,0.0,0.0,0.0,0.0,0.0,0.0,0.0,0.0,0.0,0.0,0.0,0.0,0.0,0.0,0.0,0.0,0.0,0.0,0.0,0.0,0.0,0.0,0.0,0.0,0.0,0.0,0.0,0.0,0.0,0.0,-4.2248,-4.2719,0.0,-4.4291,-4.4368,-4.4616,-4.5274,-4.6177,-4.6853,-4.7124,-4.7564,-4.7936,-4.8206,-4.8477,-4.8612,-4.8612,-4.8883,-4.8702,-4.8096,-4.8702,-4.862,-4.789,-4.8431,-4.8962,-4.9427,-4.9427,-4.9791,-5.0439,-5.0439,-4.9999,-4.9289,-4.9018,-4.9052,-4.9255,-4.9255,-4.9255,-4.9289,0.0,0.0,0.0,-1.9811,-1.9811,-1.9861,-2.0062,-2.0589,-2.1217,-2.1945,-2.3,-2.3979,-2.4757,-2.5636,-2.6239,-2.6414,-2.6791,-2.6898,-2.662,-2.6272,-2.5981,-2.5768,-2.5528,-2.5739,-2.6324,-2.7488,-2.8017,-2.8097,-2.8831,-2.9378,-2.9766,-3.0468,-3.0783,-3.0853,-3.1474,-3.2337,-3.3379,-3.3706,-3.3963,-3.4053,-3.2736,-3.1779,-3.112,0.0,0.0,0.0,0.0,0.0,0.0,0.0,0.0,0.0,0.0,0.0,0.0,0.0,0.0,0.0,0.0,0.0,0.0,0.0,0.0,0.0,0.0,0.0,0.0,0.0,0.0,0.0,0.0,0.0,0.0,0.0,0.0,0.0,0.0,0.0,-4.061,-4.2011,-4.2496,-4.32,-4.4432,-4.4528,-4.4887,-4.581,-4.6769,-4.7301,-4.7301,-4.783,-4.8096,-4.8096,-4.8353,-4.8647,-4.8882,-4.9232,-4.9207,-4.8828,-4.9476,-4.9293,-4.8401,-4.9038,-4.937,-4.9544,-4.9772,-4.9965,-5.0224,-5.062,-5.0554,-5.0124,-5.0025,-5.0424,-5.1061,-5.1061,-5.1462,-5.2029,0.0,0.0,-1.9811,-1.9811,-1.9811,-1.9987,-2.0643,-2.1142,-2.1895,-2.3,-2.413,-2.5234,-2.6408,-2.6942,-2.7494,-2.8047,-2.8097,-2.7645,-2.6565,-2.6533,-2.5988,-2.4883,-2.536,-2.6163,-2.7268,-2.7293,-2.757,-2.8122,-2.8674,-2.8925,-2.8976,-3.0485,-3.1193,-3.1241,-3.3045,-3.3876,-3.3916,-3.4292,-3.4827,-3.5305,-3.4053,-3.3155,-3.2437,0.0,0.0,0.0,0.0,0.0,0.0,0.0,0.0,0.0,0.0,0.0,0.0,0.0,0.0,0.0,0.0,0.0,0.0,0.0,0.0,0.0,0.0,0.0,0.0,0.0,0.0,0.0,0.0,0.0,0.0,0.0,0.0,0.0,-3.9534,-4.0247,-4.1137,-4.2608,-4.2548,-4.3107,-4.4903,-4.4893,-4.5227,-4.6103,-4.6173,-4.6173,-4.6173,-4.6205,-4.6205,-4.6205,-4.7137,-4.7934,-4.8625,-4.9588,-5.0379,-5.1088,-5.1121,-5.0961,-5.0615,-5.0687,-5.0075,-4.9209,-4.9801,-4.94,-4.8328,-4.9623,-5.0197,-5.0224,-4.9909,-5.0237,-5.09,-5.0933,-5.206,-5.3687,-1.9811,-1.9811,-1.9811,-1.9811,-1.9811,-1.9987,-2.0643,-2.1142,-2.1895,-2.3,-2.413,-2.5234,-2.6408,-2.6942,-2.7494,-2.8047,-2.8097,-2.7821,-2.7092,-2.676,-2.6138,-2.541,-2.6314,-2.6967,-2.7268,-2.767,-2.8147,-2.8699,-2.885,-2.9151,-2.9553,-2.9986,-3.0216,-3.0216,-3.0722,-3.1341,-3.1947,-3.2072,-3.3016,-3.4389,-3.4278,-3.4083,-3.3903,0.0,0.0,0.0,0.0,0.0,0.0,0.0,0.0,0.0,0.0,0.0,0.0,0.0,0.0,0.0,0.0,0.0,0.0,0.0,0.0,0.0,0.0,0.0,0.0,0.0,0.0,0.0,0.0,0.0,0.0,0.0,-3.9273,-4.0173,-4.0945,-4.1117,-4.1503,-4.2406,-4.2831,-4.3499,-4.4725,-4.4837,-4.5227,-4.6103,-4.6173,-4.6173,-4.6173,-4.6685,-4.6901,-4.6901,-4.7566,-4.8063,-4.8256,-4.899,-4.9126,-4.8644,-4.9834,-4.9942,-4.9004,-4.9684,-5.0128,-5.0351,-5.0539,-5.0794,-5.1168,-5.155,-5.1308,-5.0755,-5.1674,-5.2474,-5.3247,-5.4071,-5.4696,-5.5209,-1.9811,-1.9811,-1.9811,-1.9811,-2.0012,-2.0363,-2.0916,-2.1468,-2.2322,-2.3678,-2.4406,-2.5335,-2.6666,-2.7293,-2.7846,-2.8398,-2.8448,-2.8222,-2.767,-2.7118,-2.6766,-2.664,-2.7494,-2.7871,-2.7645,-2.8398,-2.885,-2.8925,-2.9176,-2.9478,-2.9804,-2.9804,-2.9804,-2.9779,-3.0216,-3.0696,-3.1241,-3.1609,-3.2379,-3.3435,-3.3638,-3.4009,-3.4472,-3.4472,-3.3814,-3.2976,-3.3245,-3.3095,-3.2736,-3.2647,0.0,0.0,0.0,0.0,0.0,0.0,0.0,0.0,0.0,0.0,0.0,0.0,0.0,0.0,0.0,0.0,0.0,0.0,0.0,0.0,0.0,0.0,0.0,0.0,-4.0127,-4.1145,-4.218,-4.1987,-4.2043,-4.2701,-4.312,-4.3566,-4.4128,-4.4159,-4.4434,-4.4974,-4.5254,-4.5379,-4.5379,-4.6064,-4.6361,-4.6361,-4.7087,-4.7662,-4.7946,-4.9025,-4.9455,-4.9299,-5.0406,-5.0567,-4.9755,-5.0334,-5.0605,-5.0567,-5.0842,-5.098,-5.1056,-5.1616,-5.1364,-5.0651,0.0,0.0,0.0,0.0,-5.5246,-5.5312,-1.9811,-1.9811,-1.9811,-1.9811,-2.0288,-2.0865,-2.1418,-2.197,-2.2924,-2.4607,-2.4833,-2.546,-2.7118,-2.772,-2.8273,-2.8875,-2.8875,-2.8624,-2.8147,-2.7645,-2.762,-2.8172,-2.8599,-2.8674,-2.8298,-2.9227,-2.9478,-2.9026,-2.9553,-2.9804,-2.9804,-2.9804,-2.9804,-2.9856,-3.0696,-3.1044,-3.1119,-3.1974,-3.2307,-3.2451,-3.2451,-3.326,-3.4435,-3.4435,-3.414,-3.3814,-3.4472,-3.4711,-3.4801,-3.54,0.0,0.0,0.0,0.0,0.0,0.0,0.0,0.0,0.0,0.0,0.0,0.0,0.0,0.0,0.0,0.0,0.0,0.0,0.0,0.0,0.0,0.0,0.0,0.0,-4.1115,-4.2013,-4.318,-4.2851,-4.2671,-4.3269,-4.3329,-4.3329,-4.3329,-4.3389,-4.3449,-4.3449,-4.4047,-4.4436,-4.4436,0.0,0.0,0.0,0.0,-4.7084,-4.7781,-4.9299,-5.047,-5.1184,-5.1833,-5.2062,-5.1682,-5.1682,-5.118,-5.0391,-5.096,-5.0571,-4.9583,-5.075,-5.087,-5.0363,-5.0831,-5.1561,-5.241,-5.403,-5.4589,-5.4589,-1.9811,-1.9811,-1.9811,-1.9811,-2.0288,-2.0865,-2.1418,-2.197,-2.2924,-2.4607,-2.4833,-2.546,-2.7118,-2.7369,-2.7846,-2.885,-2.8524,-2.8222,-2.8122,-2.7996,-2.8197,-2.875,-2.8448,-2.8649,-2.9453,-2.9227,-2.9277,-2.9628,-2.9729,-2.9804,-2.9804,-2.9804,-2.9804,-2.9804,-3.0011,-3.0062,-3.0062,-3.0292,-3.0771,-3.1462,-3.1462,-3.2538,-3.4138,-3.4138,-3.4508,-3.519,-3.5848,-3.6088,-3.6118,-3.6237,-3.6297,-3.6178,-3.5519,-3.522,0.0,0.0,0.0,0.0,0.0,0.0,0.0,0.0,0.0,0.0,0.0,0.0,0.0,0.0,0.0,0.0,0.0,0.0,0.0,-4.1145,-4.2192,-4.306,-4.3299,-4.324,-4.318,-4.3329,-4.3329,-4.3329,-4.3329,-4.3808,-4.4137,-4.4137,-4.4736,-4.5095,-4.5095,-4.5753,-4.6142,-4.6142,-4.6791,-4.7292,-4.7413,-4.8762,-4.9516,-4.9755,0.0,0.0,-5.1299,-5.1299,-5.1206,-5.102,-5.1169,-5.1079,-5.087,-5.1109,-5.1139,-5.1113,-5.2147,-5.3169,-5.4146,-5.4441,-5.4589,-5.4589,-2.0238,-2.0012,-1.9811,-1.9811,-2.0514,-2.1167,-2.1443,-2.2196,-2.3125,-2.4255,-2.4406,-2.4833,-2.5937,-2.6289,-2.6666,-2.7218,-2.7519,-2.7821,-2.8097,-2.8097,-2.8348,-2.89,-2.8674,-2.8775,-2.9352,-2.9352,-2.9503,-2.9804,-2.9804,-2.9804,-2.9804,-2.9804,-2.9804,-2.9804,-2.9804,-2.9804,-2.9804,-2.9804,-3.0062,-3.0495,-3.0495,-3.1341,-3.2664,-3.3671,-3.4815,-3.6088,-3.6716,-3.7165,-3.7494,-3.7853,-3.7943,-3.7823,-3.7165,-3.6716,-3.6267,0.0,0.0,0.0,0.0,0.0,0.0,0.0,0.0,0.0,0.0,0.0,0.0,0.0,0.0,-3.9918,-3.9918,0.0,-4.1863,-4.1863,-4.2701,-4.3329,-4.3329,-4.3629,-4.3718,-4.3359,-4.3629,-4.3838,-4.3838,-4.4436,-4.4796,-4.4796,-4.5424,-4.5813,-4.5813,-4.6441,-4.68,-4.68,-4.7459,-4.7788,-4.7788,-4.9105,-4.9763,-4.9763,-5.075,-5.1229,-5.1229,-5.1229,-5.1229,-5.1229,-5.1558,-5.1708,-5.1738,-5.2067,-5.2187,-5.2282,-5.2819,-5.3193,-5.3458,-5.3799,-5.3923,-5.3923,-2.0567,-2.0213,-2.0012,-2.0112,-2.0891,-2.1518,-2.1619,-2.2498,-2.3351,-2.3929,-2.4004,-2.4205,-2.4757,-2.5184,-2.5485,-2.5586,-2.6741,-2.762,-2.8072,-2.8097,-2.8398,-2.9076,-2.8875,-2.8875,-2.9101,-2.9553,-2.9804,-2.9804,-2.9804,-2.9804,-2.9804,-2.9804,-2.9804,-2.9804,-2.9804,-2.9804,-2.9804,-2.9804,-2.9804,-2.9804,-2.9804,-3.0343,-3.1415,-3.3016,-3.4669,-3.6268,-3.6891,-3.7595,-3.8332,-3.914,-3.932,-3.914,-3.8721,-3.8123,-3.7375,-3.6207,-3.54,0.0,0.0,0.0,0.0,0.0,0.0,0.0,0.0,-3.9589,-4.0038,-4.0157,-4.0606,-4.0965,-4.0965,-4.1833,-4.2551,-4.2551,-4.309,-4.3509,-4.3509,-4.4077,-4.4317,-4.3778,-4.4197,-4.4496,-4.4496,-4.5095,-4.5484,-4.5484,-4.6142,-4.6501,-4.6501,-4.701,-4.7309,-4.7309,-4.7818,-4.8147,-4.8297,-4.9464,-5.0122,-5.0242,-5.102,-5.1409,-5.1409,-5.1528,-5.1588,-5.1618,-5.2157,-5.2396,-5.2426,-5.2965,-5.3174,-5.3204,-5.3324,-5.3054,-5.2636,-5.3025,-5.3174,-5.3174,-1.9886,-2.0263,-2.0715,-2.1217,-2.1418,-2.1644,-2.2146,-2.2749,-2.3351,-2.3929,-2.4004,-2.4205,-2.4757,-2.4883,-2.5084,-2.5561,-2.7067,-2.8047,-2.8097,-2.8097,-2.8574,-2.9654,-2.8725,-2.8674,-2.9679,-2.9754,-2.9804,-2.9804,-2.9804,-2.9804,-2.9804,-2.9804,-2.9804,-2.9804,-2.9804,-2.9804,-2.9804,-2.9804,-2.9804,-2.9804,-2.9804,-3.0343,-3.1294,-3.1973,-3.3449,-3.5259,-3.5896,-3.6711,-3.7704,-3.899,-3.902,-3.8601,-3.914,-3.8841,-3.8123,-3.7404,-3.6746,-3.6148,-3.5549,-3.6207,-3.7404,-3.8751,-3.9589,-4.0397,0.0,-4.1983,-4.2192,-4.2761,-4.294,-4.3,-4.3,-4.312,-4.324,-4.324,-4.3778,-4.4197,-4.4197,-4.4766,-4.5155,-4.5095,-4.5125,-4.5185,-4.5185,-4.5813,-4.6202,-4.6202,-4.683,-4.7189,-4.7189,-4.7279,-4.7309,-4.7309,-4.7369,-4.7698,-4.8267,-4.9015,-4.9673,-5.0242,-5.1498,-5.2097,-5.2127,-5.2695,-5.2965,-5.2965,-5.3025,-5.3084,-5.3084,-5.3144,-5.3174,-5.3234,-5.3862,-5.4042,-5.3922,-5.3384,-5.3174,-5.3174,-2.0715,-2.0966,-2.1418,-2.2297,-2.2171,-2.1945,-2.1845,-2.2573,-2.3165,-2.3452,-2.3502,-2.3577,-2.3828,-2.3791,-2.4054,-2.4632,-2.6189,-2.7293,-2.7595,-2.7921,-2.8624,-2.9754,-2.8725,-2.8624,-2.9779,-2.9804,-2.9804,-2.9804,-2.9804,-2.9804,-2.9804,-2.9804,-2.9804,-2.9804,-2.9804,-2.9804,-2.9804,-2.9804,-2.9804,-2.9804,-2.9804,-3.0188,-3.0855,-3.1086,-3.246,-3.4451,-3.5508,-3.646,0.0,-3.8389,-3.8631,-3.8512,-3.92,-3.896,-3.8272,-3.7614,-3.6956,-3.6596,-3.7045,-3.8153,-3.9469,-4.0786,-4.1354,-4.1773,-4.2731,-4.291,-4.3,-4.3269,-4.3329,-4.3329,-4.3329,-4.3658,-4.3898,-4.3898,-4.4466,-4.4885,-4.4885,-4.5454,-4.5903,-4.5903,-4.6232,-4.6322,-4.5933,-4.6501,-4.689,-4.689,-4.716,-4.7309,-4.7309,-4.7309,-4.7489,-4.7878,-4.8237,-4.8955,-4.9972,-5.0631,-5.1289,-5.1947,-5.2516,-5.2785,-5.2785,-5.3054,-5.3384,-5.3773,-5.3773,-5.3982,-5.4341,-5.4341,-5.4341,-5.4371,-5.467,-5.479,-5.476,-5.4461,-5.4341,-5.4341,-2.0941,-2.1267,-2.1694,-2.2347,-2.2498,-2.2397,-2.1995,-2.2623,-2.3065,-2.3065,-2.3065,-2.3065,-2.3065,-2.3065,-2.3376,-2.3954,-2.5234,-2.6364,-2.7218,-2.7645,-2.8373,-2.9503,-2.8775,-2.8725,-2.9528,-2.9704,-2.9804,-2.9804,-2.9804,-2.9804,-2.9804,-2.9804,-2.9804,-2.9804,-2.9804,-2.9804,-2.9804,-2.9804,-2.9804,-2.9804,-2.9955,-3.0256,-3.0658,-3.0934,-3.1898,-3.3329,-3.4582,-3.5543,-3.6282,-3.707,-3.7239,-3.7239,-3.8018,-3.806,-3.7653,-3.7109,-3.6752,-3.6806,-3.8272,-3.9529,-4.0756,-4.2252,-4.2761,-4.306,-4.3718,-4.3748,-4.3658,-4.3838,-4.3718,-4.3658,-4.3838,-4.4257,-4.4586,-4.4586,-4.5155,-4.5574,-4.5574,-4.6172,-4.6591,-4.6591,-4.701,-4.713,-4.6651,-4.704,-4.7309,-4.7309,-4.7309,-4.7309,-4.7309,-4.7489,-4.7788,-4.8267,-4.9105,-5.0092,-5.1199,-5.1858,-5.2546,-5.3174,-5.3384,-5.3473,-5.3473,-5.3653,-5.4012,-5.4491,-5.4491,-5.476,-5.5179,-5.5179,-5.5179,-5.5179,-5.5179,-5.5179,-5.5179,-5.5179,-5.5179,-5.5179,-1.9861,-2.074,-2.1343,-2.0894,-2.2046,-2.304,-2.3015,-2.304,-2.3065,-2.3065,-2.3065,-2.3065,-2.3065,-2.3065,-2.3376,-2.3954,-2.4531,-2.5561,-2.7168,-2.7293,-2.7795,-2.89,-2.8925,-2.8925,-2.895,-2.9503,-2.9804,-2.9804,-2.9804,-2.9804,-2.9804,-2.9804,-2.9804,-2.9804,-2.9804,-2.9804,-2.9804,-2.9804,-2.9804,-2.9854,-3.0382,-3.0608,-3.0733,-3.1763,-3.1838,-3.163,-3.2725,-3.3684,-3.4519,-3.4696,-3.4279,-3.3973,-3.5149,-3.5798,-3.6086,-3.5942,-3.6172,-3.6896,-3.8871,-3.9888,-4.0876,-4.2821,-4.3778,-4.4436,-4.5095,-4.4736,-4.4466,-4.5095,-4.4736,-4.4466,-4.5125,-4.5244,-4.5274,-4.5274,-4.5843,-4.6292,-4.6292,-4.686,-4.7279,-4.7279,-4.7309,-4.7309,-4.7279,-4.7309,-4.7309,-4.7309,-4.7309,-4.7309,-4.7309,-4.7908,-4.8267,-4.8297,-4.9553,-5.0541,-5.1199,-5.1858,-5.2546,-5.3204,-5.3862,-5.4192,-5.4192,-5.485,-5.5149,-5.5149,-5.5149,-5.5179,-5.5179,-5.5179,-5.5179,-5.5179,-5.5179,-5.5179,-5.5179,-5.5179,-5.5179,-5.5179,-2.1206,-2.1769,-2.2096,-2.2272,-2.2774,-2.3065,-2.3065,-2.3065,-2.3065,-2.3065,-2.3065,0.0,0.0,0.0,0.0,0.0,-2.428,-2.5209,-2.6113,-2.6866,-2.777,-2.8875,-2.8574,-2.8725,-2.9478,-2.9327,-2.9402,-2.9804,-2.9804,-2.9804,-2.9804,-2.9804,-2.9804,-2.9804,-2.9804,-2.9804,-2.9804,-3.0181,-3.0331,-3.0382,-3.0909,-3.1135,-3.116,-3.1537,-3.1562,-3.1417,0.0,-3.2228,-3.3373,-3.3798,-3.4297,-3.4803,-3.5294,-3.5419,-3.563,-3.6327,-3.6939,-3.7916,-4.0666,-4.1863,-4.2701,-4.4257,-4.4796,-4.5035,-4.5244,-4.5125,-4.5035,-4.5244,-4.5125,-4.5035,-4.5244,-4.5663,-4.5963,-4.5963,-4.6531,-4.698,-4.698,-4.6403,-4.6077,-4.6077,-4.5298,-4.4748,-4.4748,-4.6344,-4.7309,-4.7309,-4.7309,-4.7698,-4.8566,-4.8416,-4.9075,-5.081,-5.09,-5.1618,-5.3204,-5.3414,-5.3862,-5.4521,-5.476,-5.485,-5.488,-5.5089,-5.5179,-5.5179,-5.5179,-5.5179,-5.5179,-5.5179,-5.5179,-5.5179,-5.5179,-5.5179,-5.5179,-5.5179,-5.5179,-5.5179,-2.1011,-2.1527,-2.1882,-2.2689,-2.276,0.0,0.0,0.0,0.0,0.0,0.0,0.0,0.0,0.0,0.0,0.0,0.0,-2.4057,-2.4772,-2.5684,-2.6739,-2.7996,-2.7754,-2.7953,-2.8875,-2.8725,-2.8825,-2.9202,-2.9377,-2.9478,-2.9503,-2.9905,-3.008,-3.0105,-3.0281,-3.0357,-3.0382,-3.0733,-3.0884,-3.0934,-3.126,-3.1386,-3.1386,-3.1386,-3.1286,0.0,-3.0733,-3.1207,-3.2071,-3.216,-3.2841,-3.3724,-3.4125,-3.4631,-3.5271,-3.6782,-3.7296,-3.8175,-4.1243,-4.2562,-4.3389,-4.5251,-4.5663,-4.5723,-4.5963,-4.5843,-4.5723,-4.5963,-4.5813,-4.5723,-4.5963,-4.601,-4.6194,-4.6894,-4.6991,-4.6993,-4.6993,-4.6308,-4.5465,-4.4748,-4.3975,-4.3504,-4.3504,-4.5132,-4.6218,-4.6218,-4.6218,-4.677,-4.805,-4.8223,-4.9267,-5.1394,-5.172,-5.2665,-5.4192,-5.4431,-5.476,-5.5179,-5.5179,-5.5179,-5.5179,-5.4641,-5.4406,-5.4406,-5.3831,-5.3623,-5.3623,-5.3623,-5.3623,-5.3623,-5.3623,-5.3623,-5.3623,-5.3623,-5.3964,-5.4509,-1.9333,-1.9999,-2.0754,0.0,0.0,0.0,0.0,0.0,0.0,0.0,0.0,0.0,0.0,0.0,0.0,0.0,0.0,0.0,-2.3394,-2.3899,-2.4792,-2.6371,-2.6457,-2.6698,-2.7247,-2.7723,-2.7999,-2.8097,-2.8624,-2.8875,-2.89,-2.9955,-3.0457,-3.0507,-3.1009,-3.1235,-3.126,-3.1311,-3.1361,-3.1361,-3.1386,-3.1361,-3.1361,-3.1361,-3.1035,-3.0583,-3.0583,-3.0583,-3.0482,-2.9955,-3.0181,-3.0834,-3.1913,-3.329,-3.4941,-3.7123,-3.7455,-3.7675,-4.0741,-4.205,-4.3112,-4.5598,-4.6296,-4.6531,-4.716,-4.68,-4.6501,-4.713,-4.6741,-4.6471,-4.713,-4.6226,-4.5982,-4.7882,-4.7161,-4.6275,-4.6339,-4.6246,-4.5523,-4.3681,-4.3341,-4.3368,-4.3368,-4.3794,-4.4178,-4.4233,0.0,-4.4869,-4.5981,-4.7363,-4.8747,-4.994,-5.1935,-5.3337,-5.4022,-5.4649,-5.4976,-5.4976,-5.4976,-5.4976,-5.4947,-5.3518,-5.2857,-5.2857,-5.1372,-5.0713,-5.0713,-5.0713,-5.0713,-5.0713,-5.0713,-5.0713,-5.0713,-5.0713,-5.1618,-5.3069,0.0,0.0,0.0,0.0,0.0,0.0,0.0,0.0,0.0,0.0,0.0,0.0,0.0,0.0,0.0,0.0,0.0,0.0,-2.2805,-2.2794,-2.3491,-2.5322,-2.4798,-2.5145,-2.6771,-2.6529,-2.6993,-2.8097,-2.8247,-2.8323,-2.8323,-2.8197,-2.8348,-2.875,-2.8875,-2.9176,-2.9603,-3.0457,-3.0809,-3.0859,-3.1235,-3.116,-3.0809,-3.0809,-3.0482,-3.0005,-3.0005,-3.0005,-2.998,-2.9854,-3.0407,-3.1386,-3.2516,-3.3391,-3.4408,-3.6353,-3.7304,-3.8336,-4.0941,-4.2757,-4.415,-4.5343,-4.6285,-4.71,-4.7279,-4.68,-4.6381,-4.6531,-4.6022,-4.5753,-4.6441,-4.5815,-4.559,-4.6621,-4.6054,-4.5302,-4.4857,-4.4026,-4.3121,-4.2137,-4.1585,-4.1286,-4.1286,-4.1776,-4.2471,-4.3321,-4.4291,-4.5503,-4.6716,-4.7105,-4.8061,-4.9839,-5.0354,-5.096,-5.1581,-5.175,-5.1835,-5.1835,-5.1835,-5.1835,-5.1807,-5.1481,-5.1263,-5.1263,-5.0823,-5.0713,-5.0713,-5.0713,-5.0713,-5.0713,-5.0713,-5.0713,-5.0713,-5.0713,-5.0933,-5.1372,0.0,0.0,0.0,0.0,0.0,0.0,0.0,0.0,0.0,0.0,0.0,0.0,0.0,0.0,0.0,0.0,0.0,0.0,0.0,-2.1196,-2.1842,-2.3306,-2.2965,-2.3385,-2.4982,-2.4838,-2.5299,-2.6355,-2.6894,-2.7234,-2.7394,-2.7821,-2.8172,-2.8473,-2.8725,-2.9026,-2.9352,-2.998,-3.0256,0.0,0.0,-3.0281,-3.0231,-2.998,-2.9829,-2.9804,-2.9804,-2.9804,-2.9854,-3.0331,-3.121,-3.229,-3.3169,-3.3972,-3.4816,-3.6135,-3.7,-3.821,-4.0656,-4.2257,-4.337,-4.4358,-4.5508,-4.6285,-4.543,-4.5843,-4.5973,-4.4925,-4.5238,-4.5873,-4.6262,-4.5457,-4.5307,-4.6813,-4.5761,-4.4489,-4.3995,-4.3451,-4.2706,-4.131,-4.092,-4.0877,-4.0877,-4.1605,-4.2208,-4.2585,-4.3358,-4.452,-4.6323,-4.6464,-4.7406,-4.9277,-4.9502,-4.9968,-5.0685,-5.0713,-5.0713,-5.0713,-5.0713,-5.0713,-5.0713,-5.0045,-4.9734,-4.9734,-4.9053,-4.8736,-4.8736,-4.8736,-4.8736,-4.8736,-4.8736,-4.8736,-4.8736,-4.8736,-4.9167,-4.9734,0.0,0.0,0.0,0.0,0.0,0.0,0.0,0.0,0.0,-1.9899,-2.018,-1.9944,0.0,0.0,0.0,0.0,0.0,0.0,0.0,0.0,-2.0122,-2.1197,-2.109,-2.156,-2.2626,-2.3022,-2.35,-2.4024,-2.5183,-2.5876,-2.6352,-2.7628,-2.8301,-2.84,-2.8975,-2.9224,-2.9299,-2.9451,-2.9553,-2.9528,-2.9026,-2.9126,-2.9528,0.0,-2.9227,-2.9679,-2.9754,-2.9854,-3.0055,-3.106,-3.2089,-3.3068,-3.3696,-3.47,-3.5755,-3.6232,-3.686,-3.7906,-3.9998,-4.1071,-4.1887,-4.293,-4.4163,-4.4761,-4.3101,-4.4145,-4.4958,-4.2738,-4.3858,-4.5421,-4.5687,-4.4635,-4.4581,-4.7162,-4.5465,-4.3677,-4.31,-4.3572,-4.3073,-4.0832,-4.1229,-4.163,-4.1555,-4.2484,-4.2911,-4.2509,-4.2409,-4.3212,-4.5171,-4.5598,-4.6507,-4.8158,-4.8884,-4.9527,-5.0157,-5.0157,-5.0157,-5.0157,-5.0157,-5.0157,-5.0045,-4.8736,-4.821,-4.8094,-4.6874,-4.6301,-4.6301,-4.6301,-4.6301,-4.6301,-4.6301,-4.6301,-4.6301,-4.6301,-4.7087,-4.821,0.0,0.0,0.0,0.0,0.0,0.0,0.0,0.0,0.0,0.0,-1.8001,-1.8395,0.0,0.0,0.0,0.0,0.0,0.0,0.0,0.0,0.0,-2.0096,-1.9454,-1.9717,-2.1154,-2.153,-2.223,-2.3163,-2.4472,-2.5159,-2.53,-2.5061,-2.5229,-2.5709,-2.5805,-2.6069,-2.6576,-2.7878,-2.8398,-2.8398,-2.8298,-2.8298,-2.8423,-2.88,0.0,0.0,-2.9628,-3.008,-3.0557,-3.1185,-3.1813,-3.2541,-3.3571,-3.4977,-3.6232,-3.6332,-3.7412,-3.8718,-3.9095,-4.0404,-4.169,-4.1887,-4.293,-4.3621,-4.2823,-4.2182,-4.1499,-4.0597,-4.0377,-4.0744,-4.22,-4.1773,-4.1861,-4.3787,-4.2761,-4.1575,-4.1123,-4.1935,-4.2233,-4.1279,-4.2484,-4.3187,-4.2735,-4.3288,-4.3815,-4.4166,-4.3765,-4.3689,-4.4066,-4.4547,-4.537,-4.661,-4.6773,-4.6985,-4.7087,-4.7087,-4.7087,-4.7087,-4.7087,-4.7087,-4.7087,-4.6755,-4.6636,-4.6636,-4.6421,-4.6301,-4.6301,-4.6301,-4.6301,-4.6301,-4.6301,-4.6301,-4.6301,-4.6301,-4.6421,-4.6636,0.0,0.0,0.0,0.0,0.0,0.0,0.0,-1.7383,-1.7305,-1.709,-1.7422,-1.7695,-1.7695,-1.7871,-1.8008,0.0,0.0,0.0,0.0,0.0,0.0,-1.8576,-1.8607,-1.8725,-1.9036,-2.0062,-2.0845,-2.1333,0.0,-2.3826,-2.4612,-2.4636,-2.5059,-2.5816,-2.5816,-2.5938,-2.6184,-2.6976,-2.7243,-2.7243,-2.7243,-2.7419,-2.7745,-2.8298,0.0,0.0,-2.9704,-3.0156,-3.0683,-3.121,-3.1964,-3.2792,-3.3646,-3.5228,-3.6734,-3.6433,-3.7563,-3.8868,-3.8868,-3.9753,-4.0642,-4.0642,-4.1591,-4.2135,-4.0552,-4.0491,-4.0322,-3.8477,-3.8577,-3.9393,-4.0281,-4.0561,-4.1116,-4.2224,-4.2083,-4.148,-4.0626,-4.1706,-4.2384,-4.1831,-4.2961,-4.3815,-4.384,-4.4342,-4.4669,-4.4618,-4.4669,-4.4794,-4.5095,-4.5347,-4.5748,-4.6301,-4.6301,-4.6301,-4.6301,-4.6301,-4.6301,-4.6301,-4.6301,-4.6301,-4.6301,-4.6301,-4.6301,-4.6301,-4.6301,-4.6301,-4.6301,-4.6301,-4.6301,-4.6301,-4.6301,-4.6301,-4.6301,-4.6301,-4.6301,-4.6301,0.0,0.0,0.0,0.0,0.0,0.0,0.0,-1.7519,-1.7246,-1.7246,-1.7402,-1.7519,-1.7519,-1.7812,-1.8008,0.0,0.0,0.0,0.0,0.0,0.0,0.0,0.0,0.0,0.0,0.0,0.0,-1.9782,-2.1157,0.0,0.0,0.0,0.0,0.0,-2.5861,-2.5955,-2.6164,-2.6396,-2.6533,0.0,0.0,-2.6716,0.0,0.0,0.0,0.0,0.0,-3.0206,-3.0859,-3.126,-3.2215,-3.3319,-3.3771,-3.5253,-3.6784,-3.6584,-3.7563,-3.8743,-3.8994,-3.9371,-3.9697,-3.9697,-4.0465,-4.0608,-3.8288,-3.8841,-3.9078,-3.6315,-3.709,-3.8324,-3.8596,-3.9508,-4.0383,-4.1162,-4.1463,-4.1379,-4.0626,-4.1831,-4.2685,-4.2359,-4.3413,-4.4242,-4.4418,-4.507,-4.5246,-4.4669,-4.5271,-4.5799,-4.6125,-4.625,-4.6301,-4.6301,-4.6301,-4.6301,-4.6301,-4.6301,-4.6301,-4.6301,-4.6301,-4.6301,-4.6301,-4.6301,-4.6301,-4.6301,-4.6301,-4.6301,-4.6301,-4.6301,-4.6301,-4.6301,-4.6301,-4.6301,-4.6301,-4.6301,-4.6301,-4.6301,0.0,0.0,0.0,0.0,0.0,0.0,0.0,-1.707,-1.6797,-1.6797,-1.7461,-1.7949,-1.7949,-1.7988,-1.8008,0.0,0.0,0.0,0.0,0.0,0.0,0.0,0.0,0.0,0.0,0.0,0.0,-1.9364,-2.0793,0.0,0.0,0.0,0.0,0.0,0.0,-2.4253,-2.5229,-2.6094,0.0,0.0,0.0,0.0,0.0,0.0,0.0,0.0,0.0,-3.0457,-3.1336,-3.1361,-3.2466,-3.3847,-3.3872,-3.4726,-3.5881,-3.6835,-3.7563,-3.8316,-3.9346,-3.9647,-3.9697,-3.9697,-3.98,-3.9474,-3.7638,-3.7001,-3.6303,-3.4477,-3.4667,-3.544,-3.6455,-3.7551,-3.8616,-3.9701,-3.9926,-4.0049,-4.045,-4.1505,-4.2409,-4.2836,-4.4342,-4.4945,-4.3966,-4.4844,-4.5246,-4.4669,-4.5623,-4.605,-4.5598,-4.605,-4.6301,-4.6301,-4.6301,-4.6301,-4.6301,-4.6301,-4.6301,-4.6301,-4.6301,-4.6301,-4.6301,-4.6301,-4.6301,-4.6301,-4.6301,-4.6301,-4.6301,-4.6301,-4.6301,-4.6301,-4.6301,-4.6301,-4.6301,-4.6301,-4.6301,-4.6301,0.0,0.0,0.0,0.0,0.0,0.0,-1.7344,-1.7227,-1.7129,-1.7129,-1.7637,-1.8008,-1.8008,-1.8477,-1.8672,-1.8418,0.0,0.0,0.0,0.0,0.0,0.0,0.0,0.0,0.0,0.0,-1.8984,-1.8906,-2.0272,0.0,0.0,0.0,0.0,0.0,0.0,-2.4636,-2.5087,-2.6094,0.0,0.0,0.0,0.0,0.0,0.0,0.0,0.0,0.0,0.0,-3.1888,-3.1888,-3.2566,-3.3395,-3.3395,-3.3696,-3.4274,-3.5378,-3.681,-3.804,-3.814,-3.8919,-3.9697,-3.9697,-3.9697,-3.9245,-3.7563,-3.6759,-3.5881,-3.4248,-3.4073,-3.4349,-3.4801,-3.6332,-3.7538,-3.7663,-3.9094,-4.0149,-4.0049,-4.153,-4.2861,-4.3413,-4.4669,-4.5321,-4.4869,-4.5522,-4.5874,-4.5648,-4.605,-4.6225,-4.5999,-4.6175,-4.6301,-4.6301,-4.6301,-4.6301,-4.6301,-4.6301,-4.6301,-4.6301,-4.6301,-4.6301,-4.6301,-4.6301,-4.6301,-4.6301,-4.6301,-4.6301,-4.6301,-4.6301,-4.6301,-4.6301,-4.6301,-4.6301,-4.6301,-4.6301,-4.6301,-4.6301,0.0,0.0,0.0,0.0,0.0,-1.6836,-1.7148,-1.7305,-1.7383,-1.7383,-1.7969,-1.8379,-1.8379,-1.8926,-1.916,-1.8848,-1.8437,0.0,0.0,0.0,0.0,0.0,0.0,0.0,0.0,0.0,-1.9062,-1.9004,-1.9922,-2.0795,0.0,0.0,-2.2113,-2.3084,0.0,0.0,0.0,0.0,0.0,0.0,0.0,0.0,0.0,0.0,0.0,0.0,0.0,0.0,0.0,0.0,0.0,-3.3068,-3.3068,-3.3068,-3.3294,-3.4399,-3.5805,-3.7086,-3.7362,-3.8291,-3.927,-3.9622,-3.9446,-3.8793,-3.7287,-3.6383,-3.5454,-3.3972,-3.3922,-3.4148,-3.4148,-3.5931,-3.7287,-3.691,-3.8768,-4.0249,-4.0199,-4.1656,-4.2936,-4.3489,-4.4543,-4.5171,-4.4995,-4.5648,-4.6125,-4.6301,-4.6301,-4.6301,-4.6301,-4.6301,-4.6301,-4.6301,-4.6301,-4.6301,-4.6301,-4.6301,-4.6301,-4.6301,-4.6301,-4.6301,-4.6301,-4.6301,-4.6301,-4.6301,-4.6301,-4.6301,-4.6301,-4.6301,-4.6301,-4.6301,-4.6301,-4.6301,-4.6301,-4.6301,-4.6301,-4.6301,0.0,0.0,0.0,0.0,0.0,0.0,-1.6738,-1.7109,-1.7383,-1.7383,-1.8477,-1.9277,-1.9277,-1.9277,-1.9297,-1.9277,-1.8887,0.0,0.0,0.0,0.0,0.0,0.0,0.0,0.0,0.0,-1.9062,-1.9902,-1.9922,-2.0137,-2.0644,-2.0644,-2.1165,-2.2038,0.0,0.0,0.0,0.0,0.0,0.0,0.0,0.0,0.0,0.0,0.0,0.0,0.0,0.0,0.0,0.0,0.0,0.0,0.0,-3.3068,-3.3294,-3.4399,-3.4751,-3.5228,-3.7412,-3.8015,-3.8291,-3.9421,-3.8843,-3.7739,-3.6634,-3.5529,-3.4424,-3.3319,-3.3947,-3.4726,-3.4726,-3.6508,-3.799,-3.799,-3.8944,-4.0074,-4.1178,-4.1806,-4.2359,-4.2911,-4.3966,-4.4418,-4.3865,-4.4844,-4.5723,-4.6276,-4.6301,0.0,-4.6301,-4.6301,-4.6301,-4.6301,-4.6301,-4.6301,-4.6301,-4.6301,-4.6301,-4.6301,-4.6301,-4.6301,-4.6301,-4.6301,-4.6301,-4.6301,-4.6301,-4.6301,-4.6301,-4.6301,-4.6301,-4.6301,-4.6301,-4.6301,-4.6301,-4.6301,-4.6301,-4.6301,0.0,0.0,0.0,0.0,0.0,0.0,0.0,-1.666,-1.7051,-1.7344,-1.7988,-1.8516,-1.8809,-1.9355,-1.9473,-1.8887,-1.8457,0.0,0.0,0.0,0.0,0.0,0.0,0.0,0.0,-1.8926,-1.9355,-1.9922,-2.0215,-2.043,-2.0566,-2.0566,-2.0799,-2.1088,-2.1735,-2.2188,0.0,0.0,0.0,0.0,0.0,0.0,0.0,0.0,0.0,0.0,0.0,0.0,0.0,0.0,0.0,0.0,0.0,0.0,0.0,-3.3208,-3.4123,-3.4876,-3.5579,-3.6307,-3.696,-3.7337,-3.7136,-3.6584,-3.5504,-3.4977,-3.4525,-3.3796,-3.3922,-3.4399,-3.5152,-3.6458,-3.7437,-3.7437,-3.8718,-3.9948,-4.0676,-4.1907,-4.3062,-4.3991,-4.4769,-4.5296,-4.5497,-4.5497,-4.5723,-4.6276,-4.6301,-4.6301,-4.6301,-4.6301,-4.6301,-4.6301,-4.6301,-4.6301,-4.6301,-4.6301,-4.6301,-4.6301,-4.6301,-4.6301,-4.6301,-4.6301,-4.6301,-4.6301,-4.6301,-4.6301,-4.6301,-4.6301,-4.6301,-4.6301,-4.6301,-4.6301,-4.6301,-4.6301,-4.6301,-4.6301,0.0,0.0,0.0,0.0,0.0,0.0,0.0,-1.6699,-1.707,-1.7344,-1.7617,-1.7988,-1.8574,-1.8965,-1.9043,-1.8601,-1.8262,0.0,0.0,0.0,0.0,0.0,0.0,0.0,-1.8867,-1.9141,-1.957,-2.0156,-2.043,-2.0566,-2.0566,-2.0566,-2.0566,-2.0644,-2.1221,-2.1451,0.0,0.0,0.0,0.0,0.0,0.0,-2.8023,0.0,0.0,0.0,0.0,0.0,0.0,0.0,0.0,0.0,0.0,0.0,0.0,0.0,-3.2906,-3.3612,-3.442,-3.5228,-3.583,-3.6257,-3.6056,-3.5554,-3.4876,-3.4399,-3.3997,-3.3671,-3.3922,-3.4424,-3.5102,-3.6483,-3.7563,-3.7789,-3.8868,-4.0023,-4.1003,-4.2007,-4.2912,-4.3604,-4.4768,-4.536,-4.5058,-4.549,-4.5949,-4.6276,-4.6301,-4.6301,-4.6301,-4.6301,-4.6301,-4.6301,-4.6301,-4.6301,-4.6301,-4.6301,-4.6301,-4.6301,-4.6301,-4.6301,-4.6301,-4.6301,-4.6301,-4.6301,-4.6301,-4.6301,0.0,-4.6301,-4.6301,-4.6301,-4.6301,-4.6301,-4.6301,-4.6301,-4.6301,-4.6301,0.0,0.0,0.0,0.0,0.0,0.0,0.0,-1.707,-1.7344,-1.7383,-1.7383,-1.7695,-1.8496,-1.8281,-1.8203,-1.8555,0.0,0.0,0.0,0.0,0.0,0.0,0.0,0.0,-1.9277,-1.9297,-1.9707,-2.0566,-2.0566,-2.0566,-2.0566,-2.0566,-2.0566,-2.0566,-2.0566,-2.0586,0.0,0.0,0.0,0.0,-2.4615,-2.5449,0.0,0.0,0.0,0.0,0.0,0.0,0.0,0.0,0.0,0.0,0.0,0.0,0.0,0.0,0.0,0.0,0.0,-3.442,-3.476,-3.5762,-3.5261,-3.46,-3.46,-3.3822,0.0,-3.3169,-3.3972,-3.47,-3.4826,-3.6584,-3.8191,-3.8718,-3.9346,-4.03,-4.1882,-4.2123,-4.2213,-4.2162,-4.3937,-4.4664,-4.3262,-4.4865,-4.5939,-4.6059,-4.6059,-4.5939,-4.6059,-4.618,-4.618,-4.6301,-4.6301,-4.6301,-4.6301,-4.6301,-4.6301,-4.6301,-4.6301,-4.6301,-4.6301,-4.6301,-4.6301,0.0,-4.6301,-4.6301,-4.6301,-4.6301,-4.6301,-4.6301,-4.6301,-4.6301,-4.6301,-4.6301,-4.6301,-4.6301,0.0,0.0,0.0,0.0,0.0,0.0,0.0,0.0,0.0,0.0,-1.7383,-1.7578,-1.8105,-1.8359,-1.8398,0.0,0.0,0.0,0.0,0.0,0.0,0.0,0.0,0.0,-1.9277,-1.9297,-1.9707,-2.0566,-2.0566,-2.0566,-2.0566,-2.0566,-2.0566,-2.0566,-2.0566,-2.0762,0.0,0.0,0.0,0.0,-2.4313,-2.5191,0.0,0.0,0.0,0.0,-2.8142,-2.907,0.0,0.0,0.0,0.0,0.0,0.0,0.0,0.0,-2.9395,-2.9532,-3.0422,0.0,-3.2123,-3.2364,-3.298,-3.347,0.0,-3.3269,-3.3319,-3.4148,-3.4198,-3.4474,-3.573,-3.7086,-3.804,-3.8191,-3.9396,-4.0601,-4.143,-4.1923,-4.228,-4.2806,-4.249,-4.3044,-4.5352,-4.366,-4.2958,-4.4251,-4.3083,-4.2958,-4.4251,-4.4374,-4.489,-4.6301,-4.6301,-4.6301,-4.6301,-4.6301,-4.6301,-4.6301,-4.6301,-4.6301,-4.6301,-4.6301,-4.6301,-4.6301,-4.6301,-4.6301,-4.6301,-4.6301,-4.6301,-4.6301,-4.6301,-4.6301,-4.6301,-4.6301,-4.6301,-4.6301,0.0,0.0,0.0,0.0,0.0,0.0,0.0,0.0,0.0,0.0,0.0,-1.7324,-1.7949,-1.8047,0.0,0.0,0.0,0.0,0.0,0.0,0.0,0.0,0.0,-1.8418,-1.9277,-1.9297,-1.9707,-2.0566,-2.0566,-2.0566,-2.0566,-2.0566,-2.0566,-2.0586,-2.0781,-2.1113,0.0,0.0,0.0,-2.3408,-2.3612,0.0,0.0,0.0,0.0,0.0,-2.678,-2.7546,0.0,-2.7522,-2.6904,-2.6519,0.0,0.0,0.0,0.0,-2.7785,-2.7934,-2.8196,-2.933,-3.0395,-3.0395,-3.0866,-3.1512,-3.2064,-3.2435,-3.298,-3.4134,-3.47,-3.5303,-3.6207,-3.6948,-3.7811,-3.8968,-3.8916,-3.9307,-4.1013,-4.1259,-4.1368,-4.1769,-4.1501,-4.1565,-4.2706,-4.182,-4.1565,-4.2454,-4.1693,-4.1565,-4.2454,-4.258,-4.2981,-4.3879,-4.4003,-4.4767,-4.6301,-4.6301,-4.6301,-4.6301,-4.6301,-4.6301,-4.6301,-4.6301,-4.6301,-4.6301,-4.6301,-4.6301,-4.6301,-4.6301,-4.6301,-4.6301,-4.6301,-4.6301,-4.6301,-4.6301,-4.6301,-4.6351,0.0,0.0,0.0,0.0,0.0,0.0,0.0,0.0,0.0,0.0,0.0,0.0,0.0,0.0,0.0,0.0,0.0,0.0,0.0,0.0,0.0,0.0,-1.8008,-1.8418,-1.9277,-1.9297,-1.9707,-2.0566,-2.0566,-2.0566,-2.0566,-2.0566,-2.0605,-2.0684,-2.1211,-2.1641,-2.2012,0.0,-2.2617,-2.2637,-2.2988,0.0,0.0,0.0,0.0,0.0,0.0,0.0,0.0,-2.6235,-2.563,-2.485,-2.5183,0.0,0.0,0.0,0.0,0.0,-2.6568,-2.7665,-2.8866,-2.9139,-2.9279,-2.9715,-3.0874,-3.1474,-3.2194,-3.3662,-3.4966,-3.5936,-3.6301,-3.6512,-3.731,-3.948,-3.8143,-3.7672,-4.0078,-4.0163,-3.9914,-3.9914,-4.0228,-4.0018,-3.9125,-3.9888,-4.0537,-4.0795,-4.0537,-4.0537,-4.0795,-4.0795,-4.0924,-4.1181,-4.1181,-4.258,-4.5525,-4.5793,-4.5914,-4.5914,-4.618,-4.618,-4.5914,-4.618,-4.6301,-4.6301,-4.6059,-4.5914,-4.5914,-4.5671,-4.555,-4.555,-4.555,-4.5671,-4.5939,-4.6013,-4.6038,-4.6016,0.0,0.0,0.0,0.0,0.0,0.0,0.0,0.0,0.0,0.0,0.0,0.0,0.0,0.0,0.0,0.0,0.0,0.0,0.0,0.0,0.0,-1.8008,-1.8008,-1.8418,-1.9277,-1.9297,-1.9707,-2.0566,-2.0566,-2.0566,-2.0566,-2.0566,-2.0762,-2.1172,-2.1953,-2.2363,-2.2441,-2.2871,-2.3047,-2.3047,-2.3105,0.0,0.0,0.0,0.0,0.0,0.0,0.0,0.0,-2.5041,-2.4957,-2.4808,-2.4871,0.0,0.0,0.0,0.0,0.0,-2.5145,-2.5849,-2.6653,-2.8061,-2.8892,-2.962,-3.0544,-3.0571,-3.1061,-3.3743,-3.3837,-3.4027,-3.609,-3.6518,-3.6545,-3.6498,-3.7219,-3.7604,-3.716,-3.77,-3.8164,-3.8293,-3.7422,-3.7822,-4.0537,-3.8353,-3.7441,-3.8861,-3.7575,-3.7441,-3.8861,-3.8993,-3.9649,-4.1181,-4.1181,-4.1437,-4.1947,-4.3357,-4.4103,-4.4103,-4.5525,-4.5525,-4.4103,-4.5671,-4.6301,-4.618,-4.4767,-4.4103,-4.3979,-4.258,-4.1947,-4.1947,-4.1947,-4.2832,-4.4175,-4.4631,-4.4798,-4.4594,0.0,0.0,0.0,0.0,0.0,0.0,0.0,0.0,0.0,0.0,0.0,0.0,0.0,0.0,0.0,0.0,0.0,0.0,0.0,0.0,-1.8008,-1.8008,-1.8008,-1.8418,-1.9277,-1.9297,-1.9707,-2.0566,-2.082,-2.0918,-2.0937,-2.1172,-2.1504,-2.1934,-2.2344,-2.2637,-2.2871,-2.3066,-2.3144,-2.3144,0.0,0.0,0.0,0.0,0.0,0.0,0.0,0.0,0.0,0.0,-2.3887,-2.3887,-2.3887,0.0,0.0,0.0,0.0,0.0,-2.4551,-2.5039,-2.5838,-2.7462,-2.8184,-2.8796,-2.9792,-3.0313,-3.104,-3.2864,-3.3469,-3.4078,-3.5466,-3.5379,-3.5018,-3.4872,-3.6343,-3.7567,-3.7548,-3.7135,-3.7136,-3.8151,-3.6938,-3.6674,-3.8221,-3.6924,-3.6268,-3.7173,-3.6403,-3.6403,-3.7193,-3.7193,-3.7575,-3.8353,-3.8353,-3.8861,-3.9758,-4.0537,-4.1415,-4.2328,-4.3107,-4.3107,-4.2328,-4.3232,-4.3482,-4.3482,-4.2706,-4.2328,-4.2328,-4.1565,-4.1181,-4.1203,-4.1472,-4.1949,-4.2788,-4.3295,-4.3533,-4.3677,0.0,0.0,0.0,0.0,0.0,0.0,0.0,0.0,0.0,0.0,0.0,0.0,0.0,0.0,0.0,0.0,0.0,0.0,0.0,-1.8008,-1.8008,-1.8008,-1.8008,-1.8359,-1.9121,-1.9238,-1.9707,-2.0566,-2.1016,-2.1289,-2.1387,-2.1836,-2.2207,-2.2519,-2.2617,-2.2832,-2.3144,-2.3144,-2.3144,-2.3144,0.0,0.0,0.0,0.0,0.0,0.0,0.0,0.0,0.0,0.0,0.0,0.0,0.0,0.0,0.0,-2.3144,-2.3437,-2.3887,-2.4297,-2.4883,-2.5742,-2.7285,-2.7598,-2.791,-2.9207,-3.0158,-3.104,-3.2137,-3.316,-3.4115,-3.4931,-3.4265,-3.3679,-3.4083,-3.5429,-3.6903,-3.7831,-3.6789,-3.6539,-3.7822,-3.6789,-3.6016,-3.6016,-3.6016,-3.6016,-3.6016,-3.6016,-3.6016,-3.6016,-3.6016,-3.6016,-3.6016,-3.6016,-3.6674,-3.7955,-3.7955,-3.8861,-4.0537,-4.1052,-4.0924,-4.0666,-4.1052,-4.1181,-4.1181,-4.0795,-4.0537,-4.0559,-4.0279,-4.0192,-4.0236,-4.0583,-4.1087,-4.1618,-4.1859,-4.2298,-4.2716,0.0,0.0,0.0,0.0,0.0,0.0,0.0,0.0,0.0,0.0,0.0,0.0,0.0,0.0,0.0,0.0,0.0,0.0,0.0,-1.8008,-1.8008,-1.8008,-1.8008,-1.8223,-1.8672,-1.9082,-1.9707,-2.0566,-2.1016,-2.1445,-2.1855,-2.2266,-2.248,-2.2539,-2.293,-2.3105,-2.3144,-2.3144,-2.3144,-2.3144,-2.3144,0.0,0.0,0.0,0.0,0.0,0.0,0.0,0.0,0.0,0.0,0.0,0.0,0.0,-2.3144,-2.3144,-2.3437,-2.3887,-2.4297,-2.5332,-2.6523,-2.7441,-2.7363,-2.748,-2.9172,-2.9695,-3.0398,-3.2588,-3.2641,-3.2855,-3.4685,-3.4186,-3.3583,-3.3984,-3.4544,-3.5132,-3.6014,-3.6016,-3.6016,-3.6152,-3.6016,-3.6016,-3.6016,-3.6016,-3.6016,-3.6016,-3.6016,-3.6016,-3.6016,-3.6016,-3.6016,-3.6016,-3.6016,-3.6016,-3.6152,-3.6152,-3.7059,-3.8861,-4.0408,-4.0408,-3.8861,-4.0408,-4.1181,-4.1052,-3.9497,-3.8729,-3.8639,-3.7501,-3.7016,-3.7055,-3.749,-3.8987,-4.0827,-4.073,-4.1025,-4.1142,0.0,0.0,0.0,0.0,0.0,0.0,0.0,0.0,0.0,0.0,0.0,0.0,0.0,0.0,0.0,0.0,0.0,0.0,0.0,-1.7647,-1.8008,-1.8008,-1.8008,-1.8203,-1.8633,-1.9316,-2.0098,-2.0977,-2.168,-2.2246,-2.2676,-2.2832,-2.2891,-2.291,-2.3066,-2.3144,-2.3144,-2.3144,-2.3144,-2.3144,-2.3144,-2.3144,0.0,0.0,0.0,0.0,0.0,0.0,0.0,0.0,-2.2305,-2.2539,-2.2695,-2.293,-2.3144,-2.3144,-2.3262,-2.3594,-2.4551,-2.5391,-2.6445,-2.8379,-2.873,-2.8848,-2.9746,-3.0391,-3.0976,-3.1876,-3.2217,-3.2607,-3.3773,-3.3677,-3.375,-3.4726,-3.4785,-3.5,-3.5898,-3.6016,-3.6016,-3.6016,-3.6016,-3.6016,-3.6016,-3.6016,-3.6016,-3.6016,-3.6016,-3.6016,-3.6016,-3.6016,-3.6016,-3.6016,-3.6016,-3.6016,-3.6016,-3.6016,-3.6268,-3.7059,-3.7709,-3.7575,-3.7059,-3.7709,-3.7955,-3.7955,-3.7307,-3.7219,-3.7345,-3.6878,-3.6816,-3.7109,-3.7519,-3.8359,-3.9433,-3.9289,-3.9389,-3.955,0.0,0.0,0.0,0.0,0.0,0.0,0.0,0.0,0.0,0.0,0.0,0.0,0.0,0.0,0.0,0.0,0.0,0.0,-1.614,-1.7079,-1.7499,-1.7265,-1.7858,-1.8317,-1.8499,-1.9597,-2.0488,-2.123,-2.2227,-2.2852,-2.3125,-2.3008,-2.2949,-2.293,-2.2812,-2.2812,-2.2949,-2.2949,-2.2949,-2.2949,-2.2949,-2.2852,0.0,0.0,0.0,0.0,0.0,0.0,0.0,0.0,-2.1875,-2.2168,-2.2422,-2.2715,-2.2969,-2.3105,-2.3418,-2.3945,-2.4824,-2.5801,-2.6992,-2.8887,-2.9668,-3.0137,-3.0684,-3.1191,-3.1562,-3.1699,-3.2285,-3.2949,-3.3516,-3.373,-3.4121,-3.5019,-3.5019,-3.5176,-3.5918,-3.6016,-3.6016,-3.6016,-3.6016,-3.6016,-3.6016,-3.6016,-3.6016,-3.6016,-3.6016,-3.6016,-3.6016,-3.6016,-3.6016,-3.6016,-3.6016,-3.6016,-3.6016,-3.6016,-3.6016,-3.6016,-3.6016,-3.6016,-3.6016,-3.6016,-3.6016,-3.6035,-3.6172,-3.6387,-3.6699,-3.6953,-3.7324,-3.7734,-3.8008,-3.832,-3.8574,-3.8574,-3.8574,-3.8574,0.0,0.0,0.0,0.0,0.0,0.0,0.0,0.0,0.0,0.0,0.0,0.0,0.0,0.0,0.0,0.0,0.0,0.0,-1.5171,-1.607,-1.6316,-1.561,-1.753,-1.8518,-1.8267,-1.9792,-2.0781,-2.125,-2.25,-2.3125,-2.3125,-2.2695,-2.25,-2.248,-2.207,-2.2109,-2.25,-2.25,-2.25,-2.25,-2.25,-2.2266,-2.1894,0.0,0.0,0.0,0.0,0.0,0.0,0.0,-2.123,-2.1387,-2.2246,-2.25,-2.2598,-2.3027,-2.4062,-2.5059,-2.5078,-2.666,-2.8398,-2.8828,-2.9922,-3.1113,-3.1973,-3.1836,-3.1641,-3.209,-3.3184,-3.4082,-3.4082,-3.4414,-3.4707,-3.4707,-3.5098,-3.5547,-3.5957,-3.6016,-3.6016,-3.6016,-3.6016,-3.6016,-3.6016,-3.6016,-3.6016,-3.6016,-3.6016,-3.6016,-3.6016,-3.6016,-3.6016,-3.6016,-3.6016,-3.6016,-3.6016,-3.6016,-3.6016,-3.6016,-3.6016,-3.6016,-3.6016,-3.6016,-3.6016,-3.6055,-3.6484,-3.668,-3.6738,-3.7598,-3.8184,-3.8574,-3.8574,-3.8574,-3.8574,-3.8574,-3.8574,-3.8574,0.0,0.0,0.0,0.0,0.0,0.0,0.0,0.0,0.0,0.0,0.0,0.0,0.0,0.0,0.0,0.0,0.0,0.0,-1.4171,-1.5084,-1.5606,-1.561,-1.6212,-1.6702,-1.7147,-1.821,-1.9734,-2.1699,-2.207,-2.2266,-2.2246,-2.2129,-2.207,-2.207,-2.1934,-2.1953,-2.207,-2.207,-2.207,-2.207,-2.207,-2.1992,-2.1894,0.0,0.0,0.0,0.0,0.0,0.0,0.0,0.0,0.0,-2.1894,-2.2266,-2.2656,-2.3379,-2.4297,-2.5273,-2.6191,-2.7559,-2.9062,-3.041,-3.1035,-3.1562,-3.2422,-3.2285,-3.209,-3.2519,-3.3398,-3.416,-3.4453,-3.4609,-3.4902,-3.5527,-3.5488,-3.5547,-3.5957,-3.6016,-3.6016,-3.6016,-3.6016,-3.6016,-3.6016,-3.6016,-3.6016,-3.6016,-3.6016,-3.6016,-3.6016,-3.6016,-3.6016,-3.6016,-3.6016,-3.6016,-3.6016,-3.6016,-3.6016,-3.6016,-3.6016,-3.6016,-3.6016,-3.6016,-3.6191,-3.6484,-3.6621,-3.7012,-3.7598,-3.8144,-3.8457,-3.8574,-3.8574,-3.8574,-3.8574,-3.8574,-3.8574,-3.8574,0.0,0.0,0.0,0.0,0.0,0.0,0.0,0.0,-1.3171,-1.3171,-1.3665,-1.4027,0.0,0.0,0.0,-1.3171,-1.3171,0.0,-1.3343,-1.4225,-1.4809,-1.482,-1.5599,-1.6316,-1.6908,-1.7433,-1.8525,-2.0108,-2.0855,-2.1256,-2.1256,-2.1535,-2.1621,-2.1621,-2.1445,-2.1465,-2.1621,-2.1621,-2.1621,-2.1621,-2.1621,-2.1523,-2.1367,0.0,0.0,0.0,0.0,0.0,0.0,0.0,0.0,0.0,-2.1699,-2.2168,-2.2676,-2.3535,-2.4766,-2.6016,-2.6797,-2.834,-3.0,-3.1211,-3.1777,-3.2207,-3.2891,-3.2715,-3.2578,-3.3184,-3.3848,-3.4512,-3.5117,-3.5215,-3.5391,-3.5937,-3.5801,-3.5723,-3.5996,-3.6016,-3.6016,-3.6016,-3.6016,-3.6016,-3.6016,-3.6016,-3.6016,-3.6016,-3.6016,-3.6016,-3.6016,-3.6016,-3.6016,-3.6016,-3.6016,-3.6016,-3.6016,-3.6016,-3.6016,-3.6016,-3.6016,-3.6016,-3.6035,-3.6191,-3.6426,-3.668,-3.7031,-3.7559,-3.8203,-3.8476,-3.8574,-3.8574,-3.8574,-3.8574,-3.8574,-3.8574,-3.8574,-3.8574,0.0,0.0,0.0,0.0,0.0,0.0,0.0,-1.2305,-1.2305,-1.2305,-1.2305,-1.2305,0.0,0.0,0.0,-1.2305,-1.2305,-1.2425,-1.2808,-1.3568,-1.393,-1.3614,-1.5473,-1.6669,-1.7009,-1.7009,-1.7009,-1.7009,-1.8998,-2.0003,-2.0087,-2.068,-2.1012,-2.1152,-2.0742,-2.0801,-2.1172,-2.1172,-2.1172,-2.1172,-2.1172,-2.0937,-2.0566,-2.0566,0.0,0.0,0.0,0.0,0.0,0.0,0.0,0.0,-2.1562,-2.2109,-2.2617,-2.3477,-2.5254,-2.6973,-2.7051,-2.8945,-3.0996,-3.1465,-3.2246,-3.3008,-3.3398,-3.3223,-3.3184,-3.3926,-3.4434,-3.5019,-3.582,-3.5996,-3.6016,-3.6016,-3.6016,-3.6016,-3.6016,-3.6016,-3.6016,-3.6016,-3.6016,-3.6016,-3.6016,-3.6016,-3.6016,-3.6016,-3.6016,-3.6016,-3.6016,-3.6016,-3.6016,-3.6016,-3.6016,-3.6016,-3.6016,-3.6016,-3.6016,-3.6016,-3.6016,-3.6035,-3.6094,-3.6484,-3.6719,-3.6836,-3.7637,-3.8203,-3.8574,-3.8574,-3.8574,-3.8574,-3.8574,-3.8574,-3.8574,-3.8574,-3.8574,-3.8574,0.0,0.0,0.0,0.0,0.0,0.0,-1.2305,-1.2305,-1.2305,-1.2305,-1.2305,-1.2305,-1.2305,-1.2305,0.0,-1.2305,-1.2305,-1.2425,-1.2808,-1.2974,-1.3246,-1.3614,-1.4269,-1.4671,-1.4824,-1.4824,-1.4824,-1.4824,-1.6924,-1.8383,-1.929,-1.9377,-1.9897,-2.0703,-2.0605,-2.0625,-2.0703,-2.0703,-2.0703,-2.0703,-2.0703,-2.0644,-2.0566,-2.0566,-2.0566,0.0,0.0,0.0,0.0,0.0,0.0,0.0,-2.1211,-2.168,-2.2187,-2.3027,-2.4824,-2.668,-2.7344,-2.918,-3.1074,-3.1836,-3.293,-3.3828,-3.3906,-3.4121,-3.4258,-3.4101,-3.4687,-3.5293,-3.5488,-3.5801,-3.6016,-3.6016,-3.6016,-3.6016,-3.6016,-3.6016,-3.6016,-3.6016,-3.6016,-3.6016,-3.6016,-3.6016,-3.6016,-3.6016,-3.6016,-3.6016,-3.6016,-3.6016,-3.6016,-3.6016,-3.6016,-3.6016,-3.6016,-3.6016,-3.6016,-3.6016,-3.6016,-3.6191,-3.6543,-3.6621,-3.7031,-3.7676,-3.8203,-3.8496,-3.8574,-3.8574,-3.8574,-3.8574,-3.8574,-3.8574,-3.8574,-3.8574,-3.8574,-3.8574,0.0,0.0,0.0,0.0,0.0,0.0,0.0,0.0,-1.2639,-1.2345,-1.2305,-1.2305,-1.2305,-1.2305,0.0,0.0,-1.2518,-1.2705,-1.3146,-1.3173,-1.3373,-1.3841,-1.4001,-1.4082,-1.4082,-1.4082,-1.4082,-1.4082,-1.5228,-1.6355,-1.7415,-1.798,-1.8798,-1.9844,-1.9844,-2.0079,-2.0566,-2.0566,-2.0566,-2.0566,-2.0566,-2.0566,-2.0566,-2.0566,-2.0566,-2.0566,-2.0566,0.0,0.0,0.0,0.0,0.0,0.0,0.0,-2.2305,-2.2969,-2.4531,-2.6309,-2.7383,-2.8926,-3.0605,-3.2109,-3.3281,-3.4121,-3.4336,-3.4707,-3.5019,-3.5,-3.5215,-3.5449,-3.5664,-3.5879,-3.6016,-3.6016,-3.6016,-3.6016,-3.6016,-3.6016,-3.6016,-3.6016,-3.6016,-3.6016,-3.6016,-3.6016,-3.6016,-3.6016,-3.6016,-3.6016,-3.6016,-3.6016,-3.6016,-3.6016,-3.6016,-3.6016,-3.6016,-3.6016,-3.6016,-3.6016,-3.623,-3.666,-3.7266,-3.7266,-3.7617,-3.8242,-3.8476,-3.8574,-3.8574,-3.8574,-3.8574,-3.8574,-3.8574,-3.8574,-3.8574,-3.8574,-3.8574,-3.8574,0.0,0.0,0.0,0.0,0.0,0.0,0.0,0.0,0.0,-1.2371,-1.2305,-1.2318,-1.2371,-1.2385,-1.2505,0.0,0.0,0.0,-1.3614,-1.3694,-1.3828,-1.4082,-1.4082,-1.4082,-1.4082,-1.4082,-1.4082,-1.4082,-1.4082,-1.4573,-1.5462,-1.6519,-1.7658,-1.8718,-1.8877,-1.9511,-2.0333,-2.0489,-2.0489,-2.0313,-2.0313,-2.0313,-2.0313,-2.0313,-2.0411,-2.0566,-2.0566,-2.0566,-2.0566,-2.0566,0.0,0.0,0.0,0.0,-2.2383,-2.2812,-2.401,-2.5392,-2.6743,-2.8308,-3.0122,-3.2305,-3.3437,-3.418,-3.4609,-3.5059,-3.5508,-3.5937,-3.5742,-3.5605,-3.5957,-3.6016,-3.6016,-3.6016,-3.6016,-3.6016,-3.6016,-3.6016,-3.6016,-3.6016,-3.6016,-3.6016,-3.6016,-3.6016,-3.6016,-3.6016,-3.6016,-3.6016,-3.6016,-3.6016,-3.6016,-3.6016,-3.6016,-3.6016,-3.6016,-3.6016,-3.6016,-3.6035,-3.6543,-3.7187,-3.793,-3.8008,-3.8223,-3.8574,-3.8574,-3.8574,-3.8574,-3.8574,-3.8574,-3.8574,-3.8574,-3.8574,-3.8574,-3.8574,-3.8574,-3.8574,0.0,0.0,0.0,0.0,0.0,0.0,0.0,0.0,0.0,0.0,-1.2305,-1.2398,-1.2728,-1.2768,-1.2812,-1.312,-1.3146,-1.3293,-1.3546,0.0,0.0,-1.4082,-1.4082,-1.4082,-1.4082,-1.4082,-1.4082,-1.4082,-1.4082,-1.4166,-1.4334,-1.5379,-1.6519,-1.7577,-1.8559,-1.9116,-1.9274,-2.0235,-2.0079,-1.9195,-1.9195,-1.9195,-1.9195,-1.9195,-1.9766,-2.0566,-2.0566,-2.0566,-2.0566,-2.0566,-2.0566,0.0,0.0,0.0,-2.1484,-2.1934,-2.229,-2.2793,-2.4226,-2.6902,-2.987,-3.2273,-3.3437,-3.418,-3.4609,-3.5059,-3.5508,-3.5937,-3.5976,-3.5957,-3.6016,-3.6016,-3.6016,-3.6016,-3.6016,-3.6016,-3.6016,-3.6016,-3.6016,-3.6016,-3.6016,-3.6016,-3.6016,-3.6016,-3.6016,-3.6016,-3.6016,-3.6016,-3.6016,-3.6016,-3.6016,-3.6016,-3.6016,-3.6016,-3.6016,-3.6016,-3.6016,-3.6035,-3.6836,-3.7461,-3.793,-3.832,-3.8516,-3.8574,-3.8574,-3.8574,-3.8574,-3.8574,-3.8574,-3.8574,-3.8574,-3.8574,-3.8574,-3.8574,-3.8574,-3.8574,0.0,0.0,0.0,0.0,0.0,0.0,0.0,0.0,0.0,0.0,0.0,-1.2674,-1.2808,-1.2906,-1.3066,-1.32,-1.336,-1.3574,-1.3868,-1.4015,-1.4082,-1.4082,-1.4082,-1.4082,-1.4082,-1.4082,-1.4082,-1.4082,-1.4082,-1.4082,-1.4082,-1.4573,-1.5379,-1.6437,-1.6927,-1.7496,-1.806,-1.8541,-1.8461,-1.806,-1.806,-1.8198,-1.8288,-1.8146,-1.8985,-2.0261,-2.0361,-2.0633,-2.0977,-2.123,-2.0977,-2.0566,-2.0566,0.0,0.0,0.0,-2.0937,-2.1516,-2.2719,-2.5821,-2.903,-3.0466,-3.2248,-3.3828,-3.4258,-3.4883,-3.5449,-3.5625,-3.5005,-3.4727,-3.5879,-3.6016,-3.6016,-3.6016,-3.6016,-3.6016,-3.6016,-3.6016,-3.6016,-3.6016,-3.6016,-3.6016,-3.6016,-3.6016,-3.6016,-3.6016,-3.6016,-3.6016,-3.6016,-3.6016,-3.6016,-3.6016,-3.6016,-3.6016,-3.6016,-3.6016,-3.6269,-3.6738,-3.7363,-3.7871,-3.8301,-3.8496,-3.8574,-3.8574,-3.8574,-3.8574,-3.8574,-3.8574,-3.8574,-3.8574,-3.8574,-3.8574,-3.8574,-3.8574,-3.8574,-3.8574,0.0,0.0,0.0,0.0,0.0,0.0,0.0,0.0,0.0,0.0,0.0,-1.2849,-1.2852,0.0,0.0,0.0,-1.3561,-1.3734,-1.3961,-1.4041,-1.4082,-1.4082,-1.4082,-1.4082,-1.4082,-1.4082,-1.4082,-1.4082,-1.4082,-1.4082,-1.4082,-1.4082,-1.4489,-1.5296,-1.5613,-1.6108,-1.6927,-1.7172,-1.7172,-1.6944,-1.6942,-1.7199,-1.7488,-1.7311,-1.8296,-1.9817,-1.9903,-2.0238,-2.0727,-2.1351,-2.1014,-2.0366,-2.0349,-2.0541,0.0,0.0,0.0,-2.0405,-2.1476,-2.4141,-2.7006,-2.8157,-3.0112,-3.1922,-3.2577,-3.3143,-3.3726,-3.3932,-3.3102,-3.2767,-3.4277,-3.459,-3.4727,-3.5158,-3.5314,-3.5451,-3.5879,-3.6016,-3.5879,-3.5314,-3.5724,-3.5879,-3.5314,-3.5743,-3.6016,-3.6016,-3.6016,-3.6016,-3.6016,-3.6016,-3.6016,-3.6016,-3.6016,-3.6016,-3.6016,-3.6133,-3.6621,-3.7461,-3.7773,-3.7856,-3.7805,-3.8409,-3.8263,-3.7805,-3.8409,-3.8574,-3.8574,-3.8574,-3.8574,-3.8574,-3.8574,-3.8574,-3.8574,-3.8574,-3.8574,-3.8574,0.0,0.0,0.0,0.0,0.0,0.0,0.0,0.0,0.0,0.0,0.0,-1.2929,-1.316,-1.344,-1.3734,-1.4015,-1.3801,-1.3654,-1.3585,-1.3935,-1.4082,-1.4082,-1.4082,0.0,-1.4082,-1.4082,-1.4082,-1.4082,-1.4082,-1.4082,-1.4082,-1.4082,-1.4166,-1.425,-1.5213,-1.5696,-1.5861,-1.6846,-1.6683,-1.5809,-1.6025,-1.6354,-1.6683,-1.6892,-1.7931,-1.9174,-1.9157,-1.9157,-1.9364,-2.0272,-2.0229,-1.9817,-1.9706,-1.9598,-1.9288,0.0,0.0,0.0,-1.9857,-2.1416,-2.3224,-2.5442,-2.6823,-2.7849,-2.8555,-2.8893,-2.9362,-3.0048,-3.0076,-3.0193,-3.0526,-3.0593,-3.1158,-3.3031,-3.3309,-3.402,-3.5743,-3.6016,-3.5314,-3.3586,-3.4883,-3.5295,-3.3448,-3.5021,-3.6016,-3.6016,-3.6016,-3.6016,-3.6016,-3.6016,-3.6016,-3.6016,-3.6016,-3.6016,-3.6016,-3.6426,-3.7051,-3.7891,-3.791,-3.7093,-3.5664,-3.7658,-3.7492,-3.5812,-3.7805,-3.8574,-3.8574,-3.8574,-3.8574,-3.8574,-3.8574,-3.8574,-3.8574,-3.8574,-3.8574,-3.8574,0.0,0.0,0.0,0.0,0.0,0.0,0.0,0.0,0.0,0.0,0.0,0.0,0.0,-1.3748,-1.3895,-1.3814,-1.3707,-1.3721,-1.3921,-1.4028,-1.4082,-1.4082,-1.4082,-1.4082,-1.4082,-1.4082,-1.4082,-1.4082,-1.4082,-1.4082,-1.4082,-1.4082,-1.4082,-1.4082,-1.4489,-1.4657,-1.4741,-1.5061,-1.4977,-1.4713,-1.5408,-1.5868,-1.6081,-1.6386,-1.7587,-1.9002,-1.91,0.0,-1.9955,-2.0762,-2.0255,-1.9351,-1.9306,-1.8936,-1.8429,-1.762,-1.7125,-1.6981,-1.7992,-1.9638,-2.1521,-2.32,-2.487,-2.6298,-2.716,-2.7844,-2.8345,-2.9075,-2.8622,-2.8067,-2.8423,-2.9472,-3.0593,-3.1175,-3.2455,-3.3448,-3.4158,-3.4158,-3.3882,-3.3309,-3.2735,-3.2595,-3.317,-3.3882,-3.4727,-3.5879,-3.6016,-3.5451,-3.4296,-3.5314,-3.5451,-3.4314,-3.5314,-3.6152,-3.6445,-3.6855,-3.6759,-3.5977,-3.6237,-3.5371,-3.3549,-3.4319,-3.4319,-3.3549,-3.4319,-3.6146,-3.8574,-3.8574,-3.8574,-3.8574,-3.8574,-3.8574,-3.8574,-3.8574,-3.8574,-3.8574,0.0,0.0,0.0,0.0,0.0,0.0,0.0,0.0,-1.2906,-1.2906,0.0,0.0,0.0,0.0,-1.3975,-1.3667,-1.3734,-1.3841,-1.3935,-1.4028,-1.4082,-1.4082,-1.4082,-1.4082,-1.4082,-1.4082,-1.4082,-1.4082,-1.4082,-1.4082,-1.4082,-1.4082,-1.4082,-1.4082,-1.4082,-1.4082,-1.4082,-1.4082,-1.4148,-1.4295,-1.5084,-1.5631,-1.6046,-1.6633,-1.7668,-1.8855,0.0,0.0,0.0,-2.0701,-2.0131,-1.9129,-1.8863,-1.8022,-1.7037,-1.6661,-1.622,-1.6005,-1.678,-1.824,-1.9798,-2.0769,-2.2236,-2.3654,-2.4468,-2.5233,-2.6059,-2.6486,-2.628,-2.5955,-2.6287,-2.756,-2.8613,-2.9186,-3.0468,-3.1474,-3.2176,-3.2176,-3.2018,-3.1333,-3.0751,-3.0593,-3.1175,-3.1895,-3.3013,-3.4883,-3.4452,0.0,-3.317,-3.3725,-3.3586,-3.2316,-3.3575,-3.4427,-3.4975,-3.524,-3.5048,-3.4084,-3.4329,-3.3398,-3.1437,-3.2201,-3.2201,-3.1437,-3.2201,-3.4018,-3.659,-3.659,-3.659,-3.659,-3.7345,-3.7492,-3.7658,-3.8418,-3.8789,-3.8809,0.0,0.0,0.0,0.0,0.0,0.0,0.0,0.0,-1.3227,-1.3227,0.0,0.0,0.0,0.0,0.0,-1.3681,-1.3921,-1.3961,-1.3681,-1.3935,-1.4082,-1.4082,-1.4082,-1.4082,-1.4082,-1.4082,-1.4082,-1.4082,-1.4082,-1.4082,-1.4082,-1.4082,-1.4082,-1.4082,-1.4082,-1.4082,-1.4082,-1.4082,-1.4255,-1.4576,-1.519,-1.5792,-1.6433,-1.7609,-1.825,0.0,-1.9172,-1.9386,0.0,-2.0125,-1.9798,-1.9081,-1.8296,-1.67,-1.511,-1.5671,-1.5832,-1.5952,0.0,0.0,0.0,-1.8317,-1.9118,-1.9826,-2.0147,-2.1096,-2.2017,-2.2352,-2.3113,-2.3821,-2.4142,-2.4422,-2.5198,-2.7055,-2.749,-2.8213,-3.0026,-3.0168,-2.9615,-2.778,-2.9043,-2.9472,-2.7635,-2.9186,-3.1017,-3.3013,-3.1316,-3.1158,-3.2874,-3.1316,-3.031,-3.031,-3.0673,-3.1019,-3.1383,-3.1614,-3.1992,-3.2353,-3.2353,-3.1284,-2.9449,-3.1437,-3.1284,-2.9449,-3.1437,-3.2353,-3.2353,-3.2505,-3.2505,-3.2657,-3.4601,-3.5348,-3.57,-3.8116,-3.9051,-3.9109,0.0,0.0,0.0,0.0,0.0,-1.2903,-1.3053,-1.3333,-1.352,0.0,0.0,0.0,-1.3961,-1.4041,-1.4055,-1.3975,-1.4041,-1.4055,-1.3975,-1.4041,-1.4082,-1.4082,-1.4082,-1.4082,-1.4082,-1.4082,-1.4082,-1.4082,-1.4082,-1.4082,-1.4082,-1.4082,-1.4082,-1.4082,-1.4082,-1.4082,-1.4082,-1.4082,0.0,-1.4629,-1.5845,-1.67,0.0,0.0,0.0,0.0,0.0,-1.9813,-1.996,0.0,-1.9521,-1.8427,-1.7172,-1.6388,-1.5899,-1.5845,-1.5832,-1.5912,-1.6286,0.0,0.0,0.0,0.0,0.0,-1.9706,-2.0174,-2.0788,-2.2138,-2.2619,-2.302,-2.3754,-2.4128,-2.4461,-2.5029,-2.6503,-2.7635,-2.8213,-2.8197,-2.8068,-2.7505,-2.6779,-2.6488,-2.736,-2.7924,-2.9043,0.0,-3.0593,-2.9884,-2.9059,-2.8629,-2.89,-3.031,-3.0673,-3.1019,-3.1383,-3.1614,-3.1237,-3.0207,-3.0207,-2.9138,-2.7305,-2.7762,-2.7762,-2.7305,-2.7762,-2.8076,-2.8388,-3.1284,-3.2505,-3.2505,-3.3095,-3.3398,-3.3449,-3.428,-3.4571,-3.4623,0.0,0.0,-1.2585,-1.2893,-1.3039,-1.3186,-1.336,-1.3641,-1.3828,0.0,0.0,0.0,-1.4082,-1.4082,-1.4082,-1.4082,-1.4082,-1.4082,-1.4082,-1.4082,-1.4082,-1.4082,-1.4082,-1.4082,-1.4082,-1.4082,-1.4082,-1.4082,-1.4082,-1.4082,-1.4082,-1.4082,-1.4082,-1.4082,-1.4082,-1.4082,-1.4095,-1.4215,0.0,0.0,-1.5952,0.0,0.0,-1.8918,-1.9733,0.0,0.0,0.0,-2.0762,-2.0641,-1.9746,0.0,0.0,-1.6647,-1.6393,-1.6099,-1.5925,-1.5899,-1.6192,-1.6393,-1.6673,-1.7261,0.0,0.0,-1.9038,-1.9626,-2.0307,0.0,-2.2084,-2.2579,-2.3113,-2.3447,-2.3688,-2.3821,-2.5068,-2.607,-2.6328,-2.6357,-2.6357,-2.6357,-2.5359,-2.5065,-2.621,-2.6357,-2.707,-2.9043,-2.8326,-2.749,-2.6357,-2.6357,-2.6779,-2.7909,-2.8364,-2.8699,-2.8896,-2.9382,-2.9115,-2.8218,-2.8218,-2.7462,-2.6386,-2.6386,-2.6386,-2.6386,-2.6386,-2.6386,-2.6544,-2.8997,-2.9913,-3.0068,-3.0823,-3.1209,-3.1522,-3.2642,-3.306,-3.3355,0.0,0.0,-1.2738,-1.3041,-1.3386,-1.3572,-1.3694,-1.3921,-1.4082,0.0,-1.4082,-1.4082,-1.4082,-1.4082,-1.4082,-1.4082,-1.4082,-1.4082,-1.4082,-1.4082,-1.4082,-1.4082,-1.4082,-1.4082,-1.4082,-1.4082,-1.4082,-1.4082,-1.4082,-1.4082,-1.4082,-1.4082,-1.4082,-1.4082,-1.4082,-1.4108,-1.4162,-1.4442,-1.4923,-1.5524,-1.5845,-1.67,0.0,0.0,-1.9893,-2.0535,-2.1323,-2.1617,-2.159,-2.1162,-2.0147,0.0,0.0,0.0,0.0,-1.642,-1.6112,-1.5925,-1.6166,-1.6246,-1.6393,-1.6927,-1.7301,0.0,-1.8303,-1.9239,-2.0107,0.0,-2.143,-2.2151,-2.2258,-2.2539,-2.2859,-2.3126,-2.3487,-2.3915,-2.4462,-2.4569,-2.4596,-2.4596,-2.4596,-2.4596,-2.4636,-2.4636,-2.5359,-2.707,-2.5639,-2.4636,-2.4636,-2.4636,-2.4649,-2.469,-2.5224,-2.5531,-2.5558,-2.6106,-2.6386,-2.6386,-2.6386,-2.6386,-2.6386,-2.6386,-2.6386,-2.6386,-2.6386,-2.6386,-2.6386,-2.6386,-2.6386,-2.6544,-2.8374,-2.9316,-2.974,-3.1668,-3.2868,-3.3258,-1.0151,-1.1021,-1.181,-1.2086,-1.2934,-1.3721,-1.3961,-1.4055,-1.4082,-1.4082,-1.4082,-1.4082,-1.4082,-1.4082,-1.4082,-1.4082,-1.4082,-1.4082,-1.4082,-1.4082,-1.4082,-1.4082,-1.4082,-1.4082,-1.4082,-1.4082,-1.4082,-1.4082,-1.4082,-1.4082,-1.4082,-1.4082,-1.4082,-1.4082,-1.4082,-1.4215,-1.4456,-1.475,-1.5351,-1.6152,-1.6673,0.0,-1.9118,-2.0067,-2.0935,-2.167,-2.1844,-2.2044,-2.2058,-2.0815,-2.0214,-1.9733,0.0,0.0,0.0,-1.6847,0.0,-1.6152,-1.5965,-1.6086,-1.6299,-1.642,0.0,0.0,-1.7996,-1.8303,-1.8824,0.0,-2.0321,-2.0521,-2.1229,-2.1804,-2.2178,-2.2231,-2.2899,-2.3541,-2.3888,-2.4142,-2.4289,-2.4289,-2.4289,-2.4382,-2.4609,-2.4636,-2.4784,-2.5212,-2.477,-2.4636,-2.4636,-2.4636,-2.4743,-2.4983,-2.5331,-2.5625,-2.5865,-2.6213,-2.6386,-2.6386,-2.6386,-2.6386,-2.6386,-2.6386,-2.6386,-2.6386,-2.6386,-2.6386,-2.6386,-2.6386,-2.6386,-2.6386,-2.6847,-2.7032,-2.7141,-2.8103,-2.8515,-2.8697,-0.9847,-1.0854,-1.1747,-1.2087,-1.3092,-1.3908,-1.4068,-1.4082,-1.4082,-1.4082,-1.4082,-1.4082,-1.4082,-1.4082,-1.4082,-1.4082,-1.4082,-1.4082,-1.4082,-1.4082,-1.4082,-1.4082,-1.4082,-1.4082,-1.4082,-1.4082,-1.4082,-1.4082,-1.4082,-1.4082,-1.4082,-1.4082,-1.4242,-1.4509,-1.4215,-1.4416,-1.4977,-1.5271,-1.5992,-1.6954,-1.7248,0.0,-1.9252,-2.0281,-2.1136,-2.1804,-2.2098,-2.2298,-2.2245,-2.1069,-2.0575,0.0,0.0,-1.8611,-1.8156,0.0,-1.7061,-1.6607,0.0,0.0,0.0,-1.6273,0.0,0.0,0.0,-1.805,-1.8517,-1.9399,-1.9693,-1.9933,-2.0374,-2.0815,-2.1162,-2.1309,-2.2084,-2.2659,-2.2659,-2.3554,-2.4209,-2.4209,-2.4329,-2.4476,-2.4623,-2.4636,-2.4636,-2.4636,-2.4636,-2.4636,-2.4636,-2.4783,-2.4997,-2.5291,-2.5718,-2.6026,-2.6172,-2.6466,-2.6533,-2.6386,-2.6386,-2.6386,-2.6386,-2.6386,-2.6386,-2.6386,-2.6386,-2.6466,-2.66,-2.6453,-2.656,-2.6814,-2.6667,-2.6694,-2.6867,-2.7161,-2.7455,-2.7722,-0.9508,-1.048,-1.1416,-1.1605,-1.2601,-1.3392,-1.3392,-1.3646,-1.373,-1.373,-1.3835,-1.3754,-1.3534,-1.3585,-1.3648,-1.3611,-1.3648,-1.3671,-1.3827,-1.3814,-1.3959,-1.4175,-1.4122,-1.4108,-1.4175,-1.4122,-1.4082,-1.4082,-1.4082,-1.4082,-1.4082,-1.4082,-1.4376,-1.4856,-1.4169,-1.4471,-1.5591,-1.5639,0.0,-1.7769,0.0,-1.8544,-1.9452,-2.0468,-2.1203,-2.179,-2.2311,-2.2498,-2.2392,-2.1617,-2.1136,-2.0748,-2.016,-1.9399,0.0,0.0,0.0,0.0,0.0,0.0,0.0,0.0,0.0,-1.6914,0.0,0.0,0.0,0.0,0.0,0.0,0.0,0.0,0.0,0.0,0.0,0.0,0.0,-2.2726,0.0,-2.3848,0.0,0.0,-2.4462,-2.4623,-2.4703,-2.4636,-2.469,-2.4716,-2.4716,-2.4957,-2.5264,-2.5665,-2.6146,-2.644,-2.656,-2.6787,-2.676,-2.6466,-2.6466,-2.644,-2.6386,-2.6386,-2.6413,-2.6466,-2.6413,-2.6587,-2.6881,-2.6587,-2.6787,-2.7241,-2.6934,-2.7001,-2.7268,-2.7321,-2.7655,-2.803,-0.7289,-0.8319,-0.9209,-0.9314,-1.0269,-1.0961,-1.0961,-1.1906,-1.2504,-1.2504,-1.2745,-1.2564,-1.1755,-1.1677,-1.1869,-1.1953,-1.19,-1.2099,-1.2881,-1.2948,-1.3379,-1.4396,-1.4229,-1.4202,-1.4469,-1.4215,-1.4082,-1.4082,-1.4082,-1.4082,-1.4082,-1.4082,-1.4255,-1.4488,-1.3416,-1.4124,-1.6109,0.0,-1.6343,0.0,-1.9239,-2.008,0.0,-2.1309,-2.1817,-2.2365,-2.2699,-2.2806,-2.2752,0.0,-2.1911,-2.1349,0.0,-2.0147,-1.9439,-1.8357,0.0,0.0,0.0,0.0,0.0,0.0,-1.6874,0.0,0.0,0.0,-1.7769,-1.8076,0.0,0.0,0.0,0.0,0.0,0.0,0.0,0.0,-2.0428,-2.1456,-2.2338,0.0,0.0,0.0,0.0,-2.4569,-2.4917,-2.4649,-2.4877,-2.5024,-2.5024,-2.5064,-2.5451,-2.6266,-2.6346,-2.664,-2.7161,-2.7201,-2.7068,-2.6774,-2.6774,-2.664,-2.6386,-2.6386,-2.6533,-2.676,-2.6507,-2.6707,-2.7188,-2.6894,-2.6961,-2.7241,-2.6934,-2.7001,-2.7295,-2.7549,-2.7696,-2.7789,-0.7061,-0.8059,-0.8894,-0.8894,-0.9836,-1.0605,-1.0605,-1.1065,-1.1412,-1.1412,-1.1621,-1.1641,-1.1303,-1.1293,0.0,0.0,0.0,-1.1775,0.0,0.0,-1.3415,-1.3865,-1.4216,-1.4389,-1.4522,-1.4242,-1.4082,-1.4082,-1.4082,-1.4082,-1.4082,-1.4082,-1.4335,-1.4701,-1.3501,-1.3849,-1.5275,0.0,-1.4917,0.0,0.0,0.0,0.0,-2.1175,-2.2017,-2.2739,-2.322,-2.3273,-2.3086,0.0,-2.2405,0.0,0.0,0.0,0.0,-1.9506,0.0,0.0,0.0,0.0,0.0,0.0,0.0,0.0,-1.7221,0.0,-1.7622,0.0,0.0,0.0,0.0,0.0,0.0,0.0,-1.9519,0.0,0.0,0.0,-2.1643,0.0,0.0,0.0,0.0,0.0,0.0,0.0,-2.501,-2.5077,-2.5077,-2.5411,-2.5905,-2.6613,-2.6814,-2.7094,-2.7509,-2.7522,-2.7281,-2.6827,-2.6827,-2.6667,-2.6386,-2.6386,-2.6547,-2.6814,-2.652,-2.6814,-2.7482,-2.7014,-2.7201,-2.7749,-2.7442,-2.7402,-2.7549,-2.7843,-2.7963,-2.7976,-0.7143,-0.7841,-0.8368,-0.8368,-0.9052,-0.9767,-1.0163,-1.0308,-1.0343,-1.04,-1.0594,-1.0705,-1.0583,-1.0574,0.0,0.0,-1.1045,-1.1245,0.0,0.0,-1.2893,-1.3203,-1.3809,-1.4155,-1.4231,-1.4335,-1.4255,-1.4082,-1.4162,-1.4162,-1.4082,-1.4175,-1.4482,-1.4977,-1.3812,-1.3842,-1.4767,0.0,-1.4172,-1.4931,-1.6768,-1.8266,-1.9554,-2.1343,-2.2432,-2.306,-2.3581,-2.3634,-2.3434,-2.3273,-2.2926,0.0,-2.2298,0.0,-2.0842,0.0,0.0,0.0,-1.8958,0.0,0.0,0.0,0.0,0.0,0.0,0.0,0.0,0.0,0.0,0.0,0.0,0.0,0.0,0.0,0.0,-1.9332,0.0,0.0,0.0,0.0,0.0,0.0,0.0,0.0,0.0,0.0,0.0,-2.5077,-2.5077,-2.5558,-2.6132,-2.68,-2.7108,-2.7442,-2.7816,-2.7736,-2.7442,-2.6947,-2.6867,-2.6667,-2.6386,-2.6466,-2.6667,-2.6921,-2.664,-2.7001,-2.7776,-2.7188,-2.7415,-2.8123,-2.7909,-2.7816,-2.7843,-2.8056,-2.8136,-2.8136,-0.7143,-0.7136,-0.7143,-0.7143,-0.7224,-0.7627,-0.8943,-0.9148,-0.9216,0.0,0.0,0.0,0.0,0.0,0.0,0.0,0.0,-1.0076,-1.106,0.0,-1.1394,-1.2577,-1.3062,-1.3308,0.0,-1.4472,-1.4656,-1.4082,-1.4362,-1.4362,-1.4095,-1.4376,-1.4669,-1.5003,-1.4292,-1.448,-1.5148,-1.4416,-1.4629,-1.5276,-1.5603,-1.7107,-1.9504,0.0,-2.3287,-2.3354,-2.3661,0.0,0.0,-2.4075,-2.3581,0.0,0.0,0.0,0.0,0.0,0.0,0.0,0.0,0.0,0.0,-1.9319,0.0,0.0,0.0,0.0,-1.7943,0.0,0.0,0.0,0.0,0.0,0.0,0.0,0.0,0.0,0.0,0.0,0.0,0.0,0.0,0.0,0.0,0.0,0.0,0.0,0.0,0.0,-2.5077,-2.5371,-2.5919,-2.6787,-2.7108,-2.7549,-2.8123,-2.7843,-2.7549,-2.7241,-2.6961,-2.6667,-2.64,-2.668,-2.6974,-2.7241,-2.6934,-2.7308,-2.8083,-2.7495,-2.7602,-2.8136,-2.8136,-2.8123,-2.8123,-2.8136,-2.8136,-2.8136,-0.7143,-0.7143,-0.7143,-0.7143,-0.7143,-0.7279,-0.7884,-0.808,0.0,0.0,0.0,0.0,0.0,-0.9245,-0.9483,0.0,0.0,-1.004,-1.058,-1.1214,0.0,0.0,0.0,-1.3127,0.0,-1.3909,-1.3671,-1.3496,-1.3397,-1.2861,-1.1904,-1.2949,-1.3496,-1.361,-1.3106,-1.3164,0.0,0.0,0.0,0.0,0.0,-1.6058,-1.8186,0.0,-2.35,-2.342,-2.4102,-2.4222,0.0,-2.4168,-2.3995,-2.3688,-2.33,-2.2819,-2.2311,-2.171,-2.1269,-2.1002,0.0,0.0,-2.0762,-2.0575,0.0,0.0,0.0,0.0,0.0,0.0,0.0,0.0,0.0,0.0,0.0,0.0,0.0,0.0,0.0,0.0,0.0,0.0,0.0,0.0,0.0,0.0,0.0,0.0,0.0,0.0,0.0,-2.5651,-2.6213,-2.7094,-2.7215,-2.7549,-2.8136,-2.7843,-2.7549,-2.7268,-2.6961,-2.6667,-2.64,-2.6694,-2.6881,-2.6961,-2.6867,-2.7215,-2.7802,-2.7215,-2.7442,-2.8123,-2.7923,-2.7963,-2.8136,-2.8136,-2.8136,-2.8136,-0.7143,-0.7143,-0.7143,-0.7143,-0.7183,-0.7292,-0.7495,0.0,0.0,0.0,-0.8818,0.0,-0.9503,0.0,-0.9883,0.0,-1.0371,-1.0432,-1.0582,-1.1162,0.0,-1.1385,-1.1893,0.0,0.0,-1.3148,-1.2909,-1.2675,-1.2426,-1.1855,-1.097,-1.1855,-1.2348,-1.2444,-1.2333,-1.2327,-1.2087,-1.1152,-1.0785,0.0,0.0,-1.5053,0.0,0.0,-2.2044,-2.2421,0.0,-2.3849,-2.4222,-2.4329,-2.4289,-2.4142,-2.3754,-2.3434,-2.3113,-2.2726,-2.2285,-2.1846,-2.1533,-2.1073,0.0,-1.9747,-1.9064,0.0,-1.8772,0.0,-1.8399,0.0,0.0,0.0,0.0,0.0,0.0,0.0,0.0,0.0,0.0,-1.8531,0.0,0.0,0.0,0.0,0.0,0.0,0.0,0.0,0.0,0.0,0.0,0.0,-2.6159,-2.6934,-2.7161,-2.7495,-2.7976,-2.7789,-2.7549,-2.7268,-2.6961,-2.6667,-2.64,-2.6694,-2.6827,-2.6827,-2.6827,-2.7148,-2.7655,-2.7175,-2.7375,-2.7976,-2.7896,-2.7909,-2.8003,-2.8096,-2.8136,-2.8136,-0.7143,-0.7143,-0.7149,-0.7149,-0.7285,-0.7489,0.0,0.0,-0.8404,0.0,-0.9137,-0.9537,-0.9822,-1.0134,-1.0493,-1.0921,-1.0968,-1.1023,-1.1151,-1.0907,0.0,0.0,-1.1408,-1.1575,-1.1406,0.0,0.0,-1.1692,-1.1549,-1.1214,-1.0925,-1.1308,-1.1417,-1.1457,-1.2204,-1.2018,-1.1093,-1.1626,-1.1324,-1.0706,-1.3046,-1.4123,-1.477,-1.6835,-1.881,-2.0485,-2.1277,-2.2645,-2.4117,-2.4395,-2.4302,-2.4222,-2.4063,-2.3864,-2.3794,-2.3625,-2.3426,-2.278,-2.091,-1.9831,-1.8958,-1.7228,-1.6402,0.0,0.0,0.0,-1.817,0.0,0.0,0.0,0.0,0.0,0.0,0.0,0.0,0.0,0.0,0.0,0.0,0.0,0.0,0.0,0.0,0.0,0.0,0.0,0.0,0.0,0.0,0.0,-2.5785,-2.6373,-2.6947,-2.7388,-2.7669,-2.7655,-2.7522,-2.7241,-2.6947,-2.6653,-2.64,-2.6694,-2.6814,-2.68,-2.6814,-2.7134,-2.7629,-2.7348,-2.7415,-2.7722,-2.7976,-2.7923,-2.7736,-2.803,-2.8136,-2.8136,-0.7143,-0.7231,-0.7312,-0.7312,-0.7522,-0.776,0.0,0.0,0.0,0.0,-0.9625,-1.012,-1.0297,-1.069,-1.0982,-1.1097,-1.1212,0.0,0.0,0.0,0.0,-1.1056,-1.0967,-1.1307,-1.2272,-1.176,0.0,-1.1098,-1.0671,-0.9824,-0.8695,-0.9784,-1.0263,-1.0422,-1.0764,-1.1039,-1.1167,-1.0621,-1.0714,-1.1199,-1.2215,-1.2698,-1.2935,0.0,-1.5101,-1.7067,-1.8833,-2.0647,-2.2262,-2.2335,-2.3375,-2.4182,-2.2472,-2.2955,-2.3747,-2.2063,-2.1366,-2.1354,-2.0967,-1.9602,-1.8166,-1.7629,-1.7092,-1.6797,0.0,0.0,0.0,0.0,0.0,0.0,0.0,0.0,0.0,0.0,0.0,0.0,0.0,0.0,0.0,0.0,0.0,0.0,0.0,0.0,0.0,0.0,0.0,0.0,0.0,0.0,0.0,-2.6373,-2.6747,-2.7081,-2.7375,-2.7161,-2.7014,-2.6934,-2.664,-2.6466,-2.64,-2.6694,-2.6707,-2.6507,-2.6734,-2.6907,-2.7028,-2.6734,-2.7041,-2.7655,-2.7295,-2.7375,-2.7736,-2.803,-2.8136,-2.8136,-0.7339,-0.7414,-0.7509,-0.7638,-0.7963,0.0,-0.8323,-0.8899,0.0,-0.9618,-1.0127,0.0,-1.0765,-1.1131,-1.1389,-1.145,-1.1592,0.0,-1.1558,0.0,0.0,-1.1369,-1.1056,-1.122,-1.1871,-1.117,0.0,-1.0316,0.0,-0.8999,-0.8011,-0.8721,-0.9068,-0.9245,-0.9499,-0.9892,-1.0446,-1.0218,-1.067,-1.1416,-1.1742,-1.204,0.0,-1.2379,-1.3209,-1.4322,-1.554,-1.7815,-2.0241,-2.0241,-2.0991,-2.1727,-2.0523,-2.0786,-2.1502,-2.0162,-1.961,-1.943,-1.8915,-1.7722,-1.6478,-1.5638,-1.5269,-1.5283,-1.5802,-1.6022,-1.5931,0.0,-1.5548,-1.5466,0.0,0.0,0.0,0.0,0.0,0.0,0.0,0.0,0.0,0.0,0.0,0.0,0.0,0.0,0.0,0.0,0.0,0.0,0.0,0.0,0.0,-2.6172,-2.648,-2.6707,-2.6881,-2.7094,-2.7081,-2.6827,-2.6787,-2.664,-2.64,-2.656,-2.6547,-2.64,-2.656,-2.6707,-2.6814,-2.664,-2.6867,-2.7281,-2.6947,-2.7175,-2.7709,-2.7749,-2.7843,-2.7949,-0.7631,-0.7658,-0.7773,-0.8052,-0.852,0.0,0.0,-0.9456,0.0,-1.0243,0.0,-1.0887,-1.1165,-1.1463,-1.1701,-1.185,0.0,-1.206,-1.206,-1.1938,-1.1809,-1.1681,-1.1511,-1.1301,-1.1043,-1.0677,-1.0222,0.0,0.0,-0.875,-0.8323,-0.8174,-0.8167,-0.8303,-0.8472,-0.8899,-0.9557,-1.0432,-1.1056,-1.1463,-1.164,-1.1952,-1.2318,-1.2318,-1.2393,-1.2501,-1.2501,-1.4935,-1.8118,-1.8118,-1.8421,-1.8572,-1.827,-1.8421,-1.8572,-1.827,-1.798,-1.7423,-1.5946,-1.5134,-1.4517,-1.3127,-1.2745,-1.3225,-1.4767,-1.535,-1.5491,-1.4871,-1.4802,-1.4646,0.0,0.0,0.0,0.0,0.0,0.0,0.0,0.0,0.0,0.0,0.0,0.0,0.0,0.0,0.0,0.0,0.0,0.0,0.0,0.0,0.0,-2.5812,-2.6199,-2.6215,-2.5846,-2.7038,-2.7171,-2.6279,-2.6905,-2.6921,-2.6386,-2.6386,-2.6386,-2.6386,-2.6386,-2.6533,-2.676,-2.676,-2.676,-2.6774,-2.6854,-2.7188,-2.7615,-2.7362,-2.7428,-2.7642,-0.7773,-0.7977,-0.8208,-0.8377,-0.9083,-0.9666,-0.9795,-1.0032,-1.0215,-1.0276,-1.0751,-1.1151,-1.1335,-1.1613,-1.1857,-1.2006,-1.2047,0.0,0.0,0.0,0.0,-1.1986,-1.1721,-1.1552,-1.1504,-1.0839,-1.0324,0.0,0.0,-0.8947,-0.8628,-0.8479,-0.8418,-0.8459,-0.8737,-0.9327,-1.0175,-1.0948,0.0,-1.1775,-1.206,-1.2291,-1.2467,-1.2467,-1.2481,-1.2501,-1.2501,-1.4022,-1.5989,-1.5989,-1.7208,-1.827,-1.6599,-1.7208,-1.827,-1.6599,-1.5972,-1.5955,-1.5531,-1.4407,-1.3127,-1.2712,-1.2827,-1.3082,-1.3394,-1.3408,-1.3568,-1.3324,-1.3447,-1.3261,-1.3232,0.0,0.0,0.0,0.0,0.0,0.0,0.0,0.0,0.0,0.0,0.0,0.0,0.0,0.0,0.0,0.0,0.0,0.0,0.0,0.0,0.0,-2.5985,0.0,0.0,0.0,-2.6203,-2.3704,-2.5931,-2.672,-2.6386,-2.6386,-2.6386,-2.6386,-2.6386,-2.6413,-2.6466,-2.6466,-2.6466,-2.6507,-2.7001,-2.7255,-2.7335,-2.7281,-2.7295,-2.7348,0.0,0.0,0.0,0.0,0.0,0.0,0.0,-1.0609,-1.0887,-1.0962,-1.1226,-1.1484,-1.1714,-1.1938,-1.2101,-1.2176,-1.225,-1.2291,-1.2291,-1.2223,-1.2182,-1.2182,-1.1965,-1.1775,-1.1619,-1.1335,-1.0853,-1.0168,0.0,-0.9422,-0.8825,-0.8669,-0.8642,-0.8743,-0.9361,-0.9917,-1.0439,0.0,0.0,-1.1857,-1.2169,-1.2372,-1.2501,-1.2501,-1.2501,-1.2501,-1.2501,-1.3112,-1.3868,-1.3868,-1.4629,-1.5234,-1.433,-1.4629,-1.5234,-1.4176,-1.3936,-1.3981,-1.3891,-1.3447,-1.2847,-1.2847,-1.2963,-1.3091,-1.3173,-1.3193,-1.3166,-1.3085,-1.3071,-1.3339,-1.4117,-1.4452,0.0,0.0,0.0,0.0,0.0,0.0,0.0,0.0,0.0,0.0,0.0,0.0,0.0,0.0,0.0,0.0,0.0,0.0,0.0,0.0,0.0,0.0,0.0,0.0,-2.4857,-2.334,-2.5912,-2.6894,-2.6613,-2.6453,-2.6386,-2.6386,-2.6386,-2.6386,-2.6386,-2.6386,-2.6386,-2.6413,-2.6694,-2.6907,-2.7041,-2.7041,-2.7134,-2.7268,0.0,-0.9069,0.0,0.0,-0.991,-1.0378,-1.0643,-1.1138,-1.1518,-1.1606,-1.1674,-1.1816,-1.2081,-1.2216,-1.2305,-1.2332,-1.2433,-1.2501,-1.2501,-1.24,-1.2338,-1.2338,-1.2189,-1.1999,-1.1769,-1.1775,-1.1369,0.0,0.0,0.0,-0.9076,-0.896,-0.9035,-0.93,-1.0046,-1.0487,0.0,0.0,-1.1775,-1.1904,-1.221,-1.24,-1.2501,-1.2501,-1.2501,-1.2501,-1.2501,-1.2501,-1.2501,-1.2501,-1.2501,-1.2501,-1.2501,-1.2501,-1.2508,-1.2542,-1.2637,-1.2712,-1.2623,-1.2773,-1.2969,-1.2996,-1.3091,-1.3214,-1.3363,-1.3403,-1.337,-1.3247,-1.322,-1.3619,-1.4742,-1.4859,0.0,0.0,0.0,0.0,0.0,0.0,0.0,0.0,0.0,0.0,0.0,0.0,0.0,0.0,0.0,0.0,0.0,0.0,0.0,0.0,0.0,-2.1896,-2.1964,0.0,-2.3033,-2.2211,-2.5124,-2.6405,-2.6066,-2.6334,-2.6386,-2.6386,-2.6386,-2.6386,-2.6386,-2.6386,-2.6386,-2.64,-2.6453,-2.6667,-2.6921,-2.6921,-2.7108,-2.7362,0.0,0.0,0.0,0.0,0.0,-1.1118,-1.128,-1.1579,-1.1748,-1.1633,-1.185,-1.2088,-1.225,-1.2284,-1.2338,-1.2467,-1.2494,-1.2501,-1.2501,-1.2488,-1.2481,-1.2481,-1.2345,-1.2257,-1.223,-1.1843,-1.1525,0.0,0.0,-1.0025,-0.9544,-0.953,-0.9822,-1.0358,0.0,0.0,0.0,-1.1816,-1.2026,-1.2067,-1.2366,-1.2488,-1.2501,-1.2501,-1.2501,-1.2501,-1.2501,-1.2501,-1.2501,-1.2501,-1.2501,-1.2501,-1.2501,-1.2501,-1.2528,-1.2671,-1.2718,-1.2759,-1.2881,-1.2942,-1.299,-1.3119,-1.3159,-1.3214,-1.3363,-1.3403,-1.3397,-1.3383,-1.3376,-1.3329,-1.3485,-1.3332,-1.313,0.0,0.0,0.0,0.0,0.0,0.0,0.0,0.0,0.0,0.0,0.0,0.0,0.0,0.0,0.0,0.0,0.0,0.0,-2.5104,0.0,-1.9666,-1.9563,-2.0775,-1.9991,-1.7601,-2.1958,-2.3821,-2.3496,-2.5422,-2.6386,-2.6386,-2.6386,-2.6386,-2.6386,-2.6386,-2.6386,-2.6413,-2.668,-2.6961,-2.7228,-2.7228,-2.7415,-2.7655,0.0,0.0,0.0,0.0,0.0,0.0,0.0,-1.1817,-1.1985,-1.1925,-1.2149,-1.2257,-1.24,-1.242,-1.244,-1.2494,-1.2501,-1.2501,-1.2501,-1.2501,-1.2501,-1.2501,-1.2447,-1.2379,-1.2291,-1.2026,-1.1721,0.0,0.0,0.0,-1.0141,-1.0141,-1.0412,-1.0907,0.0,-1.1484,-1.1687,-1.2135,-1.2277,-1.2216,-1.242,-1.2501,-1.2501,-1.2501,-1.2501,-1.2501,-1.2501,-1.2562,-1.2637,-1.2637,-1.2576,-1.2515,-1.261,-1.2637,-1.2671,-1.282,-1.2929,-1.299,-1.2969,-1.3091,-1.3214,-1.318,-1.3241,-1.3322,-1.339,-1.3403,-1.3403,-1.3403,-1.3403,-1.3383,-1.3322,-1.3261,-1.3152,-1.2942,0.0,0.0,0.0,0.0,0.0,0.0,0.0,0.0,0.0,0.0,0.0,0.0,0.0,0.0,0.0,0.0,0.0,-2.1585,0.0,-1.7647,-1.7846,-1.8566,-1.8372,-1.7095,-2.0356,-2.2388,-2.3363,-2.4185,-2.5092,-2.6386,-2.6386,-2.6386,-2.64,-2.6573,-2.6653,-2.668,-2.6974,-2.7161,-2.7281,-2.7455,-2.7602,-2.7722,-0.8778,0.0,-0.8916,0.0,-0.9296,-0.9667,-0.991,-1.0252,-1.0389,-1.0389,-1.052,-1.0998,-1.2347,-1.2508,-1.2501,-1.2501,-1.2501,-1.2501,-1.2501,-1.2501,-1.2501,-1.2501,-1.2501,0.0,-1.2352,-1.2203,-1.1972,-1.1653,-1.1267,0.0,-1.069,-1.0649,-1.0934,0.0,-1.1823,-1.1993,-1.2054,-1.2413,-1.2461,-1.2305,-1.2447,-1.2501,-1.2508,-1.2549,-1.2542,-1.2515,-1.2603,-1.2678,-1.2739,-1.2786,-1.2725,-1.2657,-1.2766,-1.28,-1.2827,-1.2976,-1.3098,-1.3159,-1.3105,-1.3241,-1.3376,-1.3268,-1.3322,-1.3403,-1.3403,-1.3403,-1.3403,-1.3403,-1.3403,-1.3403,-1.3403,-1.3403,-1.3349,-1.32,0.0,0.0,0.0,0.0,0.0,0.0,-1.2576,-1.2637,-1.2637,0.0,0.0,0.0,0.0,0.0,0.0,0.0,0.0,0.0,0.0,0.0,-1.6684,-1.6552,-1.6323,-1.6366,-1.8548,-2.0578,-2.2588,-2.3555,-2.492,-2.6386,-2.6386,-2.644,-2.6533,-2.6734,-2.6867,-2.6987,-2.7281,-2.7388,-2.7428,-2.7722,-2.7829,-2.7856,-0.5326,-0.5421,-0.5493,-0.5856,-0.5932,-0.5829,-0.5832,-0.6203,-0.641,-0.641,-0.641,-0.7976,-1.2076,-1.2522,-1.2501,-1.2501,-1.2501,-1.2501,-1.2501,-1.2501,-1.2501,0.0,0.0,-1.2501,-1.2501,-1.2359,-1.2284,-1.2277,0.0,0.0,-1.1151,-1.1009,-1.1423,-1.2277,-1.2284,-1.2366,-1.2501,-1.2664,-1.2556,-1.2305,-1.2447,-1.2501,-1.2515,-1.2671,-1.263,-1.2542,-1.2847,-1.2861,-1.2752,-1.2908,-1.2956,-1.2956,-1.2956,-1.2956,-1.2983,-1.3125,-1.3173,-1.3207,-1.3356,-1.3397,-1.3403,-1.3397,-1.3397,-1.3403,-1.3403,-1.3403,-1.3403,-1.3403,-1.3403,-1.3403,-1.3403,-1.3403,-1.3349,-1.32,0.0,0.0,0.0,0.0,0.0,0.0,-1.2956,-1.2956,-1.2956,0.0,0.0,0.0,0.0,0.0,0.0,0.0,0.0,-1.9039,-1.4899,0.0,-1.6328,-1.4696,-1.3844,-1.3838,-1.6034,-1.819,-2.0069,-2.4442,-2.6386,-2.6386,-2.6386,-2.6547,-2.6814,-2.6827,-2.7001,-2.7295,-2.7575,-2.7696,-2.7722,-2.803,-2.8136,-2.8136,-0.1637,-0.1649,-0.181,-0.1832,-0.1843,-0.1853,-0.1868,-0.4383,-0.6285,-0.6285,-0.6275,-0.7842,-1.1972,-1.2434,-1.2569,0.0,-1.2569,-1.2562,0.0,-1.2535,-1.2528,-1.2501,-1.2501,-1.2501,-1.2501,-1.2366,-1.2291,-1.2291,0.0,0.0,0.0,-1.1837,-1.2121,-1.2583,-1.2481,-1.2515,-1.2657,-1.2712,-1.2617,-1.2454,-1.2712,-1.2752,-1.2671,-1.2827,-1.2854,-1.2827,-1.2929,-1.299,-1.3037,-1.3085,-1.3173,-1.3261,-1.3261,-1.3193,-1.3132,-1.3288,-1.3329,-1.3342,-1.339,-1.3403,-1.3403,-1.3403,-1.3403,-1.3403,-1.3403,-1.3403,-1.3403,-1.3403,-1.3403,-1.3403,-1.3403,-1.3403,-1.3349,-1.32,-1.3261,0.0,-1.2929,0.0,-1.3119,-1.2976,-1.2963,-1.3003,0.0,-1.3604,0.0,0.0,0.0,0.0,0.0,0.0,0.0,0.0,-1.3881,0.0,-1.4696,-1.4235,-1.3946,-1.3838,-1.4515,-1.6684,-2.0069,-2.4442,-2.6386,-2.64,-2.66,-2.6734,-2.6854,-2.7255,-2.7482,-2.7589,-2.7883,-2.8003,-2.8016,-2.811,-2.8136,-2.8136,0.0,0.0,0.0,0.0,0.0,0.0,0.0,-0.22,-0.3931,-0.3931,-0.3925,-0.4865,-0.7546,-0.9286,0.0,-1.0208,-1.0208,-1.0202,-1.018,-1.1616,-1.2562,-1.2542,-1.2528,-1.2522,-1.2522,-1.242,0.0,-1.2372,-1.2176,-1.2108,-1.2149,-1.2359,-1.2556,-1.2732,-1.2745,-1.2779,-1.282,-1.2874,-1.2813,-1.2691,-1.2881,-1.2901,-1.2834,-1.2983,-1.301,-1.2976,-1.3085,-1.3146,-1.318,-1.3241,-1.3322,-1.3403,-1.3403,-1.3336,-1.3275,-1.337,-1.3403,-1.3403,-1.3403,-1.3403,-1.3403,-1.3403,-1.3403,-1.3403,-1.3403,-1.3403,-1.3403,-1.3403,-1.3403,-1.3403,-1.3403,-1.3403,-1.337,-1.3275,-1.3336,-1.3315,-1.3071,0.0,-1.3207,0.0,0.0,0.0,0.0,-1.3125,-1.3675,0.0,0.0,0.0,0.0,0.0,0.0,-1.3329,-1.341,-1.3641,-1.3838,-1.3994,-1.4021,-1.3926,-1.4657,-1.6785,-2.0069,-2.362,-2.5633,-2.656,-2.6747,-2.6947,-2.7175,-2.7549,-2.7762,-2.7883,-2.807,-2.8136,-2.8136,-2.8136,-2.8136,-2.8136,0.0,0.0,0.0,0.0,0.0,0.0,0.0,0.0,0.0,0.0,0.0,0.0,0.0,-0.3458,-0.5814,-0.5789,0.0,0.0,-0.5786,-0.9417,-1.1804,-1.2122,-1.2096,-1.2238,-1.2556,-1.2528,-1.2508,-1.2508,-1.2508,-1.2433,-1.2311,-1.2596,-1.2739,-1.2759,-1.3037,-1.3091,-1.299,-1.3125,-1.3098,-1.2969,-1.299,-1.299,-1.2996,-1.3139,-1.3112,-1.303,-1.3302,-1.3308,-1.3207,-1.3356,-1.3403,-1.3403,-1.3403,-1.3403,-1.3403,-1.3403,-1.3403,-1.3403,-1.3403,-1.3403,-1.3403,-1.3403,-1.3403,-1.3403,-1.3403,-1.3403,-1.3403,-1.3403,-1.3403,-1.3403,-1.3403,-1.3403,-1.3403,-1.3403,-1.3403,-1.3349,-1.3193,-1.3295,-1.3336,0.0,0.0,0.0,0.0,-1.3275,-1.3186,0.0,0.0,0.0,0.0,0.0,-1.4976,-1.32,-1.3363,-1.358,-1.3858,-1.4007,-1.4075,-1.4048,-1.5924,-1.7973,-1.9907,-2.2028,-2.427,-2.6827,-2.6706,-2.7025,-2.7696,-2.7722,-2.7896,-2.8136,-2.8136,-2.8136,-2.8136,-2.8136,-2.8136,-2.8136,0.0,0.0,0.0,0.0,0.0,0.0,0.0,0.0,0.0,0.0,0.0,0.0,0.0,-0.0942,-0.1413,-0.1569,-0.1569,-0.1567,-0.1564,-0.2345,-0.4381,-0.7673,-0.7825,-0.9246,-1.2434,-1.2427,-1.2569,-1.2542,-1.2542,-1.2508,-1.2454,-1.2644,-1.2807,-1.2782,-1.2856,-1.3105,-1.337,-1.307,-1.2996,-1.3044,-1.3281,-1.3288,-1.318,-1.3329,-1.3349,-1.3308,-1.3376,-1.3376,-1.3349,-1.339,-1.3403,-1.3403,-1.3403,-1.3403,-1.3403,-1.3403,-1.3403,-1.3403,-1.3403,-1.3403,-1.3403,-1.3403,-1.3403,-1.3403,-1.3403,-1.3403,-1.3403,-1.3403,-1.3403,-1.3403,-1.3403,-1.3403,-1.3403,-1.3403,-1.3403,-1.3349,-1.3193,-1.3207,-1.3214,0.0,-1.3173,-1.3234,-1.339,-1.337,-1.3302,0.0,0.0,0.0,0.0,-1.3957,-1.4091,-1.3526,-1.3777,-1.3946,-1.4014,-1.417,-1.4129,-1.3892,-1.5743,-1.7837,-1.9917,-2.0558,-2.297,-2.668,-2.545,-2.5878,-2.7722,-2.7949,-2.8083,-2.8136,-2.8136,-2.8136,-2.8136,-2.8136,-2.8136,-2.8136,0.0,0.0,0.0,0.0,0.0,0.0,0.0,0.0,0.0,0.0,0.0,0.0,0.0,0.0,0.0,0.0,0.0,0.0,0.0,0.0,-0.1096,-0.3288,-0.3441,-0.5321,-0.9584,-0.9735,-0.9724,-0.9708,-1.1616,-1.2447,-1.2494,-1.2641,-1.2762,-1.2869,-1.0835,-1.006,-1.0086,-1.0138,-1.0123,-1.0076,-1.0206,-1.0211,-1.0479,-1.2593,-1.3451,-1.3424,-1.3424,-1.3417,-1.3403,-1.3403,-1.3403,-1.3403,-1.3403,-1.3403,-1.3403,-1.3403,-1.3403,-1.3403,-1.3403,-1.3403,-1.3403,-1.3403,-1.3403,-1.3403,-1.3403,-1.3403,-1.3403,-1.3403,-1.3403,-1.3403,-1.3403,-1.3403,-1.3403,-1.3403,-1.3342,-1.3268,-1.3186,-1.3234,-1.3275,-1.3275,-1.3397,-1.3512,-1.3593,-1.36,-1.3566,-1.3485,-1.3573,0.0,-1.3485,-1.3709,-1.3804,-1.3729,-1.3953,-1.4102,-1.4177,-1.419,-1.4075,-1.3838,-1.4769,-1.6411,-1.8444,-1.8486,-2.0611,-2.4044,-2.4127,-2.5047,-2.6373,-2.7733,-2.8136,-2.8136,-2.8136,-2.8136,-2.8136,-2.8136,-2.8136,-2.8136,0.0,0.0,0.0,0.0,0.0,0.0,0.0,0.0,0.0,0.0,0.0,0.0,0.0,0.0,0.0,0.0,0.0,0.0,0.0,0.0,0.0,0.0,0.0,-0.1722,-0.5332,-0.5324,-0.5324,-0.5329,-0.8807,-1.0943,-1.1561,-1.1529,-1.2087,-1.2767,-0.9321,-0.6839,-0.5289,-0.551,-0.57,-0.57,-0.57,-0.5697,-0.6032,-0.9923,-1.1778,-1.2432,-1.3111,-1.3431,-1.341,-1.3403,-1.3403,-1.3403,-1.3403,-1.3403,-1.3403,-1.3403,-1.3403,-1.3403,-1.3403,-1.3403,-1.3403,-1.3403,-1.3403,-1.3403,-1.3403,-1.3403,-1.3403,-1.3403,-1.3403,-1.3403,-1.3403,-1.3403,-1.3397,-1.337,-1.3275,-1.32,-1.3173,-1.3322,-1.3437,-1.3437,-1.3675,-1.3838,-1.3838,-1.3838,-1.3838,-1.3838,-1.3749,-1.3736,-1.3838,-1.3885,-1.3899,-1.3878,-1.4027,-1.417,-1.4299,-1.4129,-1.3973,-1.3838,-1.3675,-1.4688,-1.6698,-1.656,-1.7909,-2.0792,-2.2888,-2.414,-2.4861,-2.7279,-2.8136,-2.8136,-2.8136,-2.8136,-2.8136,-2.8136,-2.8136,-2.8136,0.0,0.0,0.0,0.0,0.0,0.0,0.0,0.0,0.0,0.0,0.0,0.0,0.0,0.0,0.0,0.0,0.0,0.0,0.0,0.0,0.0,0.0,0.0,-0.0314,-0.0942,-0.0942,-0.0945,-0.0953,-0.1588,-0.3833,-0.7271,-0.7192,-0.9231,-1.2617,-1.2445,-0.8081,-0.1007,-0.1009,-0.1009,-0.1009,-0.1009,-0.1008,-0.1174,-0.1845,-0.4358,-0.8211,-1.2093,-1.3451,-1.3437,-1.341,-1.3403,-1.3403,-1.3403,-1.3403,-1.3403,-1.3403,-1.3403,-1.3403,-1.3403,-1.3403,-1.3403,-1.3403,-1.3403,-1.3403,-1.3403,-1.3403,-1.3403,-1.3403,-1.3403,-1.3403,-1.3403,-1.3403,-1.3356,-1.3227,-1.3295,-1.3322,-1.3193,-1.3417,-1.3593,-1.3593,-1.3743,-1.3838,-1.3838,-1.3838,-1.3838,-1.3838,-1.3939,-1.396,-1.3844,-1.4089,-1.417,-1.4041,-1.4183,-1.4278,-1.4299,-1.4021,-1.3865,-1.3838,-1.3566,-1.4636,-1.6734,-1.5078,-1.6592,-2.0857,-2.1412,-2.275,-2.4861,-2.7279,-2.8136,-2.8136,-2.8136,-2.8136,-2.8136,-2.8136,-2.8136,-2.8136,0.0,0.0,0.0,0.0,0.0,0.0,0.0,0.0,0.0,0.0,0.0,0.0,0.0,0.0,0.0,0.0,0.0,0.0,0.0,0.0,0.0,0.0,0.0,0.0,0.0,0.0,0.0,0.0,0.0,-0.0972,-0.2948,-0.2963,-0.3978,-0.5849,-0.605,-0.3873,0.0,0.0,0.0,0.0,0.0,0.0,0.0,0.0,-0.1343,-0.3352,-0.536,-0.9221,-1.3451,-1.3431,-1.3417,-1.3403,-1.3403,-1.3403,-1.3403,-1.3403,-1.3403,-1.3403,-1.3403,-1.3403,-1.3403,-1.3403,-1.3403,-1.3403,-1.3403,-1.3403,-1.3424,-1.3505,-1.3458,-1.3451,-1.3607,-1.3573,-1.3498,-1.3431,-1.3478,-1.3471,-1.3315,-1.3553,-1.3743,-1.3743,-1.3946,-1.4089,-1.4089,-1.4089,-1.4089,-1.4089,-1.4156,-1.4163,-1.4089,-1.4224,-1.4272,-1.4197,-1.4265,-1.4258,-1.4177,-1.3953,-1.3804,-1.3722,-1.3587,-1.4055,-1.5127,-1.4372,-1.5196,-1.7329,-2.0096,-2.1739,-2.3126,-2.6758,-2.8136,-2.8136,-2.8136,-2.8136,-2.8136,-2.8136,-2.8136,-2.8136,0.0,0.0,0.0,0.0,0.0,0.0,0.0,0.0,0.0,0.0,0.0,0.0,0.0,0.0,0.0,0.0,0.0,0.0,0.0,0.0,0.0,0.0,0.0,0.0,0.0,0.0,0.0,0.0,0.0,0.0,0.0,0.0,0.0,0.0,0.0,0.0,0.0,0.0,0.0,0.0,0.0,0.0,0.0,0.0,0.0,0.0,0.0,-0.4356,-1.057,-1.2778,-1.3471,-1.3478,-1.3478,-1.3492,-1.3512,-1.3512,-1.3512,-1.3492,-1.3417,-1.3403,-1.3403,-1.3403,-1.3424,-1.3451,-1.3451,-1.3478,-1.3539,-1.3654,-1.3587,-1.3573,-1.3797,-1.3749,-1.3668,-1.3634,-1.3654,-1.3641,-1.3519,-1.3729,-1.3905,-1.3946,-1.4156,-1.4299,-1.4299,-1.4299,-1.4299,-1.4299,-1.4299,-1.4299,-1.4299,-1.4299,-1.4299,-1.4299,-1.4299,-1.4245,-1.4129,-1.3939,-1.3783,-1.3682,-1.3648,-1.3648,-1.3688,-1.3953,-1.4089,-1.4479,-1.9077,-2.1221,-2.1566,-2.6236,-2.8136,-2.8136,-2.8136,-2.8136,-2.8136,-2.8136,-2.8136,-2.8136,0.0,0.0,0.0,0.0,0.0,0.0,0.0,0.0,0.0,0.0,0.0,0.0,0.0,0.0,0.0,0.0,0.0,0.0,0.0,0.0,0.0,0.0,0.0,0.0,0.0,0.0,0.0,0.0,0.0,0.0,0.0,0.0,0.0,0.0,0.0,0.0,0.0,0.0,0.0,0.0,0.0,0.0,0.0,0.0,0.0,0.0,0.0,-0.0503,-0.218,-1.0602,-1.3418,-1.3363,-1.3363,-1.3599,-1.368,-1.368,-1.366,-1.3749,-1.3478,-1.3403,-1.3403,-1.3403,-1.3505,-1.3614,-1.3614,-1.3715,-1.381,-1.3824,-1.3817,-1.3817,-1.3838,-1.3831,-1.3783,-1.3648,-1.3743,-1.3824,-1.381,-1.3953,-1.4109,-1.4251,-1.4285,-1.4299,-1.4299,-1.4299,-1.4299,-1.4299,-1.4299,-1.4299,-1.4299,-1.4299,-1.4299,-1.4299,-1.4299,-1.4292,-1.4285,-1.3987,-1.3838,-1.3824,-1.3695,-1.3695,-1.3831,-1.3994,-1.415,-1.4455,-1.9141,-2.1221,-2.1566,-2.6236,-2.8136,-2.8136,-2.8136,-2.8136,-2.8136,-2.8136,-2.8136,-2.8136,0.0,0.0,0.0,0.0,0.0,0.0,0.0,0.0,0.0,0.0,0.0,0.0,0.0,0.0,0.0,0.0,0.0,0.0,0.0,0.0,0.0,0.0,0.0,0.0,0.0,0.0,0.0,0.0,0.0,0.0,0.0,0.0,0.0,0.0,0.0,0.0,0.0,0.0,0.0,0.0,0.0,0.0,0.0,0.0,0.0,0.0,0.0,0.0,-0.1027,-0.7199,-0.9288,-0.9316,-0.9316,-1.0017,-1.1246,-1.3165,-1.3851,-1.3817,-1.3702,-1.3675,-1.3675,-1.3675,-1.3715,-1.3756,-1.3756,-1.3804,-1.3865,-1.3966,-1.3905,-1.3899,-1.4089,-1.4048,-1.3966,-1.3912,-1.4027,-1.4089,-1.3994,-1.4116,-1.4238,-1.4292,-1.4299,-1.4299,-1.4299,-1.4299,-1.4299,-1.4299,-1.4299,-1.4299,-1.4299,-1.4299,-1.4299,-1.4299,-1.4299,-1.4251,-1.4156,-1.3946,-1.3838,-1.3838,-1.3783,-1.3838,-1.3987,-1.4143,-1.4245,-1.4476,-1.915,-2.1221,-2.1566,-2.6236,-2.8136,-2.8136,-2.8136,-2.8136,-2.8136,-2.8136,-2.8136,-2.8136,0.0,0.0,0.0,0.0,0.0,0.0,0.0,0.0,0.0,0.0,0.0,0.0,0.0,0.0,0.0,0.0,0.0,0.0,0.0,0.0,0.0,0.0,0.0,0.0,0.0,0.0,0.0,0.0,0.0,0.0,0.0,0.0,0.0,0.0,0.0,0.0,0.0,0.0,0.0,0.0,0.0,0.0,0.0,0.0,0.0,0.0,0.0,0.0,-0.052,-0.3471,-0.452,-0.4879,-0.628,-0.8731,-1.1194,-1.3288,-1.3987,-1.3987,-1.3987,-1.3987,-1.396,-1.3865,-1.3878,-1.3912,-1.3912,-1.3953,-1.4014,-1.4122,-1.4061,-1.4048,-1.4258,-1.4211,-1.4143,-1.4143,-1.4231,-1.4265,-1.4156,-1.4231,-1.4299,-1.4299,-1.4299,-1.4299,-1.4299,-1.4299,-1.4299,-1.4299,-1.4299,-1.4299,-1.4299,-1.4299,-1.4299,-1.4299,-1.4299,-1.4251,-1.4143,-1.3987,-1.3885,-1.3838,-1.3892,-1.3966,-1.4075,-1.4231,-1.4299,-1.4476,-1.915,-2.1221,-2.1566,-2.6236,-2.8136,-2.8136,-2.8136,-2.8136,-2.8136,-2.8136,-2.8136,-2.8136,0.0,0.0,0.0,0.0,0.0,0.0,0.0,0.0,0.0,0.0,0.0,0.0,0.0,0.0,0.0,0.0,0.0,0.0,0.0,0.0,0.0,0.0,0.0,0.0,0.0,0.0,0.0,0.0,0.0,0.0,0.0,0.0,0.0,0.0,0.0,0.0,0.0,0.0,0.0,0.0,0.0,0.0,0.0,0.0,0.0,0.0,0.0,0.0,0.0,0.0,0.0,-0.0884,-0.5488,-1.0347,-1.4209,-1.4319,-1.4299,-1.4299,-1.4299,-1.4299,-1.4224,-1.3919,-1.396,-1.4075,-1.4075,-1.419,-1.4299,-1.4299,-1.4299,-1.4299,-1.4299,-1.4299,-1.4299,-1.4299,-1.4299,-1.4299,-1.4299,-1.4299,-1.4299,-1.4299,-1.4299,-1.4299,-1.4299,-1.4299,-1.4299,-1.4299,-1.4299,-1.4299,-1.4299,-1.4299,-1.4299,-1.4299,-1.4299,-1.4299,-1.4299,-1.415,-1.3994,-1.3844,-1.4,-1.4075,-1.4082,-1.4231,-1.4299,-1.4476,-1.915,-2.1221,-2.1566,-2.6236,-2.8136,-2.8136,-2.8136,-2.8136,-2.8136,-2.8136,-2.8136,-2.8136,0.0,0.0,0.0,0.0,0.0,0.0,0.0,0.0,0.0,0.0,0.0,0.0,0.0,0.0,0.0,0.0,0.0,0.0,0.0,0.0,0.0,0.0,0.0,0.0,0.0,0.0,0.0,0.0,0.0,0.0,0.0,0.0,0.0,0.0,0.0,0.0,0.0,0.0,0.0,0.0,0.0,0.0,0.0,0.0,0.0,0.0,0.0,0.0,0.0,0.0,0.0,-0.0179,-0.1605,-0.7695,-1.4249,-1.436,-1.4333,-1.4333,-1.4306,-1.4299,-1.4278,-1.4183,-1.4197,-1.4231,-1.4231,-1.4265,-1.4299,-1.4299,-1.4299,-1.4299,-1.4299,-1.4299,-1.4299,-1.4299,-1.4299,-1.4299,-1.4299,-1.4299,-1.4299,-1.4299,-1.4299,-1.4299,-1.4299,-1.4299,-1.4299,-1.4299,-1.4299,-1.4299,-1.4299,-1.4299,-1.4299,-1.4299,-1.4394,-1.4346,-1.4143,-1.4095,-1.4102,-1.4163,-1.4102,-1.4129,-1.4231,-1.4278,-1.4299,-1.4476,-1.7413,-1.9662,-2.1394,-2.4508,-2.6758,-2.8136,-2.8136,-2.8136,-2.8136,-2.8136,-2.8136,-2.8136,0.0,0.0,0.0,0.0,0.0,0.0,0.0,0.0,0.0,0.0,0.0,0.0,0.0,0.0,0.0,0.0,0.0,0.0,0.0,0.0,0.0,0.0,0.0,0.0,0.0,0.0,0.0,0.0,0.0,0.0,0.0,0.0,0.0,0.0,0.0,0.0,0.0,0.0,0.0,0.0,0.0,0.0,0.0,0.0,0.0,0.0,0.0,0.0,0.0,0.0,0.0,0.0,0.0,-0.3939,-0.9152,-1.1638,-1.3255,-1.4346,-1.4306,-1.4299,-1.4299,-1.4299,-1.4299,-1.4299,-1.4299,-1.4299,-1.4299,-1.4299,-1.4299,-1.4299,-1.4299,-1.4299,-1.4299,-1.4299,-1.4299,-1.4299,-1.4299,-1.4299,-1.4299,-1.4299,-1.4299,-1.4299,-1.4299,-1.4299,-1.4299,-1.4299,-1.4299,-1.4299,-1.4299,-1.4299,-1.4326,-1.438,-1.4414,-1.4367,-1.4245,-1.419,-1.4177,-1.4211,-1.4177,-1.4211,-1.4299,-1.4299,-1.4299,-1.4476,-1.6721,-1.8627,-2.0009,-2.2428,-2.4679,-2.6758,-2.6758,-2.7448,-2.8136,-2.8136,-2.8136,-2.8136,0.0,0.0,0.0,0.0,0.0,0.0,0.0,0.0,0.0,0.0,0.0,0.0,0.0,0.0,0.0,0.0,0.0,0.0,0.0,0.0,0.0,0.0,0.0,0.0,0.0,0.0,0.0,0.0,0.0,0.0,0.0,0.0,0.0,0.0,0.0,0.0,0.0,0.0,0.0,0.0,0.0,0.0,0.0,0.0,0.0,0.0,0.0,0.0,0.0,0.0,0.0,0.0,0.0,0.0,-0.1073,-0.6958,-1.1266,-1.4346,-1.4312,-1.4299,-1.4299,-1.4299,-1.4299,-1.4299,-1.4299,-1.4299,-1.4299,-1.4299,-1.4299,-1.4299,-1.4299,-1.4299,-1.4299,-1.4299,-1.4299,-1.4299,-1.4299,-1.4299,-1.4299,-1.4299,-1.4299,-1.4299,-1.4299,-1.4299,-1.4299,-1.4299,-1.4299,-1.4306,-1.4319,-1.4319,-1.4387,-1.4529,-1.4407,-1.4394,-1.4509,-1.438,-1.4245,-1.4095,-1.4231,-1.4299,-1.4299,-1.4299,-1.4299,-1.4476,-1.6553,-1.7588,-1.7929,-2.0009,-2.2256,-2.4349,-2.4691,-2.6066,-2.7968,-2.8136,-2.8136,-2.8136,0.0,0.0,0.0,0.0,0.0,0.0,0.0,0.0,0.0,0.0,0.0,0.0,0.0,0.0,0.0,0.0,0.0,0.0,0.0,0.0,0.0,0.0,0.0,0.0,0.0,0.0,0.0,0.0,0.0,0.0,0.0,0.0,0.0,0.0,0.0,0.0,0.0,0.0,0.0,0.0,0.0,0.0,0.0,0.0,0.0,0.0,0.0,0.0,0.0,0.0,0.0,0.0,0.0,0.0,-0.0359,-0.1609,-0.7874,-1.4387,-1.4346,-1.4319,-1.4299,-1.4299,-1.4299,-1.4299,-1.4299,-1.4299,-1.4299,-1.4299,-1.4299,-1.4299,-1.4299,-1.4299,-1.4299,-1.4299,-1.4299,-1.4299,-1.4299,-1.4299,-1.4299,-1.4299,-1.4299,-1.4299,-1.4299,-1.4299,-1.4299,-1.4299,-1.4299,-1.4346,-1.4462,-1.4468,-1.4536,-1.4685,-1.4658,-1.4604,-1.4509,-1.4482,-1.4394,-1.4251,-1.4285,-1.4299,-1.4299,-1.4299,-1.4299,-1.4299,-1.4822,-1.6034,-1.7763,-1.8279,-1.9836,-2.2084,-2.3995,-2.5032,-2.5726,-2.7448,-2.8136,-2.8136,0.0,0.0,0.0,0.0,0.0,0.0,0.0,0.0,0.0,0.0,0.0,0.0,0.0,0.0,0.0,0.0,0.0,0.0,0.0,0.0,0.0,0.0,0.0,0.0,0.0,0.0,0.0,0.0,0.0,0.0,0.0,0.0,0.0,0.0,0.0,0.0,0.0,0.0,0.0,0.0,0.0,0.0,0.0,0.0,0.0,0.0,0.0,0.0,0.0,0.0,0.0,0.0,0.0,0.0,0.0,0.0,-0.3576,-0.8417,-1.309,-1.434,-1.4319,-1.4306,-1.4299,-1.4299,-1.4299,-1.4299,-1.4299,-1.4299,-1.4299,-1.4299,-1.4299,-1.4299,-1.4299,-1.4299,-1.4299,-1.4299,-1.4299,-1.4299,-1.4299,-1.4299,-1.4299,-1.4299,-1.4299,-1.4299,-1.4299,-1.4299,-1.4367,-1.4434,-1.4509,-1.4509,-1.4584,-1.4733,-1.4604,-1.4523,-1.4509,-1.4441,-1.4373,-1.4299,-1.4299,-1.4299,-1.4299,-1.4299,-1.4299,-1.4299,-1.4299,-1.4992,-1.621,-1.621,-1.7413,-1.9662,-2.0875,-2.2783,-2.4861,-2.6066,-2.7279,-2.7968,0.0164,0.0,0.0,0.0,0.0,0.0,0.0,0.0,0.0,0.0,0.0,0.0,0.0,0.0,0.0,0.0,0.0,0.0,0.0,0.0,0.0,0.0,0.0,0.0,0.0,0.0,0.0,0.0,0.0,0.0,0.0,0.0,0.0,0.0,0.0,0.0,0.0,0.0,0.0,0.0,0.0,0.0,0.0,0.0,0.0,0.0,0.0,0.0,0.0,0.0,0.0,0.0,0.0,0.0,0.0,0.0,0.0,-0.1967,-1.0738,-1.3629,-1.434,-1.4306,-1.4299,-1.4299,-1.4299,-1.4299,-1.4299,-1.4299,-1.4299,-1.4299,-1.4299,-1.4299,-1.4299,-1.4299,-1.4299,-1.4299,-1.4299,-1.4299,-1.4299,-1.4299,-1.4299,-1.4306,-1.4333,-1.434,-1.4346,-1.4373,-1.4482,-1.455,-1.455,-1.455,-1.4611,-1.4733,-1.4475,-1.4394,-1.4509,-1.4373,-1.4299,-1.4299,-1.4299,-1.4299,-1.4299,-1.4299,-1.4299,-1.4299,-1.4299,-1.4299,-1.4299,-1.4299,-1.5513,-1.7247,-1.7588,-2.0356,-2.4166,-2.452,-2.575,-2.6821,0.0835,0.0,0.0,0.0,0.0,0.0,0.0,0.0,0.0,0.0,0.0,0.0,0.0,0.0,0.0,0.0,0.0,0.0,0.0,0.0,0.0,0.0,0.0,0.0,0.0,0.0,0.0,0.0,0.0,0.0,0.0,0.0,0.0,0.0,0.0,0.0,0.0,0.0,0.0,0.0,0.0,0.0,0.0,0.0,0.0,0.0,0.0,0.0,0.0,0.0,0.0,0.0,0.0,0.0,0.0,0.0,0.0,-0.1252,-0.6611,-1.1094,-1.434,-1.4306,-1.4299,-1.4299,-1.4299,-1.4299,-1.4299,-1.4299,-1.4299,-1.4299,-1.4299,-1.4299,-1.4299,-1.4299,-1.4299,-1.4299,-1.4299,-1.4299,-1.4299,-1.4299,-1.4299,-1.4346,-1.4468,-1.4482,-1.4536,-1.4672,-1.4699,-1.4706,-1.4706,-1.4706,-1.4719,-1.474,-1.457,-1.4489,-1.4509,-1.4373,-1.4299,-1.4299,-1.4299,-1.4299,-1.4299,-1.4299,-1.4299,-1.4299,-1.4299,-1.4299,-1.4299,-1.4299,-1.4476,-1.4992,-1.7071,-1.9315,-2.1911,-2.3995,-2.3615,-2.2214,0.7893,0.5533,0.3018,0.0504,0.0,0.0,0.0,0.0,0.0,0.0,0.0,0.0,0.0,0.0,0.0,0.0,0.0,0.0,0.0,0.0,0.0,0.0,0.0,0.0,0.0,0.0,0.0,0.0,0.0,0.0,0.0,0.0,0.0,0.0,0.0,0.0,0.0,0.0,0.0,0.0,0.0,0.0,0.0,0.0,0.0,0.0,0.0,0.0,0.0,0.0,0.0,0.0,0.0,0.0,0.0,0.0,0.0,-0.0537,-0.2503,-0.8591,-1.4373,-1.434,-1.4312,-1.4299,-1.4299,-1.4299,-1.4299,-1.4299,-1.4299,-1.4299,-1.4299,-1.4299,-1.4299,-1.4299,-1.4299,-1.4299,-1.4299,-1.4299,-1.4333,-1.4407,-1.4421,-1.4475,-1.4624,-1.4638,-1.4665,-1.4733,-1.474,-1.474,-1.474,-1.4658,-1.4611,-1.4611,-1.4468,-1.4394,-1.4394,-1.4333,-1.4299,-1.4299,-1.4299,-1.4299,-1.4299,-1.4299,-1.4299,-1.4299,-1.4299,-1.4299,-1.4299,-1.4299,-1.4299,-1.4476,-1.5513,-1.7304,-1.9489,-2.054,-2.1194,-2.1383]}]]